GFSSW_sfc_rhum_000.txt.gz
RH
66 67 67 66 66 66 65 66 67 72 78 86 88 87 84 86 85 86 91 64 67 57 60 54 49 50 57 58 65 67 88 86 69 59 47 38 39 29 28 33 33 31 29 27 36
69 67 67 66 67 66 66 65 68 69 75 76 86 87 88 88 85 89 74 65 60 57 66 68 69 66 73 74 65 85 94 78 58 51 48 41 37 32 37 40 40 39 35 34 52
72 69 69 68 68 66 67 67 68 70 73 79 77 82 91 90 88 80 64 67 64 59 67 74 75 71 78 75 80 85 86 64 55 45 44 44 42 33 36 41 36 35 38 35 49
74 71 70 68 68 66 67 66 68 70 72 75 78 81 88 90 90 72 56 55 63 65 70 77 84 85 82 85 68 86 70 62 61 53 55 56 40 41 39 35 31 33 35 36 34
76 73 70 69 69 68 68 67 67 69 70 74 78 82 83 99 91 56 48 53 58 65 79 84 90 86 84 76 75 82 68 62 59 56 52 48 52 45 42 35 35 34 33 35 36
78 75 73 71 72 72 72 71 68 68 72 74 77 81 88 92 56 47 56 55 58 67 76 80 86 75 79 76 73 65 65 64 57 53 52 53 50 48 41 37 38 36 36 37 37
80 79 80 76 73 73 74 75 75 72 71 71 74 77 97 81 51 53 48 56 48 53 72 73 74 85 78 82 65 64 71 63 61 64 56 48 57 54 39 38 39 38 38 38 37
81 83 84 81 78 78 76 78 75 77 74 73 73 88 92 56 58 56 54 54 45 45 48 46 50 71 70 65 73 83 83 89 65 60 61 55 71 50 39 43 42 42 43 43 37
84 84 86 83 82 84 84 81 79 75 74 74 88 91 90 55 68 56 56 58 48 49 49 37 50 63 68 84 87 90 96 86 76 61 63 62 63 48 39 45 44 45 45 41 45
84 86 87 84 85 86 86 82 79 82 79 75 76 91 77 68 60 57 54 53 55 57 56 65 70 85 91 90 90 73 88 75 72 73 66 66 65 56 44 45 46 43 46 45 49
83 84 87 86 86 87 87 94 91 94 93 85 78 74 51 58 54 62 55 56 61 68 85 73 92 90 82 85 81 82 84 79 74 58 68 66 65 55 51 50 48 48 44 50 53
80 87 88 87 85 87 91 94 82 75 95 80 76 70 58 58 66 65 54 70 72 91 84 88 88 71 71 73 79 84 84 86 69 55 65 74 76 62 49 46 44 43 45 56 59
79 85 88 87 86 91 93 87 80 77 96 82 80 80 69 61 67 73 60 69 70 74 71 89 68 56 68 77 82 82 83 78 81 64 54 54 62 68 57 48 41 45 40 50 52
80 86 89 87 91 97 92 84 82 77 99 78 84 81 73 66 78 56 53 62 74 81 75 76 67 69 68 76 73 87 66 68 69 83 93 73 91 70 57 55 47 46 47 54 57
83 84 89 78 91 95 79 88 86 85 81 70 84 59 67 76 68 73 54 60 85 85 83 83 82 81 76 69 61 75 57 61 68 77 88 75 90 75 54 59 50 45 48 53 52
92 88 88 84 92 88 90 83 87 98 93 93 80 87 86 78 69 65 67 62 65 76 76 76 64 70 69 58 54 64 68 68 73 85 93 71 82 80 71 52 48 49 48 55 54
93 92 85 74 96 89 81 89 98 96 69 88 90 89 83 86 80 75 92 94 99 99 99 97 93 77 75 82 70 64 77 96 98 97 85 64 84 65 59 51 37 44 54 55 53
94 92 78 72 87 83 88 97 96 68 86 80 81 87 92 74 85 76 90 95 88 97 99 95 98 86 76 74 80 76 72 88 93 97 82 76 81 75 54 42 40 42 46 52 58
91 95 89 94 83 79 89 98 85 76 78 87 82 93 92 86 77 86 91 88 70 94 96 97 92 77 74 68 63 82 86 61 80 80 94 90 88 72 62 51 47 52 54 56 60
97 96 92 85 77 84 94 79 84 74 82 80 94 88 92 82 90 88 88 71 81 74 72 82 98 81 72 71 70 74 63 84 84 100 94 85 86 69 61 44 56 55 55 56 62
97 98 91 82 82 95 97 90 80 79 76 83 92 95 86 83 88 83 85 72 73 66 75 86 94 98 92 90 84 87 84 73 64 79 97 93 79 56 48 43 53 52 52 58 65
96 99 94 91 99 98 97 76 69 81 79 79 83 92 91 77 90 87 83 61 59 61 90 76 94 97 81 69 74 66 68 64 71 71 75 98 75 44 44 40 46 52 50 56 60
97 98 95 91 98 98 84 73 70 80 80 77 90 82 79 70 78 72 64 48 54 64 76 78 98 98 97 90 87 95 64 62 56 70 99 97 74 43 45 46 47 51 54 56 60
98 99 99 98 90 82 82 82 82 74 70 71 83 79 86 79 66 68 65 56 49 53 67 72 94 100 92 100 86 90 81 69 82 79 74 78 76 61 56 43 52 58 54 58 60
98 95 85 98 98 85 80 80 82 83 78 80 89 90 87 90 77 77 61 50 60 74 80 83 100 100 93 93 98 87 80 78 94 74 77 60 68 57 49 41 48 55 57 59 61
98 96 86 84 78 91 86 89 83 80 84 92 94 77 82 87 64 64 58 64 63 77 88 91 98 100 97 84 86 92 84 81 82 87 87 85 89 38 46 48 57 58 57 57 59
99 94 80 85 83 92 89 83 86 81 81 73 82 83 82 82 64 70 67 60 59 76 83 91 99 99 100 88 83 94 79 83 92 88 87 97 65 50 52 48 62 66 54 56 57

GFSSW_sfc_rhum_003.txt.gz
RH
71 68 68 68 68 69 69 68 70 72 78 85 91 85 85 85 87 85 96 70 70 57 58 57 55 64 62 68 67 69 89 90 70 65 52 45 44 36 33 35 36 35 33 33 37
73 70 67 68 68 69 69 68 69 72 77 80 86 89 87 88 90 90 71 68 63 61 68 70 71 72 79 80 70 88 95 78 66 59 53 47 44 40 37 38 42 40 35 46 62
76 73 70 69 68 70 70 70 71 73 74 80 79 85 89 86 88 78 64 68 66 61 66 75 79 77 84 82 84 88 86 67 63 52 48 51 46 39 43 43 36 35 35 48 63
79 76 73 71 66 69 70 71 72 73 75 77 79 81 90 89 88 72 58 56 62 66 72 80 86 88 88 87 76 89 77 67 65 57 60 62 50 45 41 37 33 34 38 38 51
80 78 76 73 67 70 70 71 70 71 72 77 80 82 86 93 89 60 55 59 64 76 84 87 93 88 89 82 78 86 80 65 65 64 60 57 60 59 49 40 34 34 37 38 38
79 81 78 75 73 74 73 72 70 70 76 76 81 81 88 92 57 52 51 59 63 68 84 85 89 83 88 85 82 73 70 68 65 61 61 62 59 58 50 42 40 38 38 37 38
77 81 83 81 76 75 76 75 76 74 73 74 78 77 95 78 55 57 48 61 57 70 76 78 82 90 84 86 73 71 80 68 65 64 67 58 63 60 50 44 42 41 42 38 40
81 82 86 84 82 80 78 76 80 80 77 74 76 90 91 59 62 60 56 58 52 52 51 49 62 79 75 63 73 81 86 92 66 63 62 60 72 58 47 48 45 43 45 43 42
82 81 83 87 85 84 85 80 79 76 75 77 86 89 88 56 74 60 59 56 52 51 54 40 50 61 65 82 88 88 89 88 78 61 65 69 68 56 46 45 48 46 46 42 44
84 81 80 88 86 87 86 83 80 82 82 74 76 94 79 70 64 60 61 56 58 61 60 64 71 78 84 89 89 89 96 81 86 71 71 66 60 61 55 51 47 46 44 50 45
87 82 81 86 88 88 87 91 90 91 92 87 82 77 58 60 56 66 57 61 63 70 85 76 93 94 75 86 80 89 88 81 67 62 72 65 64 55 59 59 56 55 46 50 45
87 87 81 86 88 87 91 92 84 74 94 82 81 75 63 61 70 67 55 73 81 93 86 89 96 79 70 74 81 84 85 82 66 57 59 65 69 64 57 54 54 53 47 49 54
87 91 82 88 88 92 88 90 78 80 93 81 84 83 76 65 68 74 62 73 86 95 94 90 72 62 69 79 88 89 92 73 70 67 60 64 62 52 46 50 52 49 46 44 48
90 90 82 91 93 86 91 83 82 77 98 79 93 84 76 70 78 59 58 70 84 92 83 79 64 70 76 78 79 92 74 73 72 80 86 79 76 65 63 55 52 48 56 47 55
84 89 83 90 94 94 78 86 84 77 86 73 89 60 69 75 69 76 59 64 80 91 82 85 90 82 79 76 67 75 65 68 78 89 92 79 89 74 51 51 54 58 56 50 54
82 90 89 93 90 82 84 83 87 91 91 91 84 87 89 79 68 70 72 61 67 76 79 77 71 78 77 64 61 64 74 74 78 85 96 71 80 62 54 67 56 53 54 50 56
82 86 94 79 91 86 79 89 96 97 75 92 79 86 72 85 77 74 85 92 95 99 97 97 88 83 77 81 72 65 80 97 98 97 83 65 72 58 57 57 52 47 50 59 60
82 90 91 81 87 78 83 94 97 67 91 79 77 92 85 82 85 84 90 94 86 98 99 97 97 92 79 80 83 80 75 87 86 96 82 50 68 61 53 38 35 42 48 64 62
83 97 94 93 79 74 82 99 81 71 80 88 80 87 89 78 79 86 88 74 77 81 95 99 95 82 73 61 62 96 97 67 69 64 96 86 82 76 68 65 59 55 55 63 61
98 97 97 87 74 81 89 82 76 75 81 78 88 73 77 79 90 86 72 76 74 71 68 86 95 82 75 70 66 72 65 94 96 96 94 78 89 76 70 51 43 55 50 57 60
98 97 95 83 79 92 98 84 78 78 77 86 85 81 76 85 88 73 72 74 75 77 76 86 94 92 91 88 83 82 88 77 70 82 95 94 63 70 63 52 54 57 60 61 66
97 99 98 86 98 98 94 80 70 88 87 82 77 76 77 86 93 92 92 74 70 74 92 84 95 97 82 72 59 63 70 74 91 87 66 93 76 66 63 48 53 56 57 65 71
97 98 96 81 98 98 81 72 75 87 93 86 87 75 68 80 89 86 71 53 68 70 81 78 99 96 99 94 93 98 78 64 64 71 76 70 48 60 48 52 59 59 63 70 75
98 100 99 98 90 80 78 86 82 70 67 67 72 72 83 87 73 77 72 59 61 61 69 80 98 99 86 94 89 95 92 67 65 81 76 74 63 51 51 52 54 62 62 69 74
98 95 90 98 98 80 78 76 80 88 72 69 85 81 87 86 81 81 72 59 61 69 83 94 100 100 92 84 96 94 81 76 75 64 68 55 67 60 52 46 49 57 63 69 74
99 97 88 86 79 77 80 80 84 75 84 87 93 77 84 91 70 67 63 60 61 84 86 92 100 100 100 95 95 94 91 85 65 65 61 74 68 52 47 51 58 58 61 65 69
96 95 80 82 84 84 80 81 82 76 85 76 83 80 83 79 70 64 74 71 64 82 94 98 100 100 96 92 95 98 86 84 71 67 70 93 68 52 58 48 60 62 56 59 63

GFSSW_sfc_rhum_006.txt.gz
RH
77 74 71 68 67 68 69 69 68 71 74 80 86 86 85 86 86 86 97 77 75 61 59 62 60 67 66 73 75 74 91 94 80 70 59 48 48 39 35 35 39 37 38 37 39
81 76 72 70 68 67 68 69 69 70 75 79 84 89 85 88 90 92 71 69 64 61 71 73 76 74 82 80 74 90 97 82 68 62 57 51 51 49 40 42 42 40 36 48 66
78 80 75 72 69 64 68 70 71 72 76 78 79 85 91 86 89 79 64 70 67 64 67 78 80 78 85 85 85 87 87 74 70 60 56 57 53 46 50 53 41 37 36 41 75
75 80 78 74 71 64 67 69 71 74 75 78 79 80 89 88 93 68 57 57 64 71 72 81 86 86 88 88 81 94 83 77 71 64 67 70 60 55 48 45 36 38 37 41 51
78 76 82 77 74 67 68 70 71 71 72 78 81 82 93 94 87 62 60 60 71 77 76 72 92 87 88 86 85 89 86 72 68 67 70 66 68 72 63 49 42 42 39 39 40
76 79 82 83 77 75 72 72 71 71 75 76 80 78 89 96 57 52 48 59 70 83 92 88 91 87 90 88 85 78 77 74 68 71 68 67 65 68 56 52 49 46 43 41 42
85 81 82 84 80 76 76 74 74 72 74 72 77 76 94 80 58 60 50 61 60 70 86 87 84 90 86 91 80 79 87 76 72 67 70 67 70 67 52 53 53 50 47 43 41
84 86 82 83 84 81 78 76 77 81 79 74 77 88 94 60 67 62 56 56 54 63 57 69 74 85 88 76 70 81 86 96 71 68 66 66 78 58 49 46 49 48 52 48 43
74 85 86 81 85 84 84 79 79 76 76 75 83 85 89 55 74 63 58 56 54 55 56 41 57 71 77 88 90 87 95 92 75 65 67 72 72 61 52 49 52 55 54 49 47
70 77 84 88 82 87 86 81 80 80 80 72 74 93 77 71 66 60 66 54 59 61 61 66 75 88 85 92 95 90 93 84 73 68 72 79 76 62 57 61 63 61 58 54 51
70 78 85 89 83 87 86 89 90 96 90 86 83 77 64 64 59 67 62 62 65 71 89 78 96 90 75 81 78 93 95 93 80 62 71 76 71 61 57 62 67 58 63 56 55
68 74 86 86 87 89 82 86 82 71 94 84 84 80 68 64 73 71 59 74 80 92 87 85 92 78 74 80 83 85 89 87 78 62 67 67 63 54 54 56 64 64 58 60 57
69 74 79 88 92 93 80 84 79 74 89 78 83 83 78 68 74 77 66 78 89 96 88 89 74 67 75 84 89 92 93 89 84 64 57 64 61 48 40 40 41 43 43 48 50
71 72 77 89 99 90 90 82 82 68 93 73 96 86 81 71 81 62 62 73 86 90 86 94 75 74 82 84 84 92 79 78 80 88 95 68 78 55 49 53 42 40 43 56 55
72 73 77 87 97 94 84 84 83 69 91 76 94 66 75 72 68 83 63 66 92 90 85 84 88 87 84 77 74 74 71 80 82 93 95 86 91 72 52 50 47 55 62 60 53
78 76 78 90 97 84 79 78 82 87 87 91 87 91 90 79 71 78 69 61 63 74 79 79 75 76 79 69 65 67 79 78 82 81 94 75 87 65 52 45 57 49 54 58 57
76 78 85 81 97 87 77 83 95 92 76 94 83 86 78 85 79 78 82 91 93 99 98 94 89 74 75 84 75 74 90 98 98 98 90 67 78 56 49 44 49 49 50 48 59
81 81 88 79 92 84 82 89 90 68 84 76 71 76 84 78 73 82 88 94 84 92 99 97 95 89 77 77 85 81 79 92 90 92 88 61 79 66 50 38 34 32 49 56 66
85 94 97 89 93 83 80 88 78 70 80 88 77 83 86 79 81 87 88 82 68 91 98 97 95 87 81 68 67 97 97 71 76 64 90 84 75 58 59 61 56 52 43 57 68
98 97 96 89 90 90 83 83 71 70 79 79 89 80 87 85 91 97 85 76 73 75 70 85 96 80 83 75 70 88 76 98 97 96 95 82 72 71 53 63 56 51 38 63 69
98 98 93 86 94 97 98 85 72 78 73 78 82 84 65 69 81 84 76 70 75 75 74 89 96 90 93 94 82 92 96 97 80 88 93 90 62 60 59 66 58 53 51 59 67
98 98 97 89 100 99 94 72 68 94 88 78 76 67 72 82 95 89 86 75 70 77 86 79 97 96 84 74 64 65 73 77 87 88 86 91 59 53 84 71 57 61 63 74 75
97 98 97 87 100 99 85 78 79 96 94 87 85 73 69 78 87 89 81 61 71 80 86 80 98 98 95 89 86 93 77 66 67 79 84 86 52 31 42 52 58 70 84 89 88
98 100 99 98 93 78 80 82 83 77 84 77 77 77 81 83 80 85 83 64 68 71 69 71 98 98 86 94 96 98 90 79 74 95 76 70 54 39 52 54 58 80 88 91 88
97 98 91 99 97 74 72 77 81 85 81 76 84 79 91 97 82 89 76 69 68 66 77 92 99 100 93 79 99 98 96 88 94 79 78 56 52 50 52 62 61 71 84 87 85
99 96 90 87 76 76 83 87 85 76 81 83 86 76 86 92 78 74 79 75 82 73 82 93 98 100 99 96 97 99 95 96 95 75 67 59 58 48 60 52 57 61 74 80 81
96 94 80 82 81 84 84 86 78 75 70 77 80 86 89 80 73 71 64 73 74 78 96 98 100 100 95 95 96 99 90 80 78 80 63 74 59 47 62 63 60 63 66 70 77

GFSSW_sfc_rhum_009.txt.gz
RH
78 78 78 74 70 67 66 63 68 69 71 73 78 85 85 87 87 82 93 71 73 62 58 56 55 59 58 62 65 63 77 78 64 60 47 39 38 34 29 27 29 27 26 28 42
76 75 77 76 72 69 67 63 67 69 71 75 78 84 85 87 90 92 72 67 66 60 65 62 65 62 66 68 66 75 87 75 62 53 49 42 42 40 36 36 34 31 28 31 48
77 75 76 80 74 71 66 67 69 71 74 76 78 80 87 89 94 81 66 70 68 67 63 67 68 64 69 74 72 77 75 67 60 52 49 54 50 42 40 46 38 35 30 30 43
86 74 77 79 76 73 66 62 69 72 74 76 78 80 87 87 89 67 61 59 67 68 68 76 72 72 79 81 73 83 76 73 64 58 61 62 56 58 48 44 36 32 34 33 31
75 87 77 77 82 76 68 65 70 70 73 73 78 81 88 94 84 58 56 57 71 77 74 72 79 74 77 78 73 83 78 69 64 65 65 63 66 62 63 47 42 44 45 40 35
71 81 83 80 81 82 75 71 71 70 73 75 78 76 82 96 53 52 47 53 77 78 77 72 81 77 78 80 76 69 73 69 64 62 64 65 60 63 50 50 52 48 42 37 37
68 77 84 85 81 83 74 75 72 72 74 74 77 74 88 79 56 57 53 52 55 70 86 81 75 78 80 87 72 71 80 69 67 64 62 62 72 73 50 47 48 48 44 42 39
65 70 84 82 84 84 81 76 74 76 77 73 76 80 91 60 65 60 54 52 51 59 64 75 74 79 82 72 68 76 75 84 62 64 61 57 62 54 46 48 51 48 48 45 41
65 66 74 86 85 85 86 81 78 78 76 80 79 79 85 54 74 65 53 52 53 52 53 46 57 66 75 84 84 82 83 86 70 58 58 67 69 52 47 51 51 48 46 47 43
62 65 72 77 85 89 91 83 79 82 77 70 73 88 78 69 66 64 62 52 56 59 59 63 71 80 81 84 84 83 93 80 74 59 63 67 69 57 53 51 48 49 48 49 46
67 70 71 74 89 90 94 94 97 96 89 85 83 79 67 63 58 68 61 59 61 68 88 75 89 86 75 76 71 83 87 88 76 60 69 65 61 52 48 51 49 48 43 44 48
67 73 71 72 80 91 89 92 80 70 94 86 85 81 71 65 74 72 60 72 74 88 81 84 90 72 70 75 79 82 86 81 63 63 65 64 63 51 46 46 44 43 47 48 50
71 76 73 71 75 95 90 83 76 63 80 76 84 85 77 69 73 80 66 76 84 93 89 89 73 66 72 81 83 71 77 69 66 65 60 61 56 37 28 29 36 39 38 38 38
74 71 70 76 87 92 91 82 80 60 88 70 90 87 80 70 76 64 63 71 83 87 74 75 66 75 85 87 81 82 72 75 78 83 82 60 70 39 38 36 34 37 35 37 40
72 72 74 76 91 99 92 80 73 65 78 76 93 65 76 74 68 80 64 65 92 90 87 80 84 92 86 76 75 75 68 73 79 89 93 74 86 54 47 45 41 38 43 40 40
67 75 76 82 93 92 91 86 70 83 83 92 92 92 87 80 76 75 72 61 63 77 77 76 72 71 74 69 68 65 79 76 78 86 96 69 76 58 42 37 37 37 35 44 43
82 80 77 77 87 91 95 89 96 88 74 96 90 89 75 88 81 77 84 89 91 98 96 78 80 76 72 79 74 73 98 93 96 98 84 61 78 54 40 35 34 33 37 42 43
85 82 79 81 90 96 90 98 95 67 83 71 65 82 84 72 75 81 83 91 80 90 92 97 88 76 75 74 79 84 84 89 90 82 74 66 79 58 45 37 35 34 33 34 46
86 98 97 97 90 96 97 98 78 74 80 75 73 85 88 72 72 75 85 84 74 81 97 96 86 80 82 74 65 97 96 67 94 85 95 72 63 49 43 42 52 50 47 46 42
98 97 95 90 92 97 100 90 72 79 72 72 88 75 82 80 89 86 89 78 74 73 67 80 94 78 80 76 75 85 78 95 97 96 90 68 67 64 43 43 57 56 52 48 48
96 97 91 91 93 99 100 85 73 78 70 76 82 86 78 84 83 92 79 68 76 84 74 81 94 86 89 91 78 90 98 99 97 96 86 71 46 43 38 53 60 58 53 56 58
97 100 97 94 99 100 98 71 76 89 85 82 72 71 74 74 84 77 82 70 69 78 94 78 89 97 86 70 64 64 72 74 90 88 87 81 61 33 50 69 57 58 59 71 76
98 98 96 91 99 100 90 81 85 95 92 82 82 74 71 76 89 86 81 63 76 76 86 81 97 98 89 85 75 93 77 71 71 75 90 85 59 33 36 55 56 59 62 78 83
98 100 100 97 94 91 83 84 86 82 90 80 81 77 82 80 70 84 85 69 71 72 69 72 90 92 77 77 98 100 86 87 95 92 76 72 60 44 39 50 57 52 62 78 83
99 98 89 100 98 79 75 78 87 90 82 81 85 74 80 93 86 91 81 73 75 71 75 84 99 98 90 78 92 99 96 94 98 82 82 56 56 46 40 47 58 59 55 74 85
99 97 93 93 79 72 86 86 82 85 84 89 85 75 80 89 72 81 79 78 75 78 83 87 99 100 97 92 97 99 96 94 88 81 73 64 65 45 42 47 68 80 63 68 85
96 93 98 80 77 81 88 79 84 76 78 74 77 77 85 78 69 67 71 69 72 76 86 98 100 100 92 74 99 99 93 94 91 81 79 86 64 52 56 76 83 71 65 70 83

GFSSW_sfc_rhum_012.txt.gz
RH
78 76 75 77 77 72 69 67 61 64 69 71 74 78 86 85 86 83 71 50 51 60 58 44 40 40 40 42 45 46 40 36 34 34 27 26 28 23 21 21 21 19 20 22 29
75 81 75 76 77 75 71 68 64 66 70 71 75 78 85 88 65 69 53 63 63 63 49 45 45 41 39 44 44 44 43 34 27 28 30 26 29 25 28 24 24 23 20 22 28
72 75 82 76 77 78 73 70 66 70 71 74 75 78 84 80 85 71 60 68 69 61 47 44 43 43 45 46 46 45 46 31 41 36 33 32 34 30 30 30 25 24 22 24 25
66 72 77 81 79 80 74 69 65 70 72 73 75 78 83 86 91 59 63 62 69 58 56 53 48 48 49 53 45 52 42 40 40 42 46 44 37 40 32 27 21 25 25 29 27
62 65 73 82 81 80 79 71 66 71 71 72 76 78 72 77 71 47 53 54 56 64 64 61 54 49 54 49 52 56 42 44 42 48 45 41 42 41 36 30 29 30 31 32 29
59 66 68 81 83 85 83 76 70 71 72 76 77 73 61 78 43 41 42 52 58 67 62 62 65 54 54 51 53 48 53 49 46 44 41 46 40 37 35 30 29 30 29 28 27
56 64 64 70 81 83 83 75 73 72 74 75 76 61 70 50 40 40 41 47 54 61 73 66 60 56 55 60 55 52 58 43 40 39 43 43 48 43 30 28 28 28 25 25 24
50 63 63 65 79 88 88 83 77 76 76 74 74 60 63 50 46 47 41 43 47 48 59 62 59 58 54 54 49 55 54 54 39 45 39 41 43 29 34 32 34 29 25 24 24
58 56 64 66 73 87 90 87 80 79 77 76 61 57 63 50 58 46 39 46 45 41 52 53 48 50 56 54 54 51 45 53 46 40 43 45 44 35 30 35 34 28 27 27 26
58 62 65 69 72 87 88 93 81 78 71 62 66 74 63 59 56 52 44 41 48 49 53 54 56 56 55 60 52 46 58 48 45 40 47 47 44 36 33 34 33 30 29 30 31
64 64 70 74 70 78 91 99 99 96 73 62 63 59 59 54 49 56 43 45 46 54 68 63 78 74 52 51 45 54 54 52 45 46 50 46 41 35 32 31 31 30 29 27 28
70 69 73 68 74 73 90 96 66 55 82 67 62 62 60 53 64 61 46 52 54 60 58 71 82 51 49 50 56 57 59 54 43 40 47 43 43 35 32 31 28 27 26 26 25
72 69 71 70 69 78 88 92 73 64 59 80 67 65 61 57 58 65 52 54 57 67 65 61 57 53 58 61 66 58 60 54 52 45 44 49 46 27 21 20 21 22 22 21 21
67 69 68 67 76 72 90 82 82 79 96 74 82 70 61 57 64 51 46 52 66 62 62 62 49 62 62 64 57 62 45 50 58 64 63 44 50 28 23 23 22 22 22 22 23
65 72 70 72 79 77 94 91 83 86 95 66 82 57 59 55 59 71 51 55 64 64 64 64 68 71 76 64 55 60 52 53 55 62 64 53 86 33 28 29 26 22 21 19 20
65 76 79 80 76 66 88 94 89 95 90 84 83 91 86 65 67 68 66 51 50 62 63 55 53 54 52 53 54 52 58 59 59 67 90 51 50 41 27 23 22 22 20 19 20
81 85 88 75 78 78 93 95 99 94 60 93 83 81 68 71 76 68 78 85 77 96 95 64 61 55 53 62 57 59 73 78 83 93 66 29 41 38 26 24 23 20 19 20 21
85 83 79 72 72 80 95 99 97 56 61 62 71 65 69 63 76 70 79 88 67 67 78 80 72 61 57 61 55 66 62 66 66 46 41 31 54 32 21 22 22 21 25 30 31
86 91 81 73 76 87 98 99 87 54 60 66 75 78 80 60 60 71 75 69 61 65 87 88 76 58 58 53 55 72 92 54 74 55 80 47 38 28 24 27 24 24 34 34 33
96 93 86 86 78 91 100 98 62 61 56 55 70 57 68 70 66 66 69 54 57 52 47 60 87 55 55 62 61 64 54 87 93 83 68 37 41 38 22 23 26 35 34 31 32
95 94 93 83 82 98 100 89 76 55 53 59 65 63 55 64 61 62 58 54 53 58 53 57 65 69 76 80 60 79 88 94 73 74 72 61 34 18 22 23 21 32 32 32 39
97 100 93 88 99 99 99 69 70 68 68 63 53 54 56 60 68 63 62 52 46 60 74 57 69 88 71 44 45 43 52 60 92 80 87 73 54 22 23 28 43 34 29 36 46
98 97 94 91 99 99 89 72 76 74 73 65 65 55 52 61 71 57 60 49 54 57 58 60 91 92 80 68 56 71 55 54 79 83 90 83 46 24 23 28 30 36 32 34 45
98 100 97 92 79 75 70 72 80 71 74 64 66 59 59 60 57 66 65 58 51 52 62 60 66 90 69 76 66 100 76 75 96 93 68 67 54 36 30 28 26 24 25 34 40
98 96 86 100 87 59 59 67 75 75 69 63 67 60 61 68 68 67 62 61 60 64 61 65 100 95 75 66 79 90 85 92 100 78 79 54 45 37 32 32 30 31 38 54 48
97 98 76 83 67 57 73 67 68 75 66 71 68 62 62 65 63 67 64 64 60 60 64 71 92 98 98 79 78 98 87 93 96 92 68 58 59 42 40 45 52 56 71 63 55
96 87 90 83 74 62 67 62 63 63 68 64 62 67 76 69 58 58 56 60 62 64 70 90 100 100 91 62 72 96 94 94 94 90 74 80 59 47 77 82 84 85 69 60 54

GFSSW_sfc_rhum_015.txt.gz
RH
70 72 78 78 76 79 76 72 70 64 64 70 71 74 78 85 87 70 62 47 44 60 61 38 35 33 32 35 31 35 40 36 30 23 20 15 18 18 15 16 15 14 15 20 24
63 69 71 76 79 78 78 74 71 67 66 70 72 75 80 85 54 58 48 53 57 58 48 41 38 34 34 35 37 41 40 31 19 17 20 19 22 19 22 20 17 18 16 19 23
56 61 68 73 80 79 80 77 72 68 70 71 75 76 81 75 73 54 55 62 63 60 44 35 32 33 36 33 36 37 40 24 21 28 27 26 22 20 24 27 18 18 17 18 20
54 56 63 67 73 80 82 81 74 71 71 72 74 76 81 84 88 51 60 61 67 53 43 42 40 43 42 41 32 39 30 28 27 28 35 34 25 24 25 24 17 17 17 19 22
53 52 58 64 68 75 81 83 80 68 72 73 72 76 75 90 77 44 56 56 55 59 51 47 45 40 45 37 36 42 36 25 28 33 34 33 35 32 31 26 21 21 22 25 23
54 52 54 64 64 70 81 84 84 70 73 74 72 78 64 81 46 39 38 43 44 58 61 50 48 40 44 41 43 35 38 36 34 35 34 39 35 31 28 24 24 24 24 24 24
55 56 54 59 60 66 75 85 85 74 73 76 75 60 58 52 33 35 40 42 48 51 61 54 53 58 54 56 43 44 50 40 35 33 36 33 41 38 28 24 24 22 21 22 21
56 56 58 59 64 66 73 84 86 83 75 76 73 52 58 42 36 37 35 46 46 46 59 58 53 56 46 45 45 49 43 47 30 33 30 34 42 24 22 24 26 23 20 20 18
55 60 62 61 64 69 74 82 83 89 76 75 61 55 54 51 49 37 34 45 44 44 48 53 63 55 49 52 44 42 43 39 35 28 33 38 40 25 26 25 25 25 22 22 21
62 64 66 67 70 73 74 80 83 88 75 63 54 66 49 51 48 42 34 39 43 46 52 50 47 50 49 46 49 40 46 38 35 27 36 38 36 27 24 26 28 26 23 23 22
64 65 70 66 72 72 80 93 100 100 95 69 61 50 50 47 43 48 37 43 44 47 60 55 70 64 44 41 39 41 41 38 31 28 38 37 33 27 23 23 25 24 23 23 22
66 70 71 70 69 70 74 89 90 81 91 58 50 51 46 44 59 50 37 51 59 70 58 75 80 47 39 40 44 45 47 45 35 30 36 37 36 29 25 24 22 23 22 22 20
66 64 71 71 71 68 66 80 83 90 82 74 52 54 58 51 51 60 44 43 56 61 58 64 50 45 46 49 54 47 50 45 42 36 37 41 40 27 20 20 19 19 20 20 20
61 61 74 72 74 66 68 72 89 93 100 92 79 58 56 51 59 45 41 45 54 57 55 57 42 49 48 55 47 53 36 39 45 51 51 38 45 24 16 16 17 18 17 17 17
59 65 71 72 87 75 69 95 97 92 98 72 73 46 49 50 56 61 40 52 55 50 52 58 55 56 60 51 44 50 46 47 49 54 56 43 57 31 16 16 15 15 18 18 18
62 78 81 82 72 65 61 96 93 99 97 85 78 81 68 49 57 58 60 48 42 49 49 44 43 47 46 44 45 46 50 52 53 64 85 45 39 33 20 13 15 14 16 17 16
66 83 83 81 83 55 86 90 100 98 59 94 74 75 64 64 65 66 73 74 69 93 88 58 53 48 43 55 50 54 67 76 83 92 66 24 31 29 18 15 15 17 16 15 16
80 84 80 73 59 72 92 91 99 59 59 56 73 66 73 60 58 61 69 74 52 52 65 79 75 53 51 54 52 61 60 62 57 41 35 26 36 25 17 14 16 15 17 17 19
82 76 86 68 62 78 92 92 97 52 55 70 69 78 74 62 62 60 61 64 49 49 77 70 71 45 46 45 47 62 83 49 69 49 63 38 28 20 17 17 16 18 19 18 23
97 86 79 70 74 85 94 98 75 48 50 52 67 58 70 62 70 62 59 46 52 43 40 52 77 47 46 50 48 53 45 82 89 83 57 32 28 28 20 19 17 18 19 19 25
93 96 90 69 74 88 99 98 64 47 47 53 52 53 51 56 52 55 54 47 41 44 44 48 56 67 63 67 50 67 75 84 60 71 75 61 37 20 21 21 22 18 19 25 26
94 100 90 65 97 90 98 94 61 61 61 52 44 42 44 46 49 48 47 44 39 43 56 47 60 83 64 39 38 41 55 54 88 70 76 74 61 24 22 21 21 22 28 23 22
96 96 92 93 92 82 94 79 58 70 63 55 53 45 42 46 56 47 46 42 41 49 49 50 75 86 82 56 42 53 47 47 61 78 93 90 54 20 20 22 20 23 24 23 24
96 100 96 82 76 66 92 67 73 65 60 53 52 44 46 49 46 51 54 53 43 45 66 54 62 89 66 77 57 97 70 62 82 97 71 62 54 39 33 33 36 27 23 21 24
93 91 78 95 70 72 68 62 70 62 58 49 53 48 45 52 52 54 51 53 51 57 51 55 100 84 64 58 68 76 72 71 99 93 98 64 55 42 38 40 49 40 34 30 35
97 97 74 62 50 51 58 56 59 62 54 56 52 49 49 50 50 56 52 51 52 55 57 63 91 94 95 67 68 84 63 72 95 93 94 94 92 58 45 53 51 56 56 65 59
92 84 96 66 52 47 51 51 55 53 61 53 52 57 59 56 52 51 48 46 50 59 66 78 98 99 85 54 62 84 94 95 94 86 91 96 78 54 59 73 78 75 68 77 71

GFSSW_sfc_rhum_018.txt.gz
RH
59 59 64 70 73 78 78 80 76 73 68 65 70 71 74 80 87 82 86 56 56 57 58 50 40 38 36 43 37 39 57 53 43 34 29 19 21 22 21 23 19 21 22 31 38
56 57 58 63 68 73 78 79 80 74 71 67 71 72 76 84 71 68 59 52 50 59 49 48 45 40 46 46 45 52 65 54 33 27 27 27 22 25 28 24 24 22 20 26 30
55 56 55 57 62 71 74 77 81 77 73 69 72 75 79 80 82 52 51 54 57 56 51 43 36 36 50 43 43 48 55 36 28 23 28 36 34 26 28 34 28 23 22 25 26
56 56 55 54 60 62 69 78 81 82 77 72 72 75 81 74 84 60 56 62 61 54 55 47 44 48 52 47 36 46 37 35 34 29 34 40 34 34 31 30 25 24 24 26 29
58 56 56 56 56 59 66 72 80 81 82 72 73 75 75 94 78 55 63 63 59 65 60 49 48 47 52 42 36 42 37 30 29 32 34 35 41 42 38 31 27 26 26 29 33
60 58 58 57 57 59 61 69 78 85 86 73 74 77 78 88 45 39 40 45 53 68 68 51 45 43 48 40 41 41 40 39 37 34 36 39 40 40 36 30 30 30 30 30 31
62 60 57 58 61 59 61 67 77 85 87 75 76 68 64 61 36 42 41 41 43 61 64 58 52 56 53 62 47 45 58 49 44 40 42 40 47 45 35 32 31 29 29 28 28
63 65 64 60 61 62 64 68 76 81 88 82 75 64 63 38 38 36 37 44 44 50 60 64 57 60 56 50 47 59 57 69 37 37 37 41 55 36 29 33 34 31 28 26 26
65 65 64 63 65 66 69 72 75 76 88 81 71 70 64 53 50 40 34 46 48 48 68 60 62 62 53 58 63 56 64 56 45 37 37 41 52 36 30 31 34 34 31 28 26
65 65 66 66 68 69 72 72 72 72 92 81 58 75 52 55 46 41 35 40 54 63 68 69 66 63 62 66 75 58 58 48 47 40 42 46 47 36 31 30 34 35 36 34 31
66 66 68 71 70 70 76 81 96 100 94 83 68 52 46 47 44 47 39 46 46 67 68 60 72 79 59 55 50 47 52 53 41 32 40 41 38 34 30 30 29 30 30 30 29
67 67 67 69 68 69 74 84 82 98 98 83 54 49 48 47 60 52 40 58 61 73 60 72 83 55 45 41 48 52 58 57 43 35 40 44 45 38 33 30 28 27 26 26 27
65 64 60 72 72 75 72 75 92 91 98 83 59 56 55 49 57 60 46 51 63 68 73 65 56 46 51 53 55 57 59 56 51 43 42 45 48 40 30 30 28 27 24 24 25
63 60 68 73 77 76 74 79 94 90 100 98 86 58 56 54 60 46 42 47 60 71 65 65 46 46 54 57 51 63 44 45 47 61 73 48 77 42 29 24 26 26 28 25 24
62 60 70 79 88 78 68 88 93 94 99 93 82 46 53 57 62 61 44 48 59 56 60 69 59 61 62 52 47 55 51 52 56 67 76 64 80 51 29 28 21 23 24 26 27
67 71 75 92 92 71 66 88 92 100 98 98 82 74 74 56 58 58 57 52 44 48 52 52 46 53 53 45 48 48 52 60 64 74 98 70 57 43 32 26 22 23 21 22 23
73 81 81 76 88 67 78 94 100 99 78 95 88 72 63 64 70 67 76 79 79 92 90 64 59 54 49 62 59 56 70 96 97 97 90 42 50 37 25 23 22 25 24 21 21
80 82 77 74 71 75 90 97 96 91 73 58 70 69 65 60 70 71 77 81 63 63 81 90 86 59 50 60 64 65 67 92 82 87 73 44 63 40 24 22 20 20 21 22 23
85 78 84 79 75 78 95 91 98 88 58 70 70 77 73 61 63 70 76 72 55 51 86 85 75 48 50 49 54 70 86 62 82 68 91 61 41 28 23 22 21 21 20 24 26
92 85 88 74 72 85 99 89 99 54 55 53 68 58 73 67 66 68 64 52 51 47 46 59 81 54 53 55 55 60 52 87 92 97 84 55 44 42 31 27 24 28 24 26 26
84 94 88 74 83 92 100 100 90 50 49 53 56 56 53 66 60 60 56 48 45 46 44 49 69 71 70 72 69 72 76 78 76 87 95 83 55 40 33 32 30 31 30 35 40
87 99 84 76 97 97 98 97 72 64 60 50 45 43 51 52 55 54 52 47 40 46 58 48 67 94 81 52 50 55 65 64 88 84 83 90 70 32 32 33 31 28 27 29 38
96 94 87 96 96 93 93 83 59 69 62 54 50 45 41 48 57 49 49 43 49 51 54 52 85 96 91 68 52 62 55 55 61 73 92 94 66 28 32 33 35 33 48 43 30
96 98 93 94 84 81 96 77 90 70 56 48 48 45 46 49 48 56 58 56 46 51 64 55 67 89 94 84 78 98 80 65 71 98 82 77 66 49 43 41 51 54 45 43 44
90 88 73 94 74 74 76 79 68 59 56 50 53 47 47 55 54 56 54 58 52 63 56 62 99 88 77 65 68 74 75 72 95 94 98 80 79 66 61 67 66 57 56 52 69
94 98 87 63 56 67 68 69 66 59 58 55 55 46 49 53 58 53 52 54 60 58 63 65 98 98 90 76 76 84 72 71 75 94 96 95 94 68 63 62 63 66 69 74 73
93 85 94 64 55 57 56 56 60 61 64 54 52 57 58 64 59 57 55 52 56 62 67 88 100 99 92 67 74 89 78 85 84 78 87 98 85 77 66 68 73 79 75 72 71

GFSSW_sfc_rhum_021.txt.gz
RH
56 57 57 58 60 67 75 76 78 81 76 73 67 68 71 75 81 89 87 74 69 65 57 61 53 51 48 53 53 52 74 76 61 51 41 28 32 24 26 26 24 26 30 45 49
56 56 56 56 56 58 66 75 78 77 81 74 69 70 72 82 86 87 69 61 62 57 64 61 61 52 62 56 55 59 78 68 48 42 37 34 42 39 30 29 31 29 35 41 45
58 57 56 56 57 56 56 69 76 78 82 76 71 72 78 81 92 81 61 62 64 56 55 54 54 50 61 59 58 58 72 54 47 36 36 42 41 38 39 39 30 27 27 38 43
61 61 57 61 54 56 54 55 70 76 82 80 72 74 81 82 88 76 59 61 56 58 61 66 63 65 62 64 50 62 50 44 42 39 39 44 42 47 46 38 35 32 31 29 34
64 61 59 59 58 60 54 58 58 73 79 83 76 77 84 95 85 62 63 56 57 65 73 76 71 64 62 55 49 52 48 40 39 40 39 37 46 48 46 39 37 34 34 39 32
60 60 60 63 64 59 60 55 58 69 81 88 82 80 90 94 54 50 57 71 74 74 82 75 62 53 59 57 52 46 48 48 45 46 45 44 46 47 45 37 37 34 34 38 36
63 64 64 64 64 60 60 62 61 68 79 90 82 72 78 71 47 47 43 54 60 70 78 70 56 62 63 67 56 54 63 59 55 51 51 43 54 54 43 42 42 42 38 33 35
66 65 64 63 63 62 65 66 67 70 78 86 82 76 90 49 46 45 44 48 52 55 65 72 61 62 66 59 56 64 68 87 56 48 49 48 64 46 40 44 43 39 37 36 32
64 64 65 65 67 68 68 69 68 70 76 81 88 88 78 53 51 42 41 50 55 65 77 67 79 69 61 65 72 75 86 77 62 41 46 52 61 43 38 38 41 41 39 36 32
63 67 67 67 68 70 71 72 69 70 76 85 76 87 69 64 56 47 43 44 66 72 81 85 90 85 75 69 90 75 81 61 59 46 45 50 55 46 40 38 41 40 44 43 38
65 67 65 66 66 68 78 92 89 97 95 89 79 69 56 50 47 55 45 55 64 76 85 88 90 90 76 74 62 68 66 68 57 42 47 47 49 42 36 38 36 34 38 34 36
66 66 63 61 70 70 83 94 92 94 98 86 67 58 54 51 64 56 46 66 68 86 66 76 89 73 60 56 60 64 67 72 55 43 47 50 48 41 38 36 34 33 35 38 37
60 62 62 69 70 82 84 83 90 76 98 91 81 62 62 57 66 66 55 62 70 75 69 84 63 55 57 60 62 70 72 69 64 53 52 54 58 46 39 36 32 32 29 32 31
59 62 63 65 76 86 82 91 92 83 99 99 89 64 60 59 71 51 50 56 64 73 72 70 52 53 64 66 61 76 54 56 59 69 81 59 88 64 41 34 31 37 34 31 30
69 72 73 74 90 88 85 91 92 92 98 97 90 55 63 72 65 61 49 51 69 71 75 85 65 60 65 62 53 65 56 59 64 75 82 78 85 68 50 39 30 27 31 34 34
74 76 82 90 96 81 73 91 92 98 98 99 82 78 80 67 66 65 59 53 51 58 62 58 52 57 61 52 53 51 61 64 71 82 97 77 68 62 43 33 29 24 25 26 28
78 82 81 82 88 81 85 96 98 98 94 99 92 78 75 80 75 70 74 78 83 92 99 69 66 58 53 67 63 64 76 97 94 96 91 61 73 54 32 26 24 24 23 22 26
86 82 81 75 79 84 93 94 98 98 94 75 73 72 80 71 81 70 81 84 76 73 92 92 90 69 58 66 75 78 72 93 93 96 85 54 71 48 31 26 25 23 24 23 23
82 92 91 93 82 83 97 98 98 98 71 79 68 72 78 66 79 74 77 70 67 71 84 93 82 60 56 55 60 77 88 67 86 84 95 74 53 35 28 27 26 27 30 30 27
96 94 92 82 80 90 100 94 100 70 67 58 89 68 83 72 81 74 79 63 58 55 60 64 83 63 62 57 59 65 61 89 94 100 96 74 62 47 36 35 36 34 34 42 39
93 97 87 82 87 95 100 100 86 53 62 67 69 65 61 68 74 72 75 56 53 57 57 55 71 78 66 77 77 78 89 81 80 93 98 99 72 41 40 41 41 39 36 39 41
92 94 87 91 96 98 100 100 89 70 67 57 48 55 60 67 72 67 68 56 47 46 62 52 74 98 82 64 59 66 74 72 89 83 93 96 71 34 34 40 38 34 34 33 41
97 95 89 93 99 100 93 79 75 84 69 59 58 51 51 59 65 56 58 50 51 47 63 56 82 95 86 77 66 73 66 66 65 80 86 93 66 34 36 37 38 54 60 62 46
94 98 94 98 96 89 88 91 86 72 65 57 52 46 52 52 55 59 73 60 55 57 63 56 79 85 89 85 84 90 79 71 74 98 82 78 66 52 48 51 57 62 65 69 66
97 95 84 97 93 91 92 83 72 73 61 57 57 53 54 62 60 68 68 65 58 68 62 64 92 95 82 77 81 80 78 75 86 80 97 69 71 66 62 69 68 64 64 66 73
96 97 87 96 78 88 81 81 77 72 72 63 61 56 64 72 68 66 64 70 71 74 70 72 98 97 98 77 82 92 78 72 73 71 77 80 83 64 64 73 69 64 66 69 68
94 89 96 90 75 78 73 75 73 72 68 66 60 63 81 78 73 70 58 59 57 71 74 84 97 99 97 76 86 94 81 70 79 81 82 97 78 65 76 85 93 92 86 82 72

GFSSW_sfc_rhum_024.txt.gz
RH
60 56 56 55 56 56 56 58 71 76 79 83 75 70 69 72 76 87 82 73 75 67 60 64 58 56 58 60 55 57 80 83 64 55 48 38 42 34 27 30 29 29 42 54 54
59 59 57 56 60 53 57 52 63 72 76 78 81 72 71 78 85 81 67 65 66 60 73 72 72 61 69 61 60 67 85 72 54 49 50 37 46 42 33 31 32 34 50 55 58
66 66 64 62 59 59 59 52 54 58 69 77 87 74 76 78 91 85 64 69 67 61 60 69 61 58 70 66 64 66 77 56 52 48 43 45 42 46 45 39 36 35 53 52 59
70 69 63 60 61 62 56 57 57 59 62 72 80 78 80 84 91 73 56 68 63 62 64 68 71 79 72 71 58 73 55 48 50 44 48 48 44 53 46 40 38 46 36 34 43
69 62 61 61 62 63 64 58 56 53 59 70 78 85 86 93 85 54 63 65 60 67 75 75 79 70 70 65 62 64 58 47 45 47 46 42 46 47 50 42 40 40 37 36 37
66 66 65 64 64 65 63 58 58 59 57 66 75 90 85 93 51 55 68 66 64 72 80 80 78 65 65 61 60 54 48 49 52 51 51 50 50 49 46 42 41 39 39 41 38
66 67 65 64 64 63 61 61 62 61 62 69 75 86 81 72 49 58 66 75 78 74 88 84 78 67 61 72 56 57 64 61 56 54 55 49 52 58 43 42 45 46 46 41 39
63 63 65 67 65 66 67 66 65 66 67 70 80 90 78 52 46 51 48 55 66 68 70 72 65 68 68 63 59 65 70 82 56 52 49 51 60 51 45 52 50 47 47 46 38
63 63 66 66 65 66 68 68 67 69 66 67 93 88 67 57 60 46 48 58 58 77 79 66 70 72 70 75 80 75 86 83 68 51 50 59 68 46 39 44 48 47 44 42 40
63 64 66 65 66 66 67 71 71 69 70 70 89 92 67 69 58 48 54 52 68 86 85 84 91 88 84 77 95 78 88 75 67 49 48 52 64 51 46 46 46 44 43 46 44
59 62 66 67 63 71 81 92 84 92 90 84 86 70 61 54 50 57 46 67 81 81 96 88 92 96 84 77 69 60 62 74 63 48 52 51 52 46 41 42 41 36 38 38 36
58 59 60 62 66 68 86 96 92 86 97 81 74 70 54 53 67 60 48 77 85 90 76 85 94 75 72 72 68 75 82 80 62 52 52 54 53 43 40 38 37 34 31 33 34
62 66 65 65 66 81 88 84 86 80 98 87 86 67 63 57 68 72 55 64 79 77 73 81 71 62 69 62 66 76 76 77 71 59 58 59 43 43 40 38 33 31 32 31 31
68 72 73 75 87 88 86 90 87 78 98 99 94 79 60 64 75 54 52 60 66 76 68 69 55 67 75 71 64 80 60 60 63 70 84 63 81 68 49 39 34 35 43 40 36
75 75 75 78 93 89 89 91 91 88 98 98 94 59 65 75 69 66 50 55 74 73 73 86 72 64 73 68 57 69 57 60 67 79 82 81 89 68 57 46 37 33 29 38 41
84 84 78 88 93 89 92 88 97 97 97 99 86 80 79 71 71 66 61 53 54 71 67 65 55 61 62 54 55 56 61 70 80 82 94 75 79 64 47 38 32 27 25 26 28
79 74 81 81 91 86 88 93 95 98 97 99 94 78 78 83 76 74 74 73 86 98 100 76 69 61 56 68 64 61 72 90 88 98 85 70 82 70 44 35 33 29 25 28 26
75 78 83 78 84 89 94 97 93 99 99 79 78 72 89 77 79 75 76 84 72 77 87 92 89 70 60 68 75 74 69 84 76 96 89 67 80 50 39 35 30 30 32 32 32
75 89 89 93 83 88 98 96 98 99 90 89 66 82 84 82 85 74 75 78 73 71 83 92 82 65 60 59 60 79 89 70 86 87 96 81 62 38 34 34 38 37 36 45 47
94 91 93 87 82 91 98 99 100 91 65 62 95 78 90 87 86 77 73 60 62 60 66 72 88 70 64 59 64 67 64 89 94 97 94 80 72 50 39 42 40 38 38 38 41
91 94 80 86 88 96 100 100 92 60 66 64 74 67 59 70 83 80 79 63 56 59 58 66 77 79 69 79 80 82 91 85 83 91 98 94 74 47 40 45 43 45 42 49 53
95 96 84 91 96 98 100 98 89 80 73 68 58 61 60 75 78 80 81 64 54 57 69 62 80 96 86 69 64 71 77 78 93 82 96 95 82 43 47 46 43 38 41 52 60
97 98 91 90 96 98 92 89 81 82 75 66 63 56 59 74 75 66 61 52 54 55 64 59 82 96 86 76 75 80 73 72 73 80 94 95 73 42 44 39 39 48 58 59 59
96 94 92 96 94 89 93 92 80 69 66 58 58 52 58 58 59 68 71 59 57 56 64 61 83 83 89 81 84 89 80 75 80 99 90 82 63 51 47 45 52 65 67 64 71
98 96 95 99 89 89 95 88 78 76 66 58 58 55 59 64 67 77 71 66 63 63 63 65 90 94 85 78 83 83 81 79 90 76 95 68 69 60 57 55 60 76 75 64 66
95 92 82 97 87 86 84 85 83 77 74 69 69 68 60 75 72 75 70 72 69 78 68 73 97 95 95 84 88 94 82 78 74 68 68 69 74 53 56 58 69 84 85 83 78
95 88 96 87 88 83 77 80 75 76 68 70 67 78 83 80 76 69 60 60 64 72 82 83 95 99 97 80 90 96 88 80 75 72 77 91 74 69 77 69 88 94 77 75 74

GFSSW_sfc_rhum_027.txt.gz
RH
70 67 66 63 61 58 58 57 55 58 66 71 77 90 72 71 74 85 86 72 74 68 61 66 64 62 58 63 56 62 82 86 61 53 46 44 46 39 35 32 29 31 57 55 61
68 70 69 67 64 67 61 53 61 54 60 62 70 82 75 77 86 74 60 65 65 60 80 74 74 64 74 65 62 69 88 75 56 53 54 46 49 48 40 39 34 37 55 66 65
65 65 68 65 64 65 62 65 53 54 58 62 67 75 90 79 87 72 62 66 66 63 69 76 64 62 72 67 65 69 78 60 56 52 50 50 46 49 50 45 40 40 46 54 77
63 65 66 63 62 67 66 64 60 55 54 57 64 72 89 85 90 62 62 66 68 62 70 76 75 73 77 75 62 72 60 54 53 48 50 52 45 54 48 43 40 45 42 38 53
65 65 67 66 65 65 65 64 62 58 58 58 59 69 94 94 81 53 61 64 64 75 82 79 81 76 76 70 65 67 63 52 49 48 53 48 49 50 53 44 45 44 40 41 40
63 64 64 65 62 64 64 62 59 59 60 59 62 72 96 90 51 50 59 72 72 78 82 76 77 67 68 67 70 56 54 50 51 49 53 52 54 53 52 45 44 44 43 42 42
64 65 62 64 65 66 64 64 63 62 62 61 63 75 97 72 50 54 67 70 74 74 87 78 73 68 68 70 56 60 66 66 59 55 56 54 55 63 46 44 45 45 47 45 42
62 61 62 65 66 65 68 66 66 66 64 62 66 91 92 59 50 49 68 85 86 80 76 79 71 75 70 63 63 69 72 82 60 53 52 51 60 48 47 55 51 50 48 50 47
62 63 65 66 66 66 67 66 66 67 66 63 80 94 80 58 60 50 51 73 80 85 82 67 76 78 70 76 82 80 90 85 68 54 55 61 74 50 44 45 49 47 47 47 44
67 62 61 64 68 66 70 70 72 71 71 66 78 91 83 72 59 52 50 65 74 90 88 84 92 91 87 88 89 85 84 82 74 55 58 58 64 51 47 52 54 54 50 46 42
67 59 58 60 62 67 77 92 82 85 90 86 88 82 74 61 54 65 49 70 82 89 95 90 98 94 87 79 70 66 77 79 65 53 56 57 58 48 42 46 47 46 42 40 36
62 63 68 65 66 66 87 95 89 84 91 71 77 81 60 61 69 67 60 79 90 94 89 95 95 81 72 80 74 70 81 85 67 58 58 59 58 46 40 38 36 36 34 33 36
67 71 73 74 72 79 87 85 81 89 95 69 81 84 67 60 73 72 59 68 91 86 80 89 78 85 82 87 84 79 80 80 74 63 62 63 56 48 39 39 38 35 34 32 34
83 87 81 75 88 88 88 86 85 85 96 97 90 78 65 66 78 56 53 62 76 84 72 71 59 84 84 76 65 83 63 62 66 73 85 66 84 68 46 46 43 39 38 42 40
76 76 89 74 92 86 82 94 87 91 97 98 93 79 64 74 71 68 58 57 75 80 74 87 66 79 84 72 56 66 59 64 70 80 82 80 88 67 50 42 34 32 29 31 36
77 77 78 92 90 87 93 90 93 97 98 99 92 87 79 75 75 68 63 54 60 73 62 64 57 60 63 59 59 56 63 71 85 82 92 78 80 61 44 41 36 36 34 31 32
79 76 82 81 94 87 92 93 96 97 97 99 93 78 74 80 78 75 73 76 90 99 99 78 68 57 58 67 62 62 73 86 78 93 81 76 83 60 48 44 40 36 34 40 44
75 79 86 82 92 92 93 92 95 99 99 86 74 74 90 77 78 78 79 83 74 80 99 95 94 71 62 69 74 76 70 82 63 90 86 72 83 49 46 43 38 40 44 45 46
76 91 95 94 84 91 97 97 98 99 87 87 69 93 99 83 86 94 80 81 75 74 84 85 86 68 62 64 63 81 89 72 86 89 95 79 62 40 37 40 40 40 40 42 44
93 94 90 88 88 95 95 98 100 93 67 69 95 83 85 92 89 90 70 62 60 65 68 73 90 73 67 61 65 70 66 88 94 78 88 77 79 56 44 41 42 43 48 46 45
93 91 79 87 93 96 99 100 87 64 70 64 83 71 77 79 81 77 78 66 56 63 65 68 78 81 72 79 82 82 91 87 82 88 92 96 65 54 46 48 48 49 41 45 59
94 93 83 87 96 99 100 98 85 87 79 75 62 62 75 75 79 80 79 68 57 60 68 65 82 97 84 73 66 74 79 82 88 83 98 96 80 49 50 50 48 41 49 55 66
95 96 89 88 97 92 88 93 90 84 76 65 64 59 67 72 77 74 70 57 59 60 66 62 84 95 89 82 78 83 78 74 75 84 93 94 74 44 51 42 42 45 49 66 67
95 95 94 95 95 89 96 92 83 72 71 59 62 59 65 67 66 74 69 66 58 57 63 61 80 81 87 79 86 91 84 78 81 99 91 85 73 48 46 45 45 50 74 74 74
97 97 96 98 91 90 94 87 82 85 72 61 61 59 61 74 74 80 73 70 65 68 70 66 89 93 85 78 83 82 78 82 90 79 90 69 69 55 48 47 50 63 76 75 74
95 90 81 94 94 88 83 85 82 79 76 70 62 64 64 69 67 80 70 74 71 72 69 74 97 92 94 83 90 94 83 82 80 76 75 72 75 50 50 67 69 82 82 74 75
96 87 92 85 92 87 80 78 76 79 70 73 71 84 84 82 78 62 61 60 61 73 82 81 94 95 97 82 90 95 87 82 82 75 72 86 66 68 76 72 82 90 74 76 71

GFSSW_sfc_rhum_030.txt.gz
RH
64 64 66 66 71 71 64 68 52 55 59 59 64 67 83 82 74 82 90 77 74 68 70 70 76 71 62 68 60 64 82 84 58 56 48 46 46 42 40 39 33 32 48 55 86
62 60 63 64 66 66 67 68 67 55 55 57 61 66 73 91 86 93 66 64 65 59 72 81 86 68 79 70 65 72 87 75 53 48 47 52 52 51 48 46 42 36 64 75 96
64 64 66 67 66 67 71 69 65 62 56 56 56 61 68 89 92 76 62 62 64 63 73 72 68 67 77 72 70 72 76 61 57 50 50 54 58 50 55 50 43 46 45 53 87
65 65 65 64 66 66 66 65 65 65 59 58 59 60 67 92 93 61 53 63 63 62 73 76 72 78 81 78 65 75 63 57 55 51 50 54 50 55 52 45 42 49 50 44 56
56 64 66 65 64 64 64 63 62 64 60 59 59 61 80 98 82 60 64 65 58 72 78 82 80 76 75 72 65 69 64 57 52 51 54 51 54 52 53 46 46 45 44 46 45
56 63 61 64 63 64 65 63 62 60 58 55 62 62 90 97 56 53 54 70 65 82 90 78 75 66 68 71 66 62 57 55 52 50 52 54 56 56 53 49 48 50 45 45 45
62 64 63 64 66 64 63 63 64 60 60 61 64 65 93 83 52 53 62 74 70 81 92 76 69 69 66 70 61 60 68 67 60 58 56 59 61 68 51 46 48 50 50 45 43
66 66 64 63 64 65 66 66 66 64 61 59 61 74 91 68 80 66 55 88 86 81 74 76 72 71 71 65 66 71 73 85 62 59 56 53 63 50 46 54 53 52 54 54 48
68 68 68 61 62 68 67 68 66 66 65 61 77 90 83 75 76 58 54 81 90 86 82 67 77 81 72 78 82 83 94 89 69 57 59 64 78 56 52 56 56 54 52 49 49
66 69 63 59 60 62 68 67 69 71 72 65 66 93 84 81 78 63 70 74 75 78 81 81 82 92 90 76 87 80 86 85 82 60 66 70 69 50 44 49 57 55 56 55 51
64 65 64 66 63 63 78 87 82 84 91 85 85 76 79 66 62 71 66 83 93 90 91 86 94 90 80 83 74 73 79 81 72 57 63 65 65 52 45 49 48 46 43 40 38
75 77 80 74 75 68 85 90 89 86 92 68 81 82 76 71 78 78 62 88 89 96 91 96 93 80 75 69 75 77 84 87 72 61 62 64 62 48 42 46 42 39 38 36 37
75 75 75 79 75 79 88 85 85 87 91 81 79 88 80 75 78 81 71 80 87 92 87 90 80 83 70 75 79 74 82 84 80 65 64 67 61 52 42 42 38 37 39 41 41
77 77 79 79 85 87 86 88 91 84 94 93 96 88 78 68 80 64 72 78 89 90 81 89 85 82 88 84 71 78 64 66 66 76 84 68 77 63 51 45 41 36 34 37 35
76 80 79 77 91 86 87 91 87 89 96 96 92 76 66 73 75 73 68 67 87 85 86 88 94 94 92 89 67 71 61 65 72 79 80 78 85 57 48 37 37 34 38 42 42
79 78 77 85 90 86 94 91 91 90 97 99 91 79 81 77 80 70 69 66 72 79 72 69 57 69 77 70 61 57 62 71 82 82 88 76 77 50 44 46 40 44 41 49 50
73 78 81 86 94 92 92 93 92 96 98 98 95 80 82 85 78 72 75 78 94 99 100 78 70 61 58 68 62 62 70 91 76 87 80 81 82 55 50 49 48 45 42 47 50
77 79 83 88 90 90 93 90 92 98 95 82 78 80 93 86 83 76 76 83 73 88 95 95 94 67 61 69 74 80 70 84 62 83 80 76 84 50 50 46 45 44 48 46 43
72 91 95 91 84 90 98 97 98 100 84 84 71 88 96 85 87 90 90 84 78 79 86 90 87 69 62 67 65 82 89 75 88 90 92 77 61 36 45 47 49 47 46 49 49
93 93 92 85 92 96 98 96 100 89 68 71 93 86 95 92 89 89 86 74 71 67 70 77 92 74 68 64 67 71 66 85 92 76 76 67 76 54 44 44 46 49 53 47 48
91 89 81 90 92 96 99 100 82 71 75 68 87 81 87 88 87 86 80 68 62 70 62 70 80 85 72 81 82 80 91 86 82 87 86 83 51 54 49 53 52 51 48 50 54
94 91 82 87 97 98 100 98 86 88 82 70 62 69 82 82 85 83 83 70 59 61 69 67 84 98 84 77 71 78 81 79 86 83 97 95 74 51 53 51 50 42 50 58 73
95 94 87 86 98 96 87 89 89 87 78 69 66 61 73 74 79 74 70 62 62 59 64 67 84 95 88 79 79 84 81 74 75 84 96 91 63 50 56 50 43 45 51 73 69
95 94 93 95 95 85 90 90 83 76 73 63 66 65 68 70 67 74 74 68 63 59 62 61 79 81 84 76 86 94 86 79 80 97 89 85 74 51 48 50 45 46 74 78 71
98 96 91 98 93 95 93 91 88 88 77 64 67 65 66 80 81 81 75 74 68 69 72 66 91 92 84 76 86 83 82 86 87 82 89 76 77 59 53 52 46 56 75 74 77
93 92 81 86 96 88 83 86 86 82 86 74 67 66 69 74 70 81 72 76 76 71 75 74 96 91 95 84 90 95 86 81 82 75 76 71 75 51 51 52 68 73 87 76 71
94 88 96 84 94 88 86 86 82 82 75 80 70 83 86 87 85 69 63 62 65 74 84 79 96 95 94 85 90 94 89 83 77 78 72 84 59 55 68 71 77 90 85 74 73

GFSSW_sfc_rhum_033.txt.gz
RH
66 66 67 63 65 66 64 66 69 71 53 56 56 61 66 79 88 80 85 73 70 68 67 65 76 76 55 59 55 55 62 66 58 50 41 35 34 34 31 30 27 24 33 52 73
61 65 65 64 66 65 69 70 71 70 62 56 56 57 60 71 88 92 65 63 62 62 65 72 90 70 71 64 61 61 68 63 46 41 40 40 40 38 36 39 32 29 36 79 85
61 61 63 66 66 64 66 67 67 68 64 60 58 57 61 71 92 82 69 64 62 62 60 70 73 67 75 66 65 67 62 55 51 42 43 46 46 39 40 39 35 36 38 59 86
65 59 63 64 65 65 65 63 62 60 62 61 59 57 60 78 92 68 61 65 62 58 68 72 73 76 80 74 62 67 59 54 50 50 49 50 43 42 42 38 32 39 37 35 68
66 65 65 60 63 63 62 64 61 58 62 60 55 64 68 89 83 61 64 58 57 64 78 77 80 74 73 68 62 62 60 53 49 49 48 45 47 43 44 40 38 40 40 37 34
68 68 67 65 64 63 63 61 60 61 62 57 58 65 80 96 66 77 58 60 60 74 80 76 71 63 65 65 62 58 54 51 48 47 46 51 49 49 44 41 41 43 40 37 37
68 67 68 66 67 63 64 62 62 62 62 62 64 66 78 71 61 82 58 73 61 74 82 76 57 61 60 70 57 56 62 56 54 51 49 51 51 60 44 41 41 40 40 39 38
65 67 67 70 67 65 65 66 64 63 64 58 58 74 78 54 74 74 58 84 66 72 73 72 61 63 62 58 62 66 63 74 55 57 51 42 50 44 43 48 47 44 44 46 42
71 70 68 68 64 61 61 67 66 64 63 63 78 82 89 73 78 64 54 80 84 83 84 68 67 74 64 73 80 73 81 79 62 57 54 55 65 49 46 46 45 44 42 43 42
69 71 76 69 61 59 61 65 66 72 72 67 70 90 78 82 78 59 70 78 82 92 81 77 84 89 82 77 80 88 78 77 65 52 60 65 67 53 42 42 45 42 40 41 42
72 74 74 71 71 73 76 82 77 81 89 78 76 78 78 75 72 73 78 81 77 82 96 86 92 86 72 68 65 67 72 70 63 53 55 60 60 51 43 45 44 40 37 34 34
70 73 74 71 77 73 83 87 90 86 88 63 69 74 79 72 81 86 88 84 89 93 86 90 90 73 71 68 66 69 75 75 65 55 55 58 55 45 42 44 42 40 38 37 36
76 77 76 70 74 82 84 86 87 82 91 76 73 88 79 77 81 90 90 90 83 88 75 78 77 70 69 77 78 78 78 77 70 59 54 61 56 46 39 36 34 30 31 32 33
73 79 77 73 83 86 85 94 88 81 96 95 89 85 75 73 88 70 91 90 94 93 86 86 83 77 76 78 69 82 59 63 61 67 72 59 61 49 44 32 33 38 40 40 38
74 74 76 76 92 91 89 92 89 88 96 98 92 85 75 74 83 78 78 65 84 91 93 95 92 94 84 82 66 75 59 62 64 70 66 63 64 42 37 34 33 36 42 43 43
72 75 73 88 92 98 93 86 86 88 97 99 91 85 85 78 84 84 83 75 75 82 73 81 78 86 92 86 76 56 58 66 71 70 80 60 61 39 33 35 36 36 37 42 42
74 73 81 85 96 94 93 92 91 95 96 98 93 78 85 86 83 76 88 90 94 99 100 93 68 59 81 86 65 58 72 90 76 87 76 69 70 45 40 40 38 36 36 40 43
80 78 83 84 87 88 95 94 90 99 99 83 82 79 93 88 84 73 74 86 72 81 97 92 96 67 58 68 79 67 70 82 67 60 59 70 73 41 43 38 35 36 38 43 44
76 90 92 90 84 93 97 94 97 99 79 78 73 80 88 88 84 85 85 83 72 68 83 86 90 63 63 63 63 75 86 61 84 82 80 57 51 35 38 40 40 38 43 45 45
93 93 89 87 94 93 97 98 100 88 69 72 88 84 95 94 91 87 82 73 72 66 66 74 96 71 67 62 64 68 64 81 87 79 63 49 55 39 39 37 40 43 45 45 48
91 85 78 92 93 96 99 100 90 79 77 72 86 84 90 92 91 94 82 64 62 66 61 67 79 83 71 76 77 75 83 78 73 77 70 57 37 43 41 41 43 44 43 46 56
93 90 82 87 94 97 100 96 86 88 82 66 64 73 83 80 83 82 79 70 58 59 68 67 81 97 81 71 66 69 73 66 76 80 88 83 54 43 45 46 45 44 44 52 70
96 93 85 86 94 96 86 80 87 85 81 69 67 64 73 76 79 74 69 62 60 58 66 63 81 95 86 75 75 79 76 69 69 78 97 78 45 45 48 44 42 46 49 68 73
95 91 92 95 95 90 93 91 86 80 78 64 67 68 68 72 71 75 73 74 63 60 65 59 74 80 76 74 84 94 82 72 76 91 80 76 61 47 44 49 48 49 56 74 68
97 93 88 98 94 94 95 92 89 86 81 66 69 67 68 82 84 84 79 76 70 69 70 66 90 90 79 71 83 80 79 82 86 76 83 63 72 54 50 52 50 50 77 74 70
95 89 72 81 95 93 82 88 88 86 88 77 68 68 73 75 68 80 75 80 78 75 74 74 96 90 94 80 85 93 82 80 78 72 73 71 71 47 46 53 65 78 84 77 72
92 87 92 80 95 93 88 88 84 84 82 85 69 79 85 85 84 75 67 65 67 76 82 77 95 94 90 78 86 95 88 81 77 77 68 82 62 55 56 66 75 85 82 78 76

GFSSW_sfc_rhum_036.txt.gz
RH
60 59 61 63 66 68 67 68 71 72 70 57 55 55 57 61 70 83 94 54 53 61 63 50 66 62 45 46 41 39 42 43 41 39 31 25 24 22 22 17 18 18 21 40 44
64 64 62 62 64 64 64 66 70 69 71 69 57 56 57 62 58 67 72 62 61 62 68 53 78 62 50 45 43 37 44 36 28 29 30 25 22 23 25 24 22 21 26 56 64
66 67 67 64 63 64 65 64 64 67 68 66 68 56 56 58 54 49 64 67 65 56 55 50 60 59 57 50 44 38 35 30 34 29 26 26 25 26 24 27 20 21 28 47 73
69 68 69 68 63 62 69 62 62 58 58 60 60 57 52 57 59 68 63 68 63 49 52 60 66 75 60 56 42 44 32 29 33 37 34 30 25 27 26 19 22 26 28 28 54
65 68 69 68 64 62 64 61 59 57 56 59 59 60 51 64 49 61 85 56 61 54 57 60 60 70 61 52 50 44 43 36 33 41 38 35 34 27 30 25 25 27 29 26 26
61 66 68 67 67 63 64 68 60 56 58 61 58 60 57 78 30 67 81 54 62 53 58 59 49 51 54 54 49 42 44 37 37 38 39 41 37 37 28 25 26 26 24 22 24
70 70 69 67 68 68 63 63 62 60 61 64 57 52 64 54 51 66 80 62 60 49 62 54 43 50 48 59 44 46 49 45 43 38 38 37 42 42 28 23 24 21 19 23 23
68 68 70 70 69 72 69 64 66 63 62 64 58 58 65 36 34 60 66 66 54 48 54 57 46 49 47 44 49 49 46 59 36 38 39 37 35 32 28 27 26 23 22 24 24
68 71 70 76 62 57 60 59 64 63 63 59 60 64 59 50 64 64 73 72 58 59 62 58 49 49 50 49 56 47 42 42 44 41 35 38 32 27 26 32 28 25 23 24 26
69 70 70 76 64 62 60 64 63 69 61 55 55 72 54 60 64 78 74 70 69 78 76 73 70 64 48 44 44 48 40 44 37 42 48 46 36 35 34 33 31 26 22 21 23
72 75 74 70 70 69 63 60 63 66 65 51 49 74 62 57 61 84 67 87 70 74 84 78 76 77 54 41 36 40 41 43 40 43 44 40 41 36 32 30 29 26 22 21 22
76 76 76 74 73 71 62 67 71 72 64 54 62 71 65 63 66 77 71 92 75 84 71 88 86 47 46 48 46 44 44 45 51 44 43 40 42 34 31 32 30 29 27 24 23
74 73 70 73 72 65 68 77 66 68 74 75 82 84 82 56 63 82 72 93 75 85 79 83 65 48 53 55 52 51 50 57 48 48 42 43 37 37 33 28 25 26 23 22 23
73 74 74 72 66 66 75 77 71 66 99 94 91 89 74 66 89 76 86 82 89 89 75 80 68 51 53 55 45 60 55 54 53 52 44 43 29 34 30 27 32 30 29 30 31
72 69 69 69 70 74 87 75 71 73 91 97 92 74 66 80 83 92 88 91 89 91 83 96 83 67 60 56 47 50 49 50 52 53 54 47 45 29 24 28 32 30 33 32 34
77 71 69 71 70 78 76 71 74 97 97 99 89 83 74 88 84 83 82 74 78 86 81 93 80 88 81 76 53 46 48 51 52 53 80 48 45 28 25 24 29 29 30 34 33
76 72 68 67 63 69 74 76 99 96 96 97 93 78 80 87 82 77 84 87 93 100 100 98 93 92 82 87 66 54 59 86 83 93 65 50 50 28 26 26 25 27 29 33 34
79 74 71 62 64 73 79 85 94 90 80 73 66 62 85 82 86 83 89 86 64 70 94 85 96 89 87 90 94 71 61 66 64 50 40 51 43 27 28 27 26 26 28 32 35
77 66 72 69 70 75 84 99 99 97 64 62 57 63 70 68 62 64 65 63 60 57 71 74 89 55 58 58 72 84 83 45 62 55 57 32 33 28 30 29 28 28 32 35 36
76 67 68 71 76 81 90 97 94 78 63 53 63 60 64 69 63 58 58 56 58 51 47 59 92 62 56 53 51 55 47 69 79 76 55 30 29 25 34 32 30 31 35 36 39
65 67 69 71 81 73 99 100 79 66 61 53 60 62 66 65 67 62 58 56 50 52 44 49 59 77 60 64 58 59 61 57 51 55 47 28 22 23 26 26 30 30 35 38 47
76 89 69 69 85 84 94 85 82 68 60 49 49 56 60 62 65 62 53 53 46 44 50 51 62 86 72 58 53 52 52 42 53 72 60 54 28 27 27 28 31 33 36 40 53
85 78 67 76 80 76 70 67 70 62 60 53 50 49 52 56 61 56 58 50 49 47 49 48 66 91 86 66 61 65 55 51 50 59 81 49 28 32 31 30 30 38 40 50 55
82 86 71 69 70 65 68 67 66 65 61 51 49 50 48 51 50 56 54 59 50 49 62 51 57 74 55 77 65 86 64 56 58 77 54 43 36 32 31 32 37 41 48 52 54
83 88 78 88 71 71 75 74 70 66 64 50 52 48 46 54 55 55 57 58 54 62 53 50 96 86 59 58 71 68 64 65 83 56 67 40 42 30 31 35 36 43 53 58 56
85 80 63 73 80 71 69 69 72 68 68 55 53 49 48 51 43 55 53 54 54 59 54 57 93 87 87 67 69 80 63 61 62 56 53 47 49 33 30 34 38 46 59 62 60
78 73 83 68 75 67 64 69 69 69 62 64 47 55 59 55 53 47 42 42 46 53 58 62 92 90 79 64 66 74 65 61 58 56 53 62 43 35 42 42 46 56 65 63 63

GFSSW_sfc_rhum_039.txt.gz
RH
70 66 68 66 66 62 64 65 68 65 68 69 69 56 55 58 62 73 78 66 49 52 61 37 56 61 49 46 35 33 59 59 41 31 26 21 23 18 16 15 14 12 17 33 40
67 70 68 67 67 66 62 63 64 67 66 67 75 58 56 58 46 52 55 75 58 55 54 39 63 60 54 46 42 44 49 42 27 24 27 24 24 18 21 17 15 16 21 38 45
66 66 66 68 68 66 64 65 65 68 66 72 75 69 55 51 51 33 47 69 64 56 56 34 46 57 53 40 41 37 39 31 25 26 25 25 23 16 22 20 16 16 17 33 45
62 61 65 66 68 66 64 68 68 66 58 64 61 61 53 45 47 32 54 69 69 49 53 49 42 64 53 48 38 39 30 24 23 28 30 27 21 21 21 17 15 18 23 23 39
71 71 70 68 66 67 65 63 59 58 55 56 60 58 52 55 42 59 71 65 68 53 50 51 42 53 54 41 35 42 28 26 26 34 32 24 23 21 20 19 21 23 25 24 23
69 68 70 71 66 68 66 68 62 58 55 58 57 60 52 62 24 44 71 53 70 62 47 40 37 43 46 41 38 37 33 32 28 36 34 32 25 24 22 19 21 21 22 20 20
62 67 70 69 70 69 67 69 62 61 60 60 58 45 54 47 29 59 72 55 57 62 43 35 31 43 42 55 36 38 38 37 32 33 34 34 34 32 24 20 22 19 19 19 18
67 68 68 70 73 65 64 64 62 63 61 60 59 50 60 30 27 41 71 66 52 56 36 37 35 38 43 40 45 47 42 49 37 38 33 36 37 26 24 23 24 19 17 16 16
71 71 69 70 61 56 60 58 60 62 61 60 56 57 48 39 39 34 57 74 65 62 39 47 57 44 43 49 55 45 45 43 37 34 36 40 35 24 22 23 22 19 17 17 16
74 74 73 68 67 64 61 62 63 68 59 50 47 62 42 46 46 59 60 72 82 59 72 81 77 57 50 42 50 42 44 31 33 40 37 38 37 24 24 23 23 19 17 16 16
74 73 70 68 67 67 61 54 63 64 52 49 52 52 59 41 58 72 60 86 61 75 81 86 81 71 47 33 26 24 34 28 26 35 41 38 31 26 24 25 24 21 19 18 16
72 69 72 70 69 65 51 55 70 74 60 44 54 60 60 61 77 72 71 94 67 87 50 92 92 44 35 30 29 34 32 33 33 34 39 28 32 28 26 25 23 21 20 20 19
72 73 71 70 67 54 61 69 58 58 95 76 77 82 69 78 83 88 80 87 62 73 64 76 72 43 44 41 41 34 36 34 40 43 37 39 36 33 25 28 26 23 22 19 19
77 69 69 70 68 55 69 66 65 66 100 99 93 77 72 80 89 77 82 92 83 68 62 77 56 49 53 50 35 39 34 41 50 47 35 35 22 30 31 26 27 26 24 24 27
78 74 69 63 57 61 66 61 59 72 96 97 92 64 60 67 78 86 82 82 88 92 90 93 79 59 52 44 34 45 44 45 49 50 50 43 42 28 26 30 30 27 29 29 30
77 78 72 60 57 54 61 60 69 99 97 98 77 75 71 66 78 82 86 74 86 84 79 88 79 71 52 55 40 42 46 48 48 50 78 44 36 28 26 24 27 28 28 29 29
77 79 74 54 59 56 63 72 100 95 89 90 82 78 79 83 88 86 88 93 97 100 100 95 96 88 75 63 50 46 53 80 80 92 62 41 47 25 20 18 22 25 26 28 30
80 81 67 50 50 62 74 88 94 86 68 63 58 69 90 84 86 82 86 95 85 80 99 99 98 96 85 74 69 56 52 72 65 59 48 43 45 26 20 21 21 21 26 29 31
82 54 59 55 60 70 86 99 99 98 57 54 47 63 67 59 78 72 58 77 73 59 89 86 97 91 90 80 64 86 86 42 50 37 47 33 27 28 25 25 23 24 30 32 34
65 53 54 57 63 78 81 91 88 62 51 45 53 50 54 52 55 54 50 49 54 44 42 52 90 66 74 78 82 87 50 73 75 80 47 33 24 23 30 28 26 30 32 34 35
61 57 63 56 69 66 98 99 62 53 50 46 48 49 45 50 49 46 48 50 43 43 38 42 54 73 57 69 74 80 92 62 51 52 56 29 24 19 26 29 30 29 33 36 41
70 89 64 59 76 60 76 64 73 53 48 42 42 46 44 45 48 46 44 45 40 38 42 45 57 80 69 52 47 47 46 45 56 69 49 52 35 21 24 26 27 32 35 36 47
68 57 58 64 74 63 56 53 55 52 48 44 43 43 44 46 53 48 46 44 43 41 43 40 65 87 79 60 53 60 50 46 42 54 76 53 34 22 25 28 28 36 38 44 48
62 85 54 51 50 50 50 49 54 57 51 45 43 41 42 44 40 49 50 51 44 43 61 49 49 71 59 75 55 74 55 50 56 78 50 39 32 30 29 28 35 37 43 45 48
57 71 69 82 55 56 59 57 55 56 55 45 47 43 40 45 43 44 45 52 49 60 46 46 94 81 49 49 61 64 57 54 76 59 62 35 28 28 26 30 34 34 42 49 51
80 89 66 57 64 59 64 57 59 56 57 49 50 42 39 41 37 42 43 43 46 48 48 50 87 81 91 56 57 69 55 50 56 52 48 40 40 27 25 26 33 38 48 54 54
57 57 80 58 60 56 52 57 60 61 54 53 43 43 47 44 44 37 33 33 38 46 49 55 88 92 76 55 59 70 58 52 50 46 45 52 38 31 38 37 40 45 54 56 57

GFSSW_sfc_rhum_042.txt.gz
RH
66 64 65 66 66 65 66 63 61 63 66 67 69 76 57 55 61 71 80 67 60 57 58 44 54 65 63 61 49 66 86 88 69 54 38 23 26 23 21 22 20 18 44 53 67
60 60 61 63 64 67 66 65 62 64 66 66 69 77 72 57 57 53 50 66 66 56 54 44 67 71 69 64 58 65 85 76 65 44 38 29 28 29 26 25 24 22 41 51 67
65 70 71 72 68 66 67 65 64 64 64 61 76 85 84 58 59 46 43 67 69 65 50 37 51 66 72 56 55 52 62 51 46 40 38 31 29 30 29 32 23 22 33 48 65
70 68 68 69 72 67 66 65 63 62 66 61 68 79 77 66 67 49 41 59 63 58 57 50 41 66 67 64 47 51 45 40 39 40 35 33 28 28 27 30 24 30 29 36 52
66 63 67 69 69 68 65 63 63 58 63 59 68 74 69 66 54 43 48 56 57 70 56 63 48 57 62 53 42 51 38 30 30 38 39 31 32 30 29 27 27 29 30 35 34
65 66 68 70 69 69 67 65 59 64 55 57 58 59 60 67 26 38 56 61 76 76 53 62 42 45 51 43 46 40 40 36 30 39 39 34 31 33 27 27 28 29 35 33 30
68 68 70 70 73 70 66 61 67 67 60 58 59 53 61 52 29 54 66 64 69 70 54 43 35 41 50 57 42 38 46 41 39 41 41 39 41 36 27 26 26 28 28 26 25
71 71 70 70 67 64 62 62 60 62 60 59 59 55 63 31 30 34 70 66 54 67 59 46 37 41 48 50 50 47 53 59 41 39 38 42 51 34 28 31 32 29 26 25 24
71 71 70 66 63 59 60 58 58 60 60 59 56 55 56 40 38 30 55 70 57 72 78 43 58 54 48 67 70 61 64 58 48 37 40 45 51 32 28 30 33 30 28 24 22
67 71 70 68 68 67 64 60 59 66 61 47 44 64 47 41 38 33 53 69 77 81 83 64 73 74 68 71 85 71 65 46 48 44 44 49 50 35 29 30 30 30 27 26 23
70 72 71 70 69 66 70 65 74 67 56 62 67 56 52 51 42 63 71 83 86 96 84 80 89 83 68 52 50 43 46 46 39 39 46 48 45 39 34 31 35 34 29 26 24
77 70 71 71 66 63 69 62 68 69 74 44 49 51 49 55 71 84 81 99 89 89 74 93 90 58 47 42 40 35 42 43 37 41 45 42 42 34 31 31 32 33 30 26 26
76 77 70 70 70 67 72 80 67 63 97 73 68 80 72 81 78 84 90 87 79 73 75 75 66 48 45 47 42 37 44 40 45 45 46 46 49 36 33 30 29 34 34 29 27
72 76 76 70 80 58 66 63 65 67 100 93 84 78 75 78 91 79 80 88 80 77 62 72 61 62 57 49 35 45 35 37 46 59 64 43 42 36 34 37 33 37 33 30 36
72 74 78 72 75 63 63 60 63 79 98 98 88 88 75 89 88 95 79 84 75 70 81 91 81 84 76 54 40 45 47 51 56 66 69 54 64 41 38 38 36 35 37 40 41
72 76 77 68 70 58 61 63 76 99 96 97 85 88 95 79 76 85 84 79 73 83 79 90 81 82 73 60 46 46 53 55 61 63 95 60 52 48 42 34 35 38 39 39 40
73 77 79 58 68 60 70 88 100 95 86 84 90 74 73 83 83 84 90 95 97 99 100 97 96 86 82 75 59 52 64 95 97 97 90 49 57 43 29 28 32 37 39 40 42
80 82 74 59 56 65 88 99 92 88 69 61 67 69 80 74 88 85 94 98 90 85 100 100 99 95 87 79 87 66 62 89 78 93 79 51 70 43 27 27 28 30 34 37 40
82 68 67 66 63 75 97 93 96 97 52 54 58 68 71 71 74 89 93 95 88 81 97 99 98 92 89 78 74 80 93 53 74 49 84 61 45 35 31 31 30 31 34 41 44
80 66 64 65 66 83 99 90 88 58 48 44 58 53 55 57 61 68 77 76 62 60 55 66 98 95 93 85 80 86 64 82 94 92 70 51 44 44 38 35 31 34 40 44 46
81 70 74 64 75 92 98 98 57 49 49 50 49 48 47 53 52 50 53 52 46 45 42 50 70 96 96 97 97 92 96 84 67 80 91 65 46 32 34 32 32 37 40 45 52
85 93 74 71 94 84 93 67 64 49 50 44 47 49 47 49 54 52 51 52 43 44 51 55 72 93 78 57 55 70 75 73 93 83 76 78 59 28 31 35 36 38 42 46 56
78 68 73 76 95 67 61 54 53 52 50 47 46 46 48 50 58 50 54 49 50 50 56 51 82 90 86 73 61 69 56 71 70 76 86 83 58 31 36 36 36 41 46 53 56
74 91 77 76 61 63 60 54 58 64 54 45 44 44 49 52 45 54 56 58 50 50 61 53 62 82 89 82 76 83 64 59 71 94 71 65 51 40 38 38 42 48 55 58 59
67 78 71 93 72 70 62 61 55 60 57 50 52 48 45 51 48 53 55 60 57 63 58 61 93 83 64 56 76 78 68 63 80 73 84 56 48 38 38 38 45 45 55 57 59
76 80 69 71 62 66 71 61 61 57 58 53 55 46 44 49 45 48 50 54 58 60 58 62 95 89 89 60 64 79 66 60 62 62 62 58 52 39 35 34 42 48 58 60 61
56 59 76 66 61 67 69 67 64 63 59 54 54 49 50 59 54 50 43 42 48 59 62 68 94 95 89 63 71 86 70 63 59 57 57 68 51 44 49 45 50 54 62 64 64

GFSSW_sfc_rhum_045.txt.gz
RH
64 65 68 69 69 66 64 67 66 64 63 64 65 66 70 59 60 76 83 70 70 55 54 54 59 68 72 78 75 84 93 87 72 66 56 38 46 29 24 25 24 45 64 82 78
67 66 65 68 67 71 66 65 68 64 61 63 66 71 72 88 64 72 60 60 66 60 59 61 76 81 91 78 77 92 88 77 54 50 57 57 42 29 29 29 29 64 84 79 83
63 62 61 64 66 68 70 65 66 62 61 57 69 81 81 83 79 65 55 56 64 64 55 52 67 86 84 74 79 75 73 59 49 43 53 64 46 34 29 38 31 49 86 84 90
62 67 67 66 67 68 66 66 65 61 60 60 67 75 80 80 93 41 50 53 63 69 75 64 73 96 90 78 61 61 53 52 52 54 75 70 43 39 34 33 37 30 61 75 81
71 66 67 67 67 67 66 62 60 61 61 62 66 71 74 86 77 41 47 48 63 78 78 75 73 87 80 75 57 65 51 44 44 50 64 71 56 38 30 34 34 33 34 49 68
68 66 70 70 68 71 64 61 59 58 56 57 62 69 79 84 40 59 64 46 66 74 73 71 49 62 73 65 60 53 52 46 39 41 38 38 38 37 30 32 33 32 36 48 38
72 68 68 68 67 65 64 61 63 61 59 58 58 56 70 67 44 62 64 71 69 71 79 64 58 58 58 62 51 47 56 49 55 47 43 40 42 42 32 33 32 35 34 32 31
65 66 68 67 63 64 64 63 60 62 60 58 57 67 78 41 42 39 59 68 73 78 69 59 53 51 60 56 52 54 55 70 51 46 42 37 53 42 33 36 34 36 33 31 29
68 69 71 69 68 66 62 60 59 60 60 60 74 79 75 41 46 37 53 63 81 87 87 52 61 55 61 77 83 65 80 70 54 43 45 47 60 40 35 36 36 38 36 32 29
73 70 70 70 67 65 65 64 64 65 64 56 50 75 59 57 57 46 64 54 88 88 90 78 81 79 74 88 88 86 70 60 60 48 46 55 56 42 36 36 40 37 33 32 28
73 76 70 70 69 68 74 83 84 82 71 60 63 74 56 50 54 71 63 75 78 85 92 86 86 78 72 75 66 62 64 59 53 43 54 53 57 44 43 38 37 35 34 32 28
69 76 75 70 71 71 75 78 83 83 87 59 58 62 55 53 78 76 77 90 90 93 86 93 90 72 64 57 60 60 63 60 49 45 50 60 56 47 42 42 35 35 35 33 32
68 70 76 71 71 78 83 83 74 74 96 80 73 80 76 73 79 81 83 87 78 92 84 78 74 59 61 65 60 58 52 55 53 51 48 55 54 46 39 37 35 36 37 32 29
71 68 76 76 84 73 78 76 76 80 99 93 84 81 82 82 84 78 87 93 90 92 70 76 73 62 62 63 55 63 42 45 57 63 71 48 72 39 37 36 37 37 35 34 44
72 70 78 74 87 80 76 70 74 85 96 91 90 85 85 89 82 92 86 86 83 84 73 94 85 84 74 70 54 52 50 58 63 71 74 64 73 54 41 47 40 37 36 41 46
71 72 76 84 89 71 68 74 80 95 96 99 91 90 92 88 84 82 82 73 76 80 84 90 79 88 91 74 62 53 58 62 70 78 94 70 67 57 52 39 39 40 47 47 49
76 75 75 70 83 71 79 90 97 94 81 91 82 82 79 86 86 80 87 92 93 99 100 94 95 85 82 82 71 58 65 96 96 97 92 64 71 53 40 37 36 45 46 46 49
76 81 85 76 73 74 88 97 90 83 83 71 72 74 84 76 85 86 94 97 86 91 96 95 100 96 90 85 90 78 68 89 90 97 89 57 78 52 34 31 34 38 43 47 49
77 95 93 83 73 82 95 94 92 96 57 67 70 80 79 77 82 90 94 89 86 88 92 97 99 90 86 83 80 92 97 66 75 71 87 69 58 37 37 39 36 42 43 46 50
96 95 89 81 79 88 99 90 93 68 60 56 72 62 64 74 84 95 95 80 85 72 77 83 98 95 90 90 82 80 68 86 95 100 76 70 58 54 44 40 37 41 42 48 54
97 93 86 81 80 97 96 95 76 57 58 60 62 58 55 60 58 69 71 76 67 69 62 64 81 98 96 98 96 89 95 86 77 88 92 70 53 37 37 36 36 41 41 51 60
97 97 87 92 99 93 97 83 69 59 58 57 56 57 61 58 60 60 67 59 47 52 62 56 80 99 88 75 75 74 83 76 93 85 82 88 60 33 37 35 34 40 45 52 64
99 92 86 91 97 88 70 68 66 64 60 58 55 55 56 59 63 62 65 53 51 58 56 58 84 97 98 75 78 97 83 78 80 81 86 82 60 40 40 41 40 48 50 61 63
99 97 86 96 86 74 78 66 72 69 66 53 55 53 56 60 52 66 70 63 55 57 65 58 77 81 86 78 81 88 78 74 86 97 80 76 51 50 43 41 42 47 59 65 64
95 87 88 96 86 81 76 65 66 73 68 60 62 56 60 60 55 62 70 71 62 65 62 66 85 81 70 70 78 77 74 70 96 72 84 60 49 41 39 41 45 58 64 66 65
95 95 86 86 80 82 77 77 77 67 68 60 65 56 56 66 60 60 63 66 68 74 67 73 95 90 85 67 74 82 72 70 68 63 68 68 69 40 37 41 50 61 64 66 65
85 84 94 83 71 80 72 74 70 72 66 65 65 66 59 69 68 63 53 51 56 68 72 79 91 94 92 72 80 82 74 68 67 64 60 73 54 51 48 43 57 67 66 68 67

GFSSW_sfc_rhum_048.txt.gz
RH
64 59 63 62 60 65 67 71 67 66 70 64 64 65 65 68 72 78 93 72 68 67 59 59 62 71 78 84 83 76 90 83 73 71 63 58 63 46 29 40 58 74 84 81 85
61 64 64 63 63 64 65 70 64 65 63 61 66 70 71 72 73 78 63 59 61 63 60 59 67 76 93 90 91 87 84 72 54 48 59 65 63 53 44 35 73 96 89 84 83
66 63 62 65 65 66 68 69 63 62 58 59 65 74 75 76 75 68 61 60 58 66 63 58 64 73 80 89 87 90 75 55 52 47 71 80 68 51 49 37 55 89 94 90 92
70 66 65 67 66 68 69 64 63 60 58 61 68 74 76 70 95 51 54 56 58 64 70 64 87 85 74 91 77 82 60 53 58 55 81 72 62 71 52 34 32 69 90 92 90
69 65 65 68 68 69 63 63 57 60 60 67 64 67 66 80 72 46 53 60 50 69 71 68 89 85 90 81 76 69 58 51 62 78 80 70 79 72 73 52 37 68 78 90 91
63 64 65 64 66 66 64 61 59 60 58 58 66 67 70 95 47 54 53 55 53 76 76 73 77 78 77 75 77 65 54 60 63 64 66 75 76 82 60 38 37 35 44 57 79
66 68 68 66 62 65 63 61 62 60 59 58 58 64 73 75 64 54 62 74 59 79 74 67 60 72 70 74 64 58 67 62 54 49 47 51 72 89 61 37 37 41 36 32 33
71 67 69 68 67 64 62 62 59 61 60 58 57 71 84 45 48 44 57 77 82 86 69 65 57 70 71 62 62 62 61 75 57 50 43 40 57 56 52 36 35 38 39 35 32
70 72 69 69 67 65 65 63 60 60 59 59 77 81 81 43 51 44 58 71 82 89 86 63 71 68 66 81 82 78 86 71 61 48 48 43 53 39 34 39 39 40 39 35 33
69 75 74 69 69 71 67 64 62 68 66 60 64 76 61 56 56 59 60 71 82 90 97 87 86 86 82 86 84 80 81 59 65 55 52 52 58 45 44 43 42 42 42 37 32
66 69 75 74 71 70 75 78 83 82 75 74 65 69 60 52 58 71 64 79 79 89 97 92 90 89 77 76 67 66 67 65 60 49 53 53 57 48 44 54 46 46 40 34 31
68 69 70 75 72 71 78 87 90 80 86 67 63 71 63 56 80 76 72 77 90 94 88 97 90 73 66 67 63 63 71 72 54 48 52 57 54 50 47 52 44 40 39 36 35
72 70 67 73 76 75 78 86 78 76 92 77 75 80 78 74 83 83 77 86 91 95 94 85 73 65 64 71 72 77 71 69 58 56 52 55 56 51 48 49 41 40 39 38 34
69 69 69 78 85 82 82 74 80 80 98 92 90 85 79 81 93 74 84 94 91 93 88 80 74 70 72 74 62 78 49 48 58 68 81 51 79 45 43 44 45 40 43 39 33
73 71 71 72 85 88 75 78 81 88 95 84 90 78 76 84 80 93 87 81 86 93 90 98 82 78 78 68 55 61 49 59 65 74 76 68 71 53 48 51 41 43 42 40 48
72 72 77 86 93 80 72 73 82 88 96 99 85 91 93 84 87 84 88 85 84 82 85 90 82 88 89 76 62 56 62 68 77 81 90 73 70 69 49 43 47 45 40 44 56
74 74 79 78 89 76 77 89 93 94 78 94 94 91 88 85 84 76 88 92 96 98 98 95 93 85 89 78 69 64 69 96 93 96 87 75 76 46 46 41 41 44 52 56 59
78 80 84 80 79 80 86 94 90 82 96 78 79 88 92 76 84 85 92 94 87 87 96 97 99 93 86 86 83 70 75 91 90 97 88 68 82 50 43 35 36 39 47 51 56
76 96 96 88 80 77 94 97 89 90 67 78 78 91 85 80 81 88 96 85 86 92 88 95 98 87 85 80 83 88 96 78 80 81 91 75 64 44 47 50 45 47 48 51 55
96 96 91 85 80 87 96 89 92 73 65 62 81 72 94 89 93 87 91 69 80 85 82 88 97 95 90 82 86 91 72 88 94 97 78 70 75 56 53 53 45 47 50 51 59
96 94 91 84 77 97 97 95 83 63 62 62 67 64 63 72 81 85 93 84 70 78 76 75 85 98 94 98 96 95 99 93 77 82 93 85 64 44 43 46 46 45 44 54 67
96 98 90 87 99 99 97 87 68 65 62 64 58 62 66 60 64 73 76 68 69 65 72 69 88 95 92 81 78 81 86 73 91 91 87 88 65 40 37 38 40 42 44 52 63
98 95 93 86 99 93 75 71 69 68 66 62 59 57 58 62 70 71 70 58 57 58 67 61 88 98 95 85 78 97 92 77 78 80 88 84 59 40 44 37 36 42 53 65 67
96 96 85 96 84 87 84 73 76 71 68 56 58 54 59 63 55 74 74 64 60 58 62 62 79 81 85 77 86 99 92 82 88 98 77 84 58 45 44 41 44 50 55 70 68
96 94 92 96 76 75 77 75 75 80 70 62 65 61 63 68 63 76 77 73 62 64 66 62 85 82 74 74 79 81 84 84 93 75 83 61 60 42 40 40 43 47 64 71 70
95 96 93 95 84 74 78 78 82 69 72 66 69 67 61 77 67 65 69 77 71 77 76 76 92 88 84 67 78 81 75 83 78 79 79 70 70 49 35 39 45 60 71 71 70
96 90 96 84 59 76 63 59 65 70 74 71 79 74 73 75 72 70 58 58 60 69 76 80 92 92 89 79 77 79 74 72 74 70 76 80 55 54 48 42 53 65 70 70 70

GFSSW_sfc_rhum_051.txt.gz
RH
64 65 62 63 66 66 65 65 66 70 71 71 67 64 65 66 70 78 93 75 65 65 66 69 68 75 75 91 88 83 85 77 64 60 55 59 66 59 48 50 61 95 88 87 92
65 65 64 63 65 66 66 68 69 70 70 63 64 70 73 71 78 86 68 62 61 61 69 75 80 83 90 93 93 92 89 70 53 44 45 53 70 66 59 55 66 96 94 90 88
65 64 68 65 66 69 69 67 68 66 59 60 64 70 72 74 77 73 64 65 60 56 73 62 66 75 85 90 92 90 85 59 51 46 58 70 64 61 66 61 43 50 96 93 92
63 62 62 66 68 67 65 64 60 60 58 61 66 72 76 76 91 60 53 59 62 55 75 64 79 86 85 82 89 94 64 52 54 64 70 69 60 69 69 60 54 57 59 94 95
63 63 65 63 66 66 64 60 57 59 59 63 64 66 68 86 80 56 55 50 54 63 74 77 82 80 71 59 75 80 66 56 69 76 74 65 71 78 77 57 48 45 84 93 93
69 65 65 66 62 65 64 62 59 60 58 61 63 64 71 92 56 57 62 58 60 69 74 73 75 64 78 82 77 76 65 68 73 74 69 78 78 77 54 55 54 45 91 90 88
72 71 68 68 66 64 65 64 62 60 60 58 58 72 81 79 58 62 64 78 64 63 75 74 62 74 75 84 75 76 76 83 82 76 79 69 83 90 58 50 58 55 52 69 83
72 76 70 68 68 66 66 64 64 63 64 59 57 74 82 54 73 69 59 75 79 60 76 72 64 77 75 70 69 70 84 84 77 70 62 82 88 77 65 64 68 58 41 37 35
62 70 70 71 69 71 70 66 63 63 62 60 79 80 84 50 76 60 62 73 85 85 83 63 73 76 76 83 88 82 94 83 70 58 59 68 58 57 66 56 64 58 41 38 36
68 63 67 71 72 72 71 65 67 71 67 63 67 83 64 57 54 61 65 68 80 92 84 77 83 88 90 87 85 84 88 72 71 60 56 66 54 44 52 59 62 51 43 42 40
69 74 65 69 74 72 79 76 80 78 76 84 73 69 62 54 57 70 70 73 88 87 95 90 96 87 83 82 70 72 77 78 70 56 56 57 53 48 44 48 44 45 49 45 40
69 74 64 68 72 74 79 87 81 80 83 69 71 72 68 60 81 78 69 85 87 97 95 95 96 77 70 63 63 68 77 78 65 55 56 59 59 50 45 45 46 44 47 47 40
73 72 69 67 78 78 79 86 80 78 91 80 78 83 79 80 86 84 76 82 92 98 95 92 74 69 70 72 69 78 76 76 71 60 55 59 64 56 49 52 46 48 44 44 40
73 68 70 72 85 86 84 70 82 84 98 91 89 88 83 81 91 77 80 84 89 96 94 86 70 74 80 77 71 83 58 59 63 72 82 58 86 56 50 49 49 43 51 46 43
69 71 69 74 90 88 75 80 84 85 95 81 89 73 76 88 78 87 77 87 93 91 94 96 76 78 81 76 58 68 54 55 69 80 77 68 75 60 46 49 46 41 43 48 42
72 73 70 85 88 85 74 73 81 89 96 98 87 90 92 88 85 87 92 95 79 87 88 92 88 80 85 72 58 58 65 69 80 81 94 73 71 64 50 41 41 41 42 46 46
74 75 75 83 91 78 77 84 93 92 77 91 93 90 92 88 83 84 91 93 99 99 100 90 94 92 84 77 72 63 68 95 95 96 94 78 73 47 44 44 40 39 43 44 60
76 83 83 82 85 79 85 87 94 83 87 70 83 84 88 76 89 84 89 96 88 83 94 98 100 91 90 85 81 71 66 91 89 96 89 78 86 54 47 40 41 39 43 58 70
78 96 97 90 78 79 87 98 86 89 80 84 81 85 91 82 80 89 86 92 89 88 89 97 97 85 87 88 83 90 92 71 83 84 93 79 66 46 44 42 43 48 55 63 68
96 95 95 88 76 84 96 91 92 76 68 70 90 90 95 89 84 88 94 82 85 88 83 87 98 83 88 82 87 87 78 87 94 94 86 73 77 58 48 46 52 55 55 56 63
96 96 94 81 78 97 98 94 83 69 66 67 70 73 82 91 86 92 84 81 75 87 80 80 84 95 91 94 88 94 98 92 83 88 86 92 69 53 45 43 55 56 51 52 62
95 98 87 93 99 97 99 87 72 68 65 66 62 66 71 70 83 84 93 81 74 75 83 75 86 92 86 83 76 85 86 89 92 95 93 91 75 44 46 44 51 52 51 59 66
97 95 89 89 98 96 81 74 73 71 69 66 62 60 62 67 77 80 76 63 72 68 72 69 89 97 97 90 83 97 88 84 76 85 90 92 70 40 46 48 46 48 53 63 70
95 94 84 97 90 87 91 83 76 72 70 60 64 57 62 67 65 76 76 68 62 57 64 60 81 81 87 80 90 98 88 91 95 99 84 78 66 47 40 44 44 46 56 69 72
96 97 92 96 84 85 87 84 81 80 73 67 66 67 66 73 74 83 81 75 66 65 74 65 87 86 75 69 84 89 91 82 99 93 89 67 67 52 41 41 41 50 61 77 78
87 84 94 92 85 80 76 90 84 79 72 75 76 76 67 82 74 74 74 77 74 78 79 77 93 87 88 72 84 84 80 87 80 80 83 76 77 50 42 45 46 48 62 71 74
96 92 96 75 66 77 61 64 67 68 74 68 85 84 80 75 75 75 64 63 67 70 80 80 92 91 88 83 75 80 72 74 83 83 79 88 67 54 54 48 46 48 63 70 71

GFSSW_sfc_rhum_054.txt.gz
RH
66 62 66 66 64 66 66 67 66 65 66 63 65 66 66 65 68 81 89 75 72 64 63 80 80 79 83 95 86 81 92 77 70 62 62 68 66 65 58 61 61 91 98 96 94
60 62 60 60 65 67 67 66 66 66 67 65 68 67 70 70 86 94 71 64 67 60 71 86 92 86 93 95 92 90 86 79 55 44 45 67 67 70 66 65 49 57 52 80 96
63 62 67 62 64 66 65 64 63 62 62 61 65 68 74 75 84 72 57 63 68 55 68 74 75 77 89 97 96 90 86 63 53 46 57 71 64 64 72 70 67 74 63 56 94
69 63 65 62 62 65 65 62 61 60 60 63 65 70 74 81 92 74 58 60 71 61 69 79 77 84 87 94 92 92 80 61 58 52 65 70 62 72 75 66 66 58 55 60 84
71 71 63 69 64 65 65 63 60 60 62 62 63 66 71 87 86 52 61 56 57 70 71 87 80 85 90 87 89 90 78 63 67 63 60 60 70 72 80 64 61 53 53 81 93
69 72 72 64 66 65 66 65 63 63 62 61 64 64 76 90 61 54 61 56 62 64 77 82 72 70 82 76 79 70 65 67 69 67 68 68 78 72 51 50 55 53 56 63 94
59 69 73 73 66 67 66 65 64 62 64 62 59 72 92 76 57 69 63 61 73 65 76 77 68 67 78 87 73 69 70 87 89 78 84 65 79 91 60 54 64 65 62 48 59
70 60 69 72 70 69 71 68 65 62 62 62 59 78 90 55 69 66 66 65 78 71 62 70 76 71 77 75 83 84 82 89 90 83 74 62 80 61 68 82 76 65 58 49 38
68 70 65 65 72 72 72 70 65 63 62 60 81 87 82 60 74 57 65 68 79 70 73 66 80 74 74 85 92 80 96 90 95 80 89 70 78 61 78 84 74 56 54 54 40
71 71 70 63 71 75 72 70 66 70 67 65 70 91 62 57 56 62 67 76 79 85 89 97 90 81 90 89 92 90 92 89 88 86 86 80 62 60 75 70 61 49 52 56 46
75 74 72 64 71 74 82 75 80 77 77 80 74 73 64 56 56 71 65 83 87 78 92 96 95 91 88 86 74 78 78 84 79 66 74 89 74 52 73 68 60 47 51 50 45
74 76 73 67 68 75 81 79 85 79 90 69 73 74 68 65 82 80 67 82 88 93 93 97 94 72 76 68 69 72 79 84 72 67 71 67 71 53 52 64 57 48 52 44 46
73 76 72 66 70 82 79 83 83 79 91 76 77 84 80 83 86 88 73 79 88 95 97 95 77 69 74 76 75 81 80 78 77 68 64 68 69 60 50 50 46 44 47 46 46
74 72 68 66 84 90 86 75 85 81 95 85 89 83 82 82 88 78 79 81 90 96 95 88 70 73 81 77 70 85 65 62 69 75 90 72 92 64 53 50 50 45 43 48 46
71 69 66 71 92 90 77 84 86 81 94 82 88 72 78 84 83 83 78 77 89 95 96 96 79 84 82 72 59 71 60 62 72 80 79 78 85 68 53 61 46 40 44 48 50
69 72 69 83 87 86 76 75 84 87 93 98 84 87 91 88 88 86 88 85 80 92 92 92 83 80 81 69 61 62 66 72 80 81 95 79 82 71 54 46 39 39 41 41 50
71 77 74 85 93 81 79 86 92 91 75 91 87 86 88 87 86 86 92 96 99 100 100 93 92 92 82 79 72 66 72 98 96 97 94 81 84 56 49 43 38 34 32 37 49
77 86 78 84 82 77 84 86 95 82 82 75 83 86 92 84 88 92 91 99 89 93 98 100 100 94 91 80 81 70 68 91 89 97 89 78 88 65 48 43 41 38 39 42 50
78 96 97 86 78 81 90 98 87 85 75 86 84 89 88 83 85 82 90 95 84 81 88 96 99 87 86 87 81 88 82 67 84 87 93 82 71 48 44 42 44 42 46 55 67
96 95 96 88 79 87 99 92 92 73 72 72 94 87 99 87 86 82 89 84 81 85 82 86 97 83 86 87 87 84 72 86 93 93 92 80 78 62 46 42 41 44 54 62 75
96 95 92 81 81 98 99 94 83 70 70 69 73 72 89 97 77 87 87 84 75 89 74 81 80 98 85 93 93 93 97 88 82 87 90 88 72 54 50 41 42 45 55 64 74
94 98 86 84 100 98 98 92 74 70 65 66 63 66 73 87 90 95 88 87 76 81 78 80 86 93 89 81 78 80 90 86 94 91 94 92 67 49 45 46 46 53 61 64 69
97 98 90 90 98 93 87 74 75 73 70 66 64 60 63 66 76 72 72 70 79 72 77 75 90 98 96 83 84 91 86 80 84 90 95 93 76 41 41 43 52 60 64 68 80
94 96 85 97 94 86 92 92 78 73 71 63 66 61 64 66 72 80 76 66 61 66 74 67 86 83 86 79 89 97 79 76 88 99 86 79 68 51 47 41 44 54 61 74 82
95 96 93 97 91 80 89 89 92 90 75 68 71 79 73 76 78 84 81 76 65 74 77 74 96 86 80 71 89 92 89 88 97 83 89 63 66 54 47 43 42 46 61 77 81
81 80 94 90 79 86 65 85 82 75 87 85 87 85 76 82 84 81 80 81 78 78 82 78 95 86 87 75 88 89 86 91 85 82 84 81 85 60 56 50 45 45 59 72 74
97 94 92 71 73 73 59 56 67 72 75 74 85 87 83 92 92 83 75 68 72 73 82 78 92 92 86 85 81 88 78 82 86 85 74 86 64 69 62 59 53 48 50 62 66

GFSSW_sfc_rhum_057.txt.gz
RH
62 58 66 61 58 68 62 63 65 65 66 65 64 68 70 66 71 82 88 71 69 64 60 80 74 73 84 82 79 80 88 77 70 61 59 59 54 57 52 49 51 60 66 74 88
69 64 60 62 61 67 62 61 62 62 64 63 68 64 69 69 81 90 70 60 69 64 65 84 91 81 87 92 85 80 90 72 52 47 62 64 58 61 53 48 49 55 48 46 85
69 68 64 63 64 60 63 62 61 61 62 64 64 66 72 73 81 71 63 59 61 72 67 78 76 76 88 93 95 93 78 58 53 52 59 64 60 58 56 56 62 64 55 50 58
67 70 67 62 66 60 64 62 60 61 62 64 63 69 70 73 83 70 63 63 61 81 70 81 82 78 88 94 87 83 80 62 54 50 63 58 56 59 61 52 58 56 50 54 64
57 64 68 71 60 64 61 65 62 63 61 63 63 63 73 81 80 52 59 56 56 88 76 87 84 77 81 84 87 81 74 68 62 60 58 55 66 60 62 59 56 49 53 53 59
64 61 63 70 72 60 64 64 64 62 62 61 60 66 78 88 55 55 61 55 62 86 80 84 74 66 73 83 76 76 68 70 70 62 64 62 65 66 50 51 52 55 56 54 48
67 66 64 63 70 69 66 67 64 64 62 62 58 71 90 81 56 67 70 62 61 78 79 75 81 68 67 83 67 71 75 84 81 72 73 62 72 70 59 58 64 60 57 53 49
71 67 64 67 65 70 71 69 67 66 62 60 60 76 92 54 63 66 63 65 62 65 69 74 81 74 74 70 69 79 78 86 82 81 77 59 63 55 66 61 59 66 58 51 45
72 69 66 67 67 70 75 70 69 65 66 61 80 82 85 62 67 49 64 69 70 79 70 75 94 76 76 83 88 85 90 84 94 78 78 72 71 53 65 62 53 45 56 49 45
72 70 70 67 69 71 75 72 69 69 66 66 70 86 71 59 60 55 64 70 76 83 83 80 95 86 89 83 84 92 91 81 89 88 83 77 61 66 70 63 54 49 51 47 46
70 72 71 69 68 72 83 75 76 76 76 76 70 72 65 56 58 66 64 78 79 84 90 85 98 93 81 70 66 70 80 75 66 80 83 82 72 58 73 70 63 59 56 47 46
71 74 71 67 66 73 80 79 72 68 82 68 72 73 68 66 77 74 66 84 93 89 91 96 98 76 72 64 66 68 76 78 61 76 76 82 81 64 63 70 55 54 44 44 44
71 74 70 68 66 86 80 79 82 81 93 78 76 82 78 80 85 82 73 89 79 90 99 98 87 64 73 71 70 72 71 75 69 71 59 69 69 64 57 63 59 56 48 42 40
72 71 70 64 81 92 86 76 85 83 93 91 90 82 77 79 84 77 74 80 88 94 96 88 72 70 80 77 67 75 61 63 72 74 86 60 78 66 54 55 54 53 48 46 46
69 74 75 61 93 91 78 83 87 79 94 78 90 73 75 80 80 80 78 73 87 92 91 94 81 78 86 78 60 68 60 64 70 72 69 64 76 65 55 58 50 46 43 42 42
74 70 72 71 85 86 76 76 77 88 97 95 83 92 90 87 86 80 86 82 78 82 86 90 74 77 75 73 57 62 63 67 73 71 84 69 75 67 53 46 45 44 38 40 38
74 80 75 84 92 79 80 84 93 92 75 86 89 89 95 93 87 85 86 92 97 96 100 96 93 87 78 74 62 60 67 93 89 91 84 70 75 56 46 37 35 33 31 32 40
80 74 82 85 83 78 84 84 95 80 92 75 82 88 92 90 94 89 95 90 93 93 100 100 99 90 86 76 78 66 65 85 87 90 81 70 79 52 47 40 39 38 38 39 37
79 93 96 87 78 80 90 97 90 84 80 77 78 79 92 81 90 93 96 95 86 90 99 98 100 88 83 82 72 77 79 59 80 78 80 67 60 44 41 35 34 36 40 39 42
96 96 97 88 80 88 97 92 88 65 73 80 92 88 88 86 85 95 98 80 85 87 73 79 98 86 86 81 81 73 66 82 89 90 84 68 63 49 40 37 35 34 35 41 51
95 96 94 82 81 97 100 92 79 66 72 69 72 85 97 97 87 88 88 80 74 82 68 75 79 95 79 88 92 84 91 85 74 76 80 75 58 47 45 37 38 39 41 48 63
95 97 88 84 100 98 99 86 73 68 70 68 61 64 85 86 91 89 89 83 72 75 75 77 80 97 96 83 77 74 79 75 85 87 88 81 70 42 41 40 43 41 50 54 67
97 92 90 91 98 92 82 75 73 76 75 70 66 63 64 72 86 88 81 76 76 71 75 71 88 96 92 80 74 85 83 80 84 86 95 88 65 42 41 38 40 49 51 60 74
95 97 90 97 92 85 89 89 82 75 73 66 72 63 67 71 74 80 78 70 71 78 70 65 83 81 85 78 86 98 78 76 81 92 71 76 62 51 49 49 46 40 50 60 70
93 93 92 98 95 81 84 85 92 90 82 76 73 84 78 76 79 86 78 74 67 74 79 78 93 86 75 72 89 88 88 82 85 73 86 62 67 53 50 51 47 40 46 64 72
79 89 94 85 74 87 65 78 81 74 89 86 86 86 83 86 88 85 78 81 77 70 82 73 95 83 86 74 82 87 83 89 79 72 73 71 74 55 55 60 55 48 44 60 67
98 94 79 75 74 76 55 57 99 84 79 84 91 85 92 96 95 91 82 71 73 74 84 80 90 91 85 79 72 72 70 79 86 85 79 86 65 56 60 63 64 62 54 48 57

GFSSW_sfc_rhum_060.txt.gz
RH
68 67 61 63 63 59 64 58 60 61 62 65 65 64 64 64 67 60 62 43 62 68 66 46 50 54 61 86 58 44 67 61 49 36 44 44 44 48 40 40 40 41 43 41 78
64 69 65 61 64 58 62 58 59 60 61 63 63 64 65 69 58 54 46 58 58 64 65 58 58 58 64 80 75 67 77 53 36 33 44 50 39 44 40 38 43 36 33 43 84
57 63 67 62 60 61 64 59 60 60 61 63 62 68 70 64 63 46 62 62 57 62 85 64 55 61 58 62 92 60 69 41 35 42 41 46 49 46 37 42 40 43 39 35 55
64 59 62 67 66 61 59 63 62 61 60 61 61 64 66 61 66 54 57 60 60 66 86 78 75 73 52 80 80 72 46 42 39 43 45 44 46 48 44 39 42 41 39 36 44
65 64 62 62 69 63 58 60 64 60 62 61 62 63 58 62 51 44 57 50 52 84 80 90 79 61 48 50 61 78 51 47 37 44 41 40 48 44 42 35 41 39 40 37 36
68 66 64 63 64 70 62 65 62 61 61 62 60 65 58 63 41 39 48 47 52 82 73 92 72 50 40 44 61 54 59 55 50 54 44 47 42 53 34 35 40 40 38 37 37
68 66 65 66 65 65 69 66 65 63 62 62 59 56 67 47 37 42 50 50 50 70 75 83 76 55 39 49 40 45 60 60 71 57 57 46 54 54 31 32 40 37 34 38 36
71 69 67 66 62 61 69 72 67 67 65 61 60 59 60 43 40 49 44 52 54 65 70 88 82 64 42 43 50 50 53 70 59 60 54 63 54 39 34 42 38 33 32 36 35
72 70 67 68 66 62 67 73 70 67 64 63 63 63 56 53 50 44 44 56 56 61 74 80 89 63 59 53 59 57 46 50 59 51 56 54 44 40 42 46 38 32 27 28 30
71 70 70 68 69 64 68 74 62 66 56 54 54 75 52 49 51 52 45 58 58 77 78 83 90 74 57 54 59 51 42 40 49 63 56 60 54 42 44 42 31 29 26 26 29
70 71 71 68 70 67 73 55 63 64 63 54 52 55 50 51 59 58 51 54 67 81 94 90 99 90 49 40 33 34 41 46 41 57 63 61 59 51 41 50 42 31 28 27 30
68 72 72 68 68 70 70 55 55 58 66 55 55 58 52 55 78 60 59 65 84 96 80 91 97 84 50 46 46 42 43 45 50 58 57 54 56 48 41 46 48 36 27 28 29
71 73 68 68 66 73 67 56 63 60 73 71 70 68 63 69 70 76 80 76 88 92 71 78 84 81 56 48 51 45 44 54 48 68 56 55 56 50 45 40 41 39 30 24 27
72 69 71 71 73 68 64 58 66 63 96 78 83 74 70 69 73 72 85 81 88 88 73 87 82 87 62 49 44 61 44 50 63 53 48 46 34 33 34 42 43 39 37 32 35
69 72 72 69 70 70 66 67 66 65 90 77 88 66 67 67 69 80 85 69 74 84 90 93 95 87 64 52 39 54 48 46 51 40 44 49 46 25 34 34 33 33 33 35 33
71 75 72 65 69 65 65 68 64 93 94 95 82 86 78 73 70 64 76 60 58 69 88 88 74 58 54 56 47 46 48 48 46 44 68 39 43 30 29 28 25 29 29 31 30
77 75 67 63 67 68 67 70 97 90 71 76 84 95 94 86 73 72 68 76 83 94 100 92 74 68 61 59 50 44 47 77 73 84 58 50 52 28 31 28 26 25 24 24 26
79 69 77 70 69 71 72 73 95 79 82 65 68 84 86 88 82 80 78 82 82 77 83 99 100 74 63 49 59 55 40 56 62 55 43 52 50 28 28 28 26 26 24 23 24
74 72 73 74 70 72 74 96 94 78 71 65 65 66 96 93 91 93 85 80 78 81 79 99 98 81 68 60 48 60 68 41 57 52 56 36 40 30 26 27 23 22 22 21 23
71 73 75 76 72 78 86 89 92 61 66 75 76 88 78 95 98 91 89 78 78 72 64 66 98 78 71 62 58 52 44 62 74 81 56 41 39 24 27 26 23 22 24 24 26
73 71 74 76 72 92 97 97 78 56 59 56 75 96 80 87 74 82 91 83 73 79 64 58 63 97 67 74 76 62 63 59 49 54 56 39 27 26 27 26 26 25 28 32 34
78 87 74 78 95 94 93 79 74 57 54 52 63 65 80 75 74 73 81 86 73 64 75 57 65 98 98 70 60 53 51 47 58 73 58 54 40 27 27 28 29 29 30 34 42
78 81 84 82 88 82 74 70 65 62 56 53 58 52 48 62 76 76 65 64 72 57 59 52 68 95 98 70 64 72 60 50 53 63 76 62 36 30 28 29 29 33 30 31 44
70 92 86 94 80 75 78 75 68 63 60 53 54 48 50 56 56 67 75 62 61 63 67 57 60 68 60 71 56 70 60 61 61 86 60 53 44 32 30 31 30 32 31 29 36
59 68 73 92 69 68 73 70 77 73 63 57 58 59 53 55 58 66 70 69 63 66 62 56 92 80 55 64 70 69 62 58 79 61 71 51 46 36 34 36 37 35 36 34 35
51 60 62 54 58 67 70 70 75 72 72 65 66 67 56 61 66 62 60 60 76 62 67 60 88 72 82 60 63 70 60 60 59 55 53 51 54 40 38 36 37 36 35 37 37
74 71 46 60 60 60 56 67 93 80 70 71 76 64 69 75 70 68 60 52 51 64 70 68 80 88 79 61 58 65 53 53 55 57 54 62 47 38 43 43 44 42 40 39 38

GFSSW_sfc_rhum_063.txt.gz
RH
59 66 70 61 61 62 60 59 59 60 61 63 64 63 63 65 65 50 53 43 53 51 67 54 44 53 46 67 60 42 82 57 42 32 32 34 38 41 34 34 38 36 39 41 70
62 59 60 68 62 60 59 60 60 60 61 64 63 65 67 68 46 48 44 50 55 56 63 60 52 55 52 68 70 78 86 61 36 26 36 37 31 39 37 39 37 35 37 62 76
64 65 61 61 69 60 60 63 63 60 60 61 61 65 66 60 55 44 57 62 63 55 71 77 60 55 54 52 79 61 63 47 36 38 36 40 38 34 36 42 36 38 35 44 75
67 67 63 63 63 72 59 59 64 61 63 61 62 62 64 49 69 47 56 57 57 55 83 78 72 71 57 60 65 76 44 40 50 44 39 41 38 38 34 38 35 34 33 33 54
67 69 65 66 64 65 70 59 65 63 61 62 62 63 52 48 40 37 47 43 41 70 78 79 83 79 57 41 61 67 56 38 43 42 37 39 42 37 37 33 35 35 33 32 37
67 68 67 66 67 63 66 73 65 64 62 62 62 65 47 51 31 30 36 39 40 61 75 83 80 56 41 32 54 53 74 57 46 51 42 46 44 41 33 30 33 35 33 32 32
68 72 69 67 68 63 64 68 72 65 65 62 60 47 52 46 28 32 38 43 38 54 68 78 76 96 44 33 30 47 76 77 51 61 39 42 56 57 34 25 34 33 30 32 31
68 72 71 67 67 68 62 64 71 69 67 64 59 45 53 32 32 36 36 43 43 51 59 81 81 92 79 28 36 50 62 97 54 55 46 47 51 42 36 33 31 31 30 27 30
70 69 70 69 69 71 62 66 73 69 66 64 59 51 48 49 44 35 38 46 47 60 80 77 82 89 51 48 56 56 55 90 77 46 46 49 46 36 45 37 37 31 28 25 25
70 69 70 70 70 71 65 69 65 66 56 42 40 64 47 40 40 48 41 50 56 70 91 94 90 94 58 55 64 48 40 39 64 53 49 52 45 40 35 34 34 30 27 25 23
71 68 71 71 69 67 70 59 65 66 54 49 44 45 41 42 44 53 43 51 62 78 96 91 100 91 47 38 26 27 30 26 34 42 54 62 60 48 32 36 37 28 26 24 23
70 70 71 67 68 67 70 59 45 57 60 47 48 48 44 55 68 55 52 66 84 96 88 94 100 65 43 31 32 27 33 34 31 50 49 48 52 39 34 35 34 32 29 24 22
71 72 68 69 71 68 66 48 49 50 66 59 59 59 54 62 74 69 66 70 91 96 80 83 92 71 56 42 37 29 34 40 45 43 48 41 42 39 36 34 32 32 32 26 23
70 66 69 75 74 57 58 47 54 51 95 71 76 65 58 63 84 80 77 75 96 90 61 68 76 74 82 41 34 42 29 30 37 53 52 39 39 33 30 34 38 34 32 32 28
65 69 73 76 65 61 58 52 54 58 96 71 81 54 56 64 80 83 65 70 69 73 58 82 78 95 88 41 31 39 33 38 48 48 34 45 43 23 21 28 31 32 31 30 31
68 75 76 61 62 55 55 57 62 93 90 81 70 72 59 60 70 73 68 52 54 74 76 81 66 84 65 40 37 40 46 45 44 38 64 37 34 23 23 23 19 19 21 24 25
76 67 70 52 60 55 55 66 98 91 62 68 94 90 85 60 59 62 63 66 80 96 100 95 94 84 61 53 45 37 44 70 67 79 58 36 33 25 24 22 22 21 21 20 21
75 72 75 58 56 59 65 77 94 71 63 53 70 87 86 79 74 60 66 74 70 59 100 100 100 59 48 44 52 41 35 51 56 52 41 40 45 25 21 20 22 21 20 20 20
74 62 63 62 60 62 84 100 93 68 62 56 56 91 100 93 72 82 76 64 52 62 91 99 95 67 56 48 42 53 65 38 48 36 43 36 28 24 23 23 21 20 19 19 18
60 60 64 61 62 72 97 80 77 58 62 62 66 87 97 92 88 95 76 69 67 60 53 78 99 73 61 51 48 48 37 52 64 70 43 35 29 23 23 24 22 23 25 26 26
63 68 71 62 65 84 96 94 69 51 53 53 68 85 82 97 75 69 84 80 66 64 52 50 70 96 59 65 60 56 58 50 43 49 55 33 26 21 22 23 24 25 28 28 30
67 86 68 65 90 80 81 71 73 51 48 48 56 57 70 66 68 63 89 84 59 56 58 50 69 95 96 64 55 45 43 40 53 66 46 49 37 20 22 24 25 27 28 26 28
62 67 67 73 86 72 64 64 59 54 49 47 54 50 43 54 70 60 68 66 65 58 62 51 77 94 94 65 57 61 48 44 41 57 67 56 34 23 25 26 26 29 25 27 27
61 86 76 78 64 63 61 62 61 56 50 47 46 43 44 48 48 60 70 73 62 55 63 54 54 64 65 62 48 64 49 46 50 80 53 45 36 28 26 26 25 25 29 28 29
53 50 58 87 60 52 61 55 59 59 51 46 47 48 45 50 51 60 66 67 61 62 55 52 85 76 50 55 60 59 50 47 70 59 65 43 38 32 30 32 32 30 29 30 30
44 49 55 52 51 53 64 58 60 64 59 54 53 50 44 51 57 56 61 59 58 54 58 51 86 69 90 53 55 63 51 49 48 48 48 45 45 31 30 30 31 31 33 34 32
50 47 41 55 50 50 48 58 67 68 64 60 59 50 59 66 55 52 48 43 46 58 57 60 74 91 77 52 50 56 44 44 47 44 46 52 38 34 40 42 44 43 41 39 36

GFSSW_sfc_rhum_066.txt.gz
RH
66 65 61 60 69 63 59 61 60 60 61 63 64 64 65 67 65 55 61 46 45 59 60 55 55 52 60 70 72 62 85 69 57 46 36 39 47 47 39 45 43 42 56 77 84
65 64 64 64 62 68 63 61 64 62 61 61 61 62 65 67 56 47 40 45 51 56 59 66 69 56 79 68 80 84 86 68 45 38 45 40 41 45 46 47 46 56 69 75 88
67 67 68 63 64 63 70 61 60 67 62 62 62 62 63 62 58 51 54 55 57 62 57 68 70 62 80 67 79 75 75 62 49 51 42 41 40 37 45 50 43 48 63 79 90
66 67 70 66 64 64 64 70 58 62 63 62 62 63 64 58 70 51 53 49 53 66 72 80 73 85 80 80 66 86 59 48 55 56 47 44 40 42 45 49 39 39 41 69 86
67 66 69 68 67 67 63 64 71 64 63 62 63 63 57 54 44 42 43 37 40 65 80 84 84 81 79 65 59 84 57 49 50 64 46 40 47 45 48 44 41 38 38 44 66
70 68 71 72 67 67 66 62 65 74 65 64 61 64 62 61 28 28 35 38 38 64 84 83 77 72 61 60 58 65 64 52 65 70 65 47 50 48 41 36 39 39 42 39 44
69 68 71 72 69 65 68 59 65 68 67 66 62 53 59 53 27 29 33 39 40 45 76 78 68 88 83 59 41 58 77 78 74 77 55 44 53 56 42 35 38 41 40 40 38
71 70 69 70 69 69 71 60 65 69 73 66 63 57 64 31 35 34 32 39 42 48 62 82 76 90 92 54 39 61 73 91 65 77 75 55 72 49 38 43 45 41 40 37 38
71 71 68 70 70 71 70 62 64 70 67 64 67 66 57 45 44 33 37 46 42 56 72 69 89 85 82 88 56 66 89 84 78 68 84 76 62 45 42 53 48 42 37 36 34
71 71 67 69 71 71 68 64 67 68 63 47 43 60 50 43 43 46 43 46 54 70 84 84 92 92 91 86 78 66 80 80 77 73 90 79 58 52 51 50 50 42 35 35 34
71 71 70 70 69 68 68 73 77 76 61 58 49 49 40 38 42 54 44 56 66 72 96 92 100 98 91 73 44 50 53 91 78 70 88 74 60 47 48 51 51 42 38 36 34
72 72 71 68 64 70 68 78 54 60 72 50 45 48 42 64 69 51 49 68 78 90 92 99 100 83 85 67 40 39 44 48 66 63 67 59 66 55 47 48 43 44 40 33 31
71 70 65 67 72 69 68 67 51 50 77 58 55 58 52 64 77 68 61 70 84 96 94 93 92 84 82 55 40 34 37 49 76 68 84 60 66 55 47 45 38 40 40 37 38
71 66 67 72 78 66 62 47 56 56 99 78 73 64 56 66 84 72 71 79 92 98 93 85 86 86 75 75 39 45 33 45 54 64 77 52 64 52 42 41 41 44 45 46 43
66 64 69 73 72 66 60 55 59 67 99 66 78 51 57 67 73 83 63 81 96 89 77 94 94 85 72 42 34 43 35 45 54 59 52 62 70 40 35 41 46 46 43 42 42
70 73 74 67 68 64 56 59 71 98 88 80 65 68 60 59 68 70 74 85 59 70 76 85 80 84 88 47 42 42 47 52 57 63 88 59 60 43 40 35 32 40 42 38 41
73 67 70 52 76 59 60 78 100 98 59 72 80 78 71 82 67 58 64 77 82 95 99 91 94 76 78 63 56 51 58 90 91 92 83 47 53 41 33 28 28 31 32 33 35
74 73 70 55 59 63 73 95 93 64 64 55 70 82 80 72 59 54 64 78 65 77 100 100 98 88 62 57 62 62 52 82 70 86 70 46 62 40 32 28 27 26 28 31 32
76 74 71 64 62 70 93 100 94 76 56 55 93 100 95 76 65 74 70 72 58 65 99 94 100 84 59 51 58 59 78 51 68 56 78 58 42 37 32 30 29 27 30 37 35
78 73 70 64 66 81 99 87 79 58 61 57 69 82 96 80 78 82 70 66 63 58 60 76 96 72 62 60 59 65 48 69 88 77 60 49 44 44 39 31 31 37 41 42 41
83 79 76 64 73 94 100 96 66 50 51 58 66 77 94 93 81 67 76 76 60 60 60 70 76 91 73 75 68 68 83 62 58 76 90 62 50 31 32 32 37 40 40 42 45
78 92 74 71 98 84 96 67 70 50 50 50 55 62 74 74 67 74 83 78 60 60 65 61 84 98 91 72 58 66 54 53 81 79 72 75 59 29 34 33 32 37 40 41 40
75 81 71 78 90 80 66 62 58 51 51 48 54 51 47 57 72 70 74 68 59 62 69 62 88 98 98 74 64 74 59 52 53 75 87 87 55 32 34 34 33 37 41 40 39
73 89 85 83 69 75 62 60 63 63 51 47 48 47 48 53 50 67 73 70 66 56 68 63 74 84 92 82 71 80 60 53 64 94 72 68 53 40 37 40 42 46 43 41 40
74 74 68 90 73 64 65 56 54 61 55 49 52 51 47 58 58 69 67 74 70 69 68 64 86 84 61 62 73 70 62 57 73 68 80 64 55 44 42 44 44 42 40 42 43
67 67 69 60 53 60 67 63 54 63 65 54 57 51 49 62 63 62 62 65 73 65 70 64 95 84 89 62 64 79 61 58 56 58 55 53 56 44 42 48 50 53 53 52 49
63 57 60 66 62 59 58 59 62 64 65 60 58 58 68 68 60 56 54 50 60 67 68 70 87 93 87 63 62 78 61 58 60 59 58 66 56 50 57 58 60 61 55 51 49

GFSSW_sfc_rhum_069.txt.gz
RH
67 65 65 63 62 62 65 64 61 64 61 61 61 61 62 65 66 60 74 63 54 54 54 62 64 64 57 82 75 80 92 80 71 67 58 44 47 53 47 52 58 60 72 81 81
66 67 67 68 63 61 63 66 62 60 66 63 62 62 62 64 70 73 50 45 50 54 66 72 79 82 82 88 83 93 88 73 52 58 63 50 48 47 55 54 78 94 88 90 94
68 66 66 70 67 62 61 63 67 59 63 64 63 63 64 63 79 65 50 51 52 79 68 63 72 81 84 81 86 83 81 66 60 60 55 53 51 44 56 63 54 94 94 92 96
70 69 68 71 70 67 66 62 62 68 64 62 62 63 65 68 92 62 52 47 48 63 73 73 86 90 82 88 80 96 68 54 66 62 62 52 46 48 60 55 46 71 85 89 92
71 71 68 72 71 66 66 66 60 64 73 65 63 62 68 76 71 52 44 38 42 66 74 81 89 83 77 72 77 84 74 58 51 62 71 62 53 56 56 49 42 42 77 89 85
70 70 69 70 71 68 65 66 59 63 66 70 66 61 79 90 39 39 39 42 43 60 81 90 75 82 84 77 75 70 71 66 69 66 77 79 62 56 55 49 47 42 51 74 82
69 71 71 70 70 69 68 67 60 61 67 71 63 61 76 82 39 38 37 43 48 52 75 85 73 89 84 76 58 63 84 78 80 72 74 84 76 64 56 46 48 46 44 48 50
70 72 71 68 70 70 70 68 63 59 65 71 63 72 88 44 45 40 39 48 48 52 65 78 83 85 87 78 65 72 76 92 85 87 81 75 80 61 58 48 50 51 47 45 44
71 72 70 66 69 71 70 69 63 63 68 64 80 78 78 44 49 43 45 50 46 66 78 68 84 91 91 93 88 84 87 83 90 81 82 88 83 56 55 48 53 56 50 44 44
71 72 72 69 70 70 68 64 67 70 68 56 61 79 56 51 53 52 50 48 60 79 85 85 89 96 97 95 96 84 86 75 88 83 80 83 83 64 48 59 58 54 49 45 40
71 72 71 70 68 61 76 86 89 92 82 72 68 65 51 57 50 59 47 64 75 84 88 88 99 99 96 88 82 56 65 83 69 71 76 86 83 68 61 65 67 63 53 48 40
70 72 69 66 64 69 79 94 66 70 89 66 58 53 45 68 76 57 60 80 87 90 90 98 97 80 75 76 78 57 85 87 76 75 72 80 81 73 59 61 64 62 57 47 43
68 70 66 65 69 78 85 77 64 65 92 64 57 63 61 69 78 80 74 76 89 95 94 98 84 78 86 86 84 64 72 79 75 74 76 81 90 87 59 53 51 51 49 45 41
69 67 61 67 82 75 76 66 64 68 98 79 79 69 64 78 83 70 75 79 87 95 99 97 86 83 83 83 67 69 44 56 74 89 98 83 91 72 54 54 53 50 52 49 46
69 65 64 68 86 77 69 67 68 80 94 73 84 60 60 74 71 82 79 84 89 92 95 96 96 89 86 70 58 52 50 64 76 87 68 75 79 50 54 61 56 52 51 51 46
70 71 73 76 78 69 66 69 81 94 88 84 72 76 71 72 79 76 86 89 84 79 82 88 90 89 84 75 43 56 57 64 70 67 90 64 63 56 61 51 53 50 52 48 48
74 72 76 61 82 70 68 89 99 96 65 80 77 84 82 83 75 74 82 85 89 92 99 97 93 80 81 67 60 54 65 95 90 90 80 50 56 56 40 38 37 50 43 51 57
75 73 74 58 73 72 83 99 86 61 71 69 76 82 78 74 64 58 74 85 73 84 95 98 94 93 74 64 69 66 56 82 85 94 75 51 57 41 40 36 30 29 32 34 35
77 90 86 77 70 81 97 94 90 81 59 77 94 96 89 81 76 78 80 79 67 79 96 99 100 83 73 64 61 66 81 56 67 68 85 66 56 40 39 36 39 40 43 47 46
97 94 85 74 76 88 99 88 84 61 64 67 88 90 89 70 86 94 83 75 70 67 82 87 98 83 67 62 58 64 57 69 87 73 70 69 56 49 44 45 45 47 47 47 48
93 95 86 75 87 98 97 92 70 54 58 62 75 89 77 86 89 84 88 80 70 66 67 79 79 86 74 87 81 74 78 68 68 82 86 66 56 38 41 44 50 46 43 47 50
94 98 80 86 99 95 98 68 65 58 58 56 60 65 92 82 76 88 90 89 70 68 73 73 91 95 95 80 69 77 67 61 82 78 79 81 60 41 40 44 43 42 43 48 51
89 99 80 87 98 92 73 74 63 60 60 51 60 57 59 66 78 79 85 71 66 66 82 74 91 95 92 74 69 83 70 62 70 77 88 76 58 39 38 36 36 44 47 44 43
83 97 98 97 89 91 84 80 78 68 61 53 55 56 58 65 60 76 73 75 72 66 68 67 85 84 91 82 76 86 70 64 73 93 79 74 54 48 42 42 45 48 50 50 47
87 90 86 98 96 91 80 70 71 75 65 57 61 60 54 67 65 75 66 79 74 72 72 73 86 83 70 66 76 74 72 71 79 72 80 62 63 57 57 55 55 59 60 56 54
86 89 84 88 79 90 78 73 64 75 73 64 65 62 70 76 81 70 69 72 81 78 82 72 92 84 88 65 66 79 67 67 66 66 67 66 65 54 59 66 64 67 59 57 56
74 70 72 79 86 84 85 70 71 75 74 67 71 74 80 77 73 70 60 58 67 76 78 79 87 94 91 68 68 76 65 66 68 64 63 73 62 65 70 66 69 73 72 70 63

GFSSW_sfc_rhum_072.txt.gz
RH
67 67 68 68 68 63 60 62 66 61 62 64 62 61 61 62 64 70 78 68 61 57 55 64 66 61 68 82 81 85 94 81 74 62 52 44 50 53 51 61 85 86 81 68 63
68 68 65 66 70 68 62 58 62 65 60 64 64 62 62 64 72 84 60 51 48 55 67 72 77 73 90 88 85 95 92 81 54 62 60 58 57 52 59 76 95 97 91 69 77
67 70 70 69 71 72 66 63 59 62 68 63 64 62 63 65 85 76 51 49 49 59 73 74 71 74 95 81 90 79 87 67 53 61 61 69 58 50 60 69 86 90 88 85 93
68 69 73 68 70 70 68 67 64 61 63 71 65 64 64 73 64 65 53 45 44 70 76 70 78 84 82 91 80 92 70 62 66 58 60 74 64 63 64 60 65 84 88 86 90
69 69 72 69 70 69 68 66 65 60 62 68 70 62 72 84 77 54 46 39 45 68 74 78 85 77 93 84 82 89 77 68 58 62 71 67 76 69 62 55 71 87 87 95 92
70 70 72 73 70 71 70 67 63 60 61 67 69 61 83 91 48 49 43 43 46 68 78 78 83 69 83 86 81 78 73 72 70 65 77 76 76 73 60 55 62 84 92 94 91
72 71 72 73 70 68 69 67 66 59 60 66 72 67 83 79 49 48 42 46 49 56 80 78 82 94 85 83 70 68 84 80 78 74 71 81 84 75 67 54 50 63 79 86 88
74 71 73 72 68 67 70 69 68 62 59 64 69 76 93 51 54 49 44 49 50 53 62 78 85 86 88 82 76 76 78 89 73 76 78 85 86 73 72 63 61 55 59 63 76
76 74 72 71 68 69 71 68 64 64 64 68 84 87 88 46 58 46 46 52 50 62 74 71 85 86 93 92 88 89 87 86 89 76 94 74 86 66 64 62 61 60 58 53 56
80 80 73 72 70 70 65 66 68 69 69 60 65 88 68 57 56 52 50 54 64 80 86 86 90 96 98 93 98 82 91 76 94 92 86 87 87 83 67 62 62 57 59 55 47
82 77 73 71 70 63 77 85 88 93 83 81 74 72 58 56 54 61 50 65 76 85 87 84 99 99 96 81 89 86 81 80 88 83 81 88 80 79 74 64 64 63 55 52 49
81 75 72 68 65 66 81 91 74 71 84 69 70 63 55 68 75 62 61 79 88 95 90 95 98 79 84 84 86 86 75 89 73 85 79 88 82 79 83 71 67 60 62 55 50
84 73 72 65 67 81 87 80 70 68 94 72 68 66 68 66 84 78 73 74 85 83 86 95 82 69 80 82 94 92 74 87 89 78 81 81 88 85 70 61 61 58 62 60 52
81 73 70 66 81 83 86 66 72 70 94 85 85 72 72 71 84 71 76 78 91 94 96 98 85 78 82 90 86 98 70 69 87 93 96 79 92 83 65 63 59 57 60 59 55
81 71 67 67 86 85 71 71 72 76 94 75 83 62 67 79 77 83 80 86 95 97 98 98 92 88 92 91 76 60 63 64 77 97 96 95 90 58 61 68 59 57 56 55 56
75 72 71 81 85 75 69 72 81 88 88 88 78 79 78 78 82 84 88 91 82 95 87 92 82 81 82 72 69 58 75 78 76 86 98 79 83 54 63 57 52 55 53 52 54
75 75 77 66 84 72 74 89 92 89 61 90 84 83 84 83 83 86 88 91 93 98 99 98 96 90 86 80 74 67 78 99 98 98 88 61 67 50 40 38 51 53 54 62 65
78 76 74 65 77 76 89 93 84 66 82 75 81 79 88 81 75 73 72 82 78 83 100 99 99 96 74 73 87 69 62 84 88 92 78 55 67 42 40 37 39 41 41 40 39
80 87 86 82 74 86 92 96 84 80 66 88 87 89 90 82 83 82 84 82 77 83 93 95 100 83 73 68 63 69 81 60 70 72 76 60 48 41 39 46 47 48 49 53 52
92 93 89 80 80 94 91 92 87 67 71 90 95 91 91 82 90 89 89 82 74 72 80 89 96 87 76 62 61 60 54 70 86 79 73 71 61 52 47 53 52 52 53 54 53
92 95 91 81 87 99 99 94 74 60 62 66 84 80 88 88 87 89 90 82 74 67 74 80 81 86 78 91 92 74 74 72 72 83 79 70 55 43 46 50 53 53 52 52 52
93 98 86 85 98 96 98 74 65 62 62 62 62 75 86 88 91 91 94 92 81 74 80 87 87 97 95 81 77 82 82 70 78 77 85 78 55 45 42 52 51 53 52 54 55
97 98 90 86 98 91 76 72 65 65 61 57 64 60 72 88 90 90 88 82 74 75 85 77 91 96 83 71 70 84 71 64 72 82 86 74 60 41 43 44 50 52 51 50 50
92 98 100 99 87 86 83 85 77 66 62 53 57 54 62 65 76 87 82 74 77 72 67 71 86 80 88 79 78 87 79 71 72 90 80 77 57 56 57 53 55 61 64 62 58
87 91 86 95 96 91 83 80 78 76 69 62 65 62 60 76 71 77 76 82 76 71 73 76 86 85 80 74 80 81 78 77 82 74 76 61 56 65 59 58 65 70 62 57 59
96 94 89 94 89 90 83 85 76 83 70 69 68 76 72 80 81 78 73 76 86 84 84 77 94 84 86 68 68 80 74 75 77 72 74 68 68 63 70 73 71 71 72 74 71
86 75 76 87 94 86 84 78 73 79 76 72 74 79 81 78 76 76 64 70 75 81 84 82 88 92 92 73 64 75 66 72 73 72 68 77 66 72 76 75 76 73 69 69 66

GFSSW_sfc_rhum_075.txt.gz
RH
70 69 68 66 66 72 66 62 60 63 65 62 66 64 62 62 65 73 80 64 68 57 54 66 69 66 72 87 82 87 96 85 80 72 60 43 46 52 56 68 88 78 83 71 79
72 70 70 69 69 72 72 68 61 60 64 65 63 65 62 64 76 86 65 51 54 50 70 75 82 76 88 90 86 90 89 68 68 66 55 55 56 55 64 91 97 94 89 82 86
74 73 69 72 71 69 69 70 68 58 62 64 69 64 63 67 82 78 54 55 48 58 72 75 74 78 90 84 88 86 86 57 58 58 62 66 64 54 64 80 84 84 82 93 91
78 76 70 74 69 69 68 68 67 63 62 62 72 66 64 75 43 62 52 47 44 68 75 76 83 87 91 90 73 91 69 69 61 59 64 68 69 62 68 60 64 77 68 78 89
86 80 73 73 72 71 70 70 66 64 63 62 70 69 71 87 80 50 51 46 54 71 74 80 90 86 85 89 81 83 81 64 69 62 74 69 75 77 73 61 85 87 75 77 85
91 84 79 72 76 70 68 68 66 64 61 62 68 66 82 94 46 44 53 46 48 72 79 82 87 84 78 70 87 77 74 73 67 73 70 65 83 79 65 57 94 90 90 84 83
91 87 80 78 76 70 66 66 64 64 60 59 66 69 82 81 52 51 51 49 50 59 84 80 78 87 80 76 64 78 92 75 73 80 73 74 75 78 76 73 89 94 92 89 92
94 89 80 82 73 68 67 67 67 67 62 61 67 75 90 54 61 57 51 55 50 56 67 78 76 78 90 79 87 92 86 85 65 81 73 73 76 76 77 82 73 83 88 91 93
91 88 89 78 71 69 69 68 65 63 62 62 81 87 88 53 65 53 48 54 54 62 67 67 81 91 92 98 98 86 98 86 82 76 85 85 85 85 78 76 76 76 74 66 79
91 89 86 78 72 69 65 65 67 67 71 64 70 92 77 60 58 55 54 57 71 74 84 85 90 99 98 99 94 85 93 77 80 82 78 89 80 86 89 72 71 70 72 62 59
93 89 86 81 71 69 77 81 89 93 83 84 78 78 62 57 59 64 58 73 75 83 89 86 100 99 96 94 84 72 88 78 88 81 87 88 73 73 86 86 74 72 63 58 56
94 89 88 78 68 65 81 88 76 71 84 74 76 73 61 68 80 68 64 80 91 97 88 90 97 80 82 91 92 74 91 86 86 86 88 86 86 82 87 84 69 72 70 59 54
94 91 86 72 65 81 88 78 74 69 92 72 74 72 72 71 81 82 75 80 91 82 78 94 79 69 84 87 94 90 86 91 85 85 76 88 94 88 82 87 66 68 65 62 58
94 89 81 72 78 85 87 68 74 68 92 81 88 74 73 72 85 72 79 79 94 93 86 98 84 76 82 88 79 85 78 79 87 94 99 84 95 90 73 83 73 67 68 64 64
93 89 79 74 83 86 74 76 77 66 89 69 85 63 72 79 80 84 85 83 89 92 98 98 97 87 78 80 72 78 69 86 84 96 98 94 88 60 67 74 77 66 65 61 57
91 88 79 80 87 78 74 75 77 87 81 89 79 83 86 79 81 89 87 89 83 97 98 97 81 76 71 75 78 75 77 83 88 99 99 98 85 56 68 59 55 55 60 56 54
92 85 84 74 84 74 78 87 93 91 61 94 87 85 86 84 82 83 86 92 98 99 99 96 92 87 77 95 80 80 92 99 98 98 94 75 91 63 43 45 49 53 56 55 63
90 88 83 63 78 76 86 94 87 66 83 80 83 85 92 86 78 79 77 99 80 96 100 94 99 89 77 82 86 78 64 93 92 93 79 62 82 49 44 45 51 52 50 48 48
89 97 93 84 75 83 92 96 83 76 78 86 82 90 90 82 86 84 87 87 79 86 97 98 99 87 80 75 69 76 82 58 72 69 86 68 50 43 44 51 49 54 53 56 56
97 96 92 79 81 91 95 88 91 72 90 79 85 83 91 86 88 90 90 83 82 70 77 82 94 77 74 65 62 64 56 70 86 88 76 70 66 57 51 53 55 55 57 57 57
96 97 91 83 85 98 95 94 78 63 67 86 89 93 90 88 87 90 92 80 81 74 77 79 83 82 78 91 93 71 69 73 74 80 84 72 55 43 47 52 53 59 56 57 58
98 99 90 87 98 98 99 87 68 69 67 68 75 76 84 88 79 93 95 95 82 81 89 87 87 96 90 84 85 85 83 71 78 75 86 79 61 49 46 54 56 56 56 54 56
98 98 93 86 99 99 86 71 70 64 64 67 74 75 79 86 92 90 89 85 79 79 85 77 90 94 81 71 70 84 79 73 75 82 86 80 63 48 55 59 57 56 59 64 61
98 100 100 99 95 86 85 75 77 66 59 59 65 59 79 83 85 91 87 82 80 75 70 72 87 77 88 79 80 87 83 74 74 89 84 77 65 64 56 59 66 69 68 65 65
98 97 84 97 97 95 79 71 75 72 65 65 68 63 66 86 86 89 87 88 80 74 76 73 88 86 80 75 83 84 82 80 84 76 76 71 58 74 64 70 80 76 69 71 72
97 94 84 94 90 92 84 82 71 82 76 73 70 75 70 79 78 81 82 87 88 80 83 80 95 83 87 70 69 80 80 81 81 77 79 69 77 65 81 77 82 83 75 68 67
98 86 84 84 96 87 83 84 78 79 78 76 73 79 80 80 81 80 70 79 80 84 85 82 89 90 90 75 66 77 70 78 79 78 74 84 71 81 82 81 75 68 62 65 66

GFSSW_sfc_rhum_078.txt.gz
RH
82 80 73 70 70 69 72 72 68 61 61 68 63 66 66 63 66 75 77 56 73 56 56 69 72 70 71 88 83 86 94 85 70 77 69 50 47 39 55 71 78 79 76 71 70
84 83 77 73 72 72 71 69 71 66 60 62 66 65 66 65 81 88 62 50 47 52 70 80 87 80 88 89 84 94 96 72 56 58 68 54 55 43 60 86 88 91 83 67 79
88 86 83 76 73 77 70 68 68 70 64 62 63 73 67 69 74 57 56 56 48 63 69 76 77 78 92 88 90 89 90 62 58 62 66 69 65 62 61 82 84 84 91 77 83
88 87 88 79 76 74 73 69 68 68 64 65 63 71 64 71 59 57 52 50 46 67 72 78 87 90 94 92 83 94 74 69 68 61 60 65 66 73 75 65 64 73 80 78 87
86 91 90 85 82 76 76 69 68 66 65 62 62 74 62 87 76 47 52 48 64 73 73 79 92 90 93 90 87 92 78 73 64 60 66 50 62 74 75 68 75 76 82 74 84
84 86 91 88 85 85 72 68 65 67 65 59 60 78 75 93 50 46 49 52 53 74 78 83 86 84 94 87 77 81 78 71 70 68 65 68 61 86 64 81 75 85 90 77 83
82 88 93 90 86 83 72 66 65 65 65 55 58 74 82 81 55 52 52 54 54 67 81 79 80 81 84 83 68 70 86 83 69 65 78 64 76 84 84 80 77 94 80 88 85
82 88 92 89 86 82 69 65 67 65 66 60 59 73 91 56 65 58 57 58 55 57 70 78 80 76 85 73 81 90 77 96 74 66 78 78 76 66 88 82 85 83 87 82 88
74 86 90 89 85 80 73 68 66 63 63 59 82 76 82 54 72 61 53 54 57 58 69 68 78 82 86 97 99 87 97 92 80 65 72 80 89 86 82 79 80 82 83 74 88
77 83 93 90 85 79 76 62 69 68 71 64 69 93 80 64 60 57 52 60 70 75 78 85 93 99 99 99 96 87 97 98 79 81 78 87 88 93 86 84 90 84 81 78 68
79 85 94 89 88 80 76 83 89 91 87 79 77 81 65 59 60 66 64 75 76 83 96 89 99 98 92 94 91 98 80 88 85 86 84 86 88 83 90 89 91 81 73 69 64
79 86 92 88 83 77 79 84 78 68 88 81 81 79 69 67 78 70 66 80 94 96 90 95 98 78 77 93 97 99 84 97 92 77 83 82 87 85 86 82 89 83 76 71 63
77 84 91 88 82 89 86 77 72 68 83 75 77 76 72 73 74 84 74 82 93 97 89 92 76 73 78 95 98 94 85 94 88 85 83 82 85 90 82 84 80 83 73 70 64
76 77 91 86 86 85 88 73 74 64 92 83 88 77 76 73 85 74 78 83 86 93 87 92 71 85 91 99 84 91 90 83 87 92 98 84 98 92 82 88 82 77 72 71 68
75 76 89 77 86 86 78 76 75 61 86 67 91 67 74 90 82 85 82 84 90 90 96 95 88 90 94 81 78 92 80 82 87 96 96 98 99 73 77 86 82 79 64 65 66
78 81 90 91 92 83 76 73 69 86 82 93 85 91 97 87 80 82 88 88 84 99 100 98 85 78 65 76 87 82 83 85 94 94 96 99 92 63 90 73 66 67 71 67 68
76 83 90 83 92 82 76 79 94 91 62 94 90 87 89 88 83 87 91 98 100 100 99 98 91 83 83 88 82 81 82 99 97 98 98 95 98 69 52 45 52 55 56 59 60
81 86 88 82 85 81 82 87 92 67 87 82 83 87 93 88 83 82 93 99 96 97 100 97 97 89 85 90 95 82 86 93 93 93 92 68 88 56 50 56 50 49 58 59 58
88 98 97 88 84 81 90 97 83 76 80 89 82 90 88 84 90 84 93 95 85 86 94 99 100 92 90 76 70 73 86 61 75 68 92 70 52 45 48 55 53 55 53 59 58
99 95 96 92 76 81 96 86 88 74 85 76 86 84 85 87 89 89 90 83 84 82 85 92 98 82 72 70 67 62 55 70 88 88 79 66 65 58 52 61 58 63 66 66 65
95 97 98 89 84 96 98 93 85 70 81 83 91 88 89 87 90 91 92 80 87 82 83 83 84 83 74 92 94 71 72 76 73 80 77 71 56 47 49 56 65 66 65 66 70
96 100 98 87 99 95 98 86 71 75 71 74 76 77 86 88 80 93 95 96 85 87 90 86 87 97 89 83 85 88 82 66 78 76 84 79 59 55 53 58 59 62 63 68 69
98 99 97 94 99 98 91 81 74 70 71 72 81 73 78 88 93 92 91 85 82 81 87 77 87 92 80 71 74 82 80 76 75 78 86 80 68 55 67 61 59 67 72 70 71
98 99 99 99 90 91 89 83 85 70 65 60 67 73 84 87 87 92 88 83 82 78 73 71 86 77 86 76 81 86 84 79 73 87 84 74 74 72 70 66 77 77 75 77 80
97 99 96 99 97 97 91 78 79 80 67 63 70 69 76 90 89 90 89 84 79 76 78 73 89 87 82 79 84 84 84 82 84 76 73 72 69 67 62 73 83 81 83 72 68
98 98 93 88 83 94 85 75 75 87 75 79 73 79 77 80 80 88 85 87 89 79 83 80 94 84 86 71 66 81 78 85 83 81 77 69 77 75 82 85 89 85 69 66 63
99 90 77 81 91 95 84 77 74 75 79 79 74 79 77 82 80 80 81 83 83 87 86 83 88 90 90 77 68 75 76 82 84 83 81 81 70 84 86 85 80 68 61 64 67

GFSSW_sfc_rhum_081.txt.gz
RH
85 84 81 81 75 73 71 71 69 70 65 61 62 67 64 65 67 74 75 47 70 54 57 63 63 64 63 76 74 73 91 81 69 70 56 50 51 47 44 39 55 54 43 63 80
84 83 85 84 80 81 74 72 67 66 71 65 62 64 73 66 78 83 59 46 48 46 62 71 76 70 75 79 75 86 90 70 53 50 55 52 52 46 54 46 49 64 69 73 91
81 86 84 86 84 84 82 71 68 66 67 64 63 64 76 65 55 39 54 56 49 59 67 69 70 72 83 79 81 80 84 59 55 56 56 61 62 49 54 56 40 50 78 84 89
80 82 83 86 88 82 85 80 69 67 67 64 65 63 67 63 76 45 51 50 55 64 66 71 79 83 90 88 78 85 68 68 64 58 62 65 54 59 72 46 34 46 70 77 82
80 81 82 87 89 84 88 80 68 65 66 64 61 65 63 78 68 41 51 49 66 68 67 72 83 84 89 82 79 86 69 62 63 64 62 56 64 59 61 64 64 54 76 76 74
75 74 79 85 91 87 86 75 67 63 64 64 57 71 70 91 51 45 48 53 56 67 74 76 77 78 87 86 81 68 71 65 61 60 62 68 61 67 55 73 70 65 72 74 71
69 69 77 86 91 88 84 73 64 68 62 61 54 73 80 77 49 56 52 55 54 67 74 76 72 76 78 72 73 69 80 67 63 72 61 64 71 71 56 72 74 73 74 73 72
66 69 78 88 89 88 83 75 70 67 64 63 57 74 88 57 62 59 53 56 54 57 67 72 78 79 80 70 69 76 81 86 52 64 59 69 74 53 75 70 78 77 75 72 80
73 70 76 82 92 88 81 76 72 67 62 59 82 78 83 52 73 62 53 56 51 56 66 62 80 81 80 91 86 80 85 83 66 63 58 73 72 58 78 74 77 75 76 77 80
70 70 80 83 92 87 80 69 72 70 73 64 68 85 70 64 59 56 58 54 65 70 73 80 88 99 96 99 95 78 91 77 75 64 67 69 76 90 83 74 79 80 75 72 75
67 73 77 88 88 85 84 91 88 90 87 83 79 76 64 58 57 66 65 72 68 76 81 85 100 95 94 87 90 99 97 81 66 59 71 74 79 78 81 90 94 91 79 71 66
67 71 75 92 87 83 78 87 82 75 93 81 77 77 70 66 75 68 65 81 92 92 91 91 96 72 71 93 97 96 92 90 87 55 69 76 76 86 84 82 92 86 80 75 62
68 71 72 81 85 92 90 84 80 69 83 74 80 80 72 71 76 82 73 78 93 96 93 95 72 70 76 96 100 99 94 84 94 80 80 78 84 82 69 70 79 77 81 74 64
68 72 71 82 90 91 91 75 74 64 92 79 88 76 77 71 85 70 70 77 86 91 91 90 74 80 81 99 99 90 75 70 78 84 99 83 94 85 77 70 75 70 69 70 75
67 70 72 79 90 89 82 78 80 65 97 76 92 67 78 84 80 85 76 81 84 87 98 87 95 88 95 99 87 94 78 83 84 90 86 89 84 77 76 83 77 72 65 71 67
68 69 82 92 92 88 84 76 67 89 94 93 90 96 98 91 82 86 90 85 91 99 100 98 81 90 77 75 88 82 76 82 88 87 95 95 78 68 80 71 63 68 63 66 75
70 73 79 88 94 90 84 80 96 97 64 97 95 90 90 90 89 91 91 99 100 100 99 96 89 84 82 80 80 86 74 95 93 95 95 98 95 66 47 41 48 60 64 66 69
86 85 78 79 93 90 92 96 98 69 79 82 85 88 91 86 84 85 89 99 97 89 99 97 94 89 83 90 91 84 92 85 89 90 92 83 88 56 50 54 52 47 57 65 64
87 96 94 97 92 90 96 99 88 74 78 91 78 87 87 84 88 83 88 97 84 85 98 98 96 83 85 83 86 87 92 64 75 70 81 68 54 44 49 57 55 55 54 53 52
98 95 95 93 90 93 99 90 81 67 81 74 82 82 83 84 87 88 86 95 96 85 82 95 100 79 73 79 78 70 57 68 85 86 94 73 55 59 57 62 58 60 64 66 64
97 96 99 92 94 98 100 90 80 71 80 80 91 91 85 87 89 90 93 78 85 84 85 82 83 94 74 91 94 69 70 69 69 77 81 75 55 49 50 58 65 65 64 65 66
97 99 98 93 99 99 97 81 72 82 78 78 74 83 84 88 89 94 98 95 84 89 88 84 79 96 90 79 81 87 75 60 72 74 75 68 56 57 51 58 60 66 66 66 69
99 98 98 97 100 99 80 84 73 72 77 78 83 73 80 88 91 92 91 82 84 84 89 78 84 91 79 68 71 81 75 72 69 71 79 69 60 59 63 60 65 69 70 71 70
98 99 99 98 94 86 87 76 80 69 66 64 79 80 83 88 85 90 88 84 82 83 72 66 84 75 82 75 80 80 77 70 65 79 72 64 69 66 64 70 74 71 74 71 63
98 99 97 100 98 94 93 78 78 80 68 66 71 78 80 90 90 90 88 80 75 76 77 72 89 88 78 74 80 80 80 78 79 69 66 62 68 64 63 74 74 77 72 62 58
98 98 93 92 84 94 87 77 78 87 77 75 76 81 78 80 79 86 86 85 91 78 83 78 95 81 84 68 65 78 78 82 75 70 70 65 63 63 73 79 82 72 62 61 62
98 87 80 86 94 89 83 75 76 78 82 83 78 79 83 83 81 82 82 86 87 87 84 80 86 89 88 74 66 70 71 73 79 80 73 69 68 77 82 84 72 62 63 66 69

GFSSW_sfc_rhum_084.txt.gz
RH
78 80 82 83 82 82 79 76 72 68 66 67 62 62 63 68 67 56 53 28 40 49 54 50 46 46 45 53 52 50 66 52 39 33 29 21 24 27 27 31 26 24 26 22 42
79 77 81 82 84 83 83 78 75 66 64 70 65 62 64 69 63 55 41 46 47 44 49 42 39 48 43 51 54 63 60 44 29 27 29 29 27 28 32 34 33 30 29 40 67
79 80 82 80 83 86 86 80 78 67 64 66 61 63 68 61 57 31 51 56 46 50 43 42 44 46 48 46 49 50 62 37 35 38 39 42 36 31 36 40 31 32 30 38 59
70 73 75 78 80 83 86 83 78 67 64 63 64 60 68 53 59 36 51 53 61 46 45 48 50 51 54 52 40 55 38 36 38 42 47 48 42 47 39 33 27 53 30 41 53
62 65 67 70 78 82 88 86 81 66 63 67 61 64 58 68 60 32 49 50 48 42 44 45 44 46 47 46 52 54 37 31 31 41 43 41 48 46 44 34 34 44 49 39 43
69 69 68 74 77 87 89 86 74 64 66 67 61 70 60 72 40 35 37 44 45 41 49 46 43 50 50 51 53 36 48 47 43 40 41 47 44 41 38 32 39 49 52 37 35
66 70 71 73 80 90 90 83 72 68 68 67 64 58 68 55 36 41 44 44 44 40 47 49 45 53 47 49 40 50 59 45 43 43 46 37 47 49 35 36 47 47 49 45 33
67 65 68 70 76 86 87 80 74 70 68 64 58 59 69 48 41 47 37 46 43 43 45 46 49 55 58 44 48 51 48 72 32 34 43 46 43 25 26 33 44 44 52 49 45
66 65 69 74 79 90 86 76 74 70 65 62 65 60 64 46 56 40 38 44 47 46 51 49 55 62 64 80 72 61 59 52 47 36 40 50 42 27 28 34 44 48 52 55 59
62 66 70 72 84 90 80 76 72 78 65 54 59 71 62 53 48 45 46 42 49 56 64 64 68 80 76 88 87 64 82 56 49 36 44 47 42 29 41 46 49 52 56 58 62
62 67 66 73 91 84 83 93 90 86 75 67 67 58 55 47 45 51 48 54 56 66 77 65 90 92 79 69 69 73 86 87 60 38 46 47 40 36 71 63 60 60 67 60 67
59 65 68 71 84 80 82 83 72 75 84 70 64 63 58 53 61 58 51 59 63 74 66 87 93 56 51 59 82 96 87 72 56 50 51 44 42 38 60 66 60 63 63 61 53
59 66 69 70 88 87 78 84 84 67 66 71 68 64 59 58 61 62 59 62 66 82 75 79 52 52 58 67 99 97 96 79 85 59 53 49 57 67 59 57 59 58 67 71 62
64 68 68 74 95 89 79 79 77 61 92 76 79 68 68 61 70 58 56 58 70 74 73 82 59 70 76 87 97 96 85 90 96 93 82 53 73 61 49 56 55 53 68 78 78
68 68 70 76 94 90 69 76 77 62 93 74 84 58 62 72 70 76 59 74 75 74 96 74 79 95 99 98 95 74 63 92 96 86 70 64 66 59 62 60 57 55 72 91 89
69 73 76 82 86 76 77 80 73 92 83 93 82 81 85 73 70 85 86 81 87 99 100 90 62 80 84 62 72 59 65 92 71 70 92 81 76 60 56 57 49 53 58 61 63
73 78 75 88 91 85 82 86 98 95 65 94 83 80 72 75 77 83 94 99 100 98 98 76 82 69 71 79 71 76 75 94 90 85 83 88 68 58 42 40 39 35 46 52 68
80 80 76 72 91 91 91 98 98 75 68 68 68 71 71 67 68 76 95 97 96 88 89 97 90 74 68 72 89 76 74 76 74 80 90 72 72 50 44 43 41 36 49 58 72
85 92 91 83 92 93 94 98 88 73 64 70 70 79 81 67 66 68 93 96 82 87 99 99 94 66 71 72 79 73 79 48 62 59 62 59 57 41 42 47 46 54 54 64 67
98 90 90 77 88 92 99 93 82 61 64 54 56 56 61 61 65 65 91 95 96 88 81 96 98 76 88 80 77 80 51 66 70 77 79 48 48 52 50 55 55 53 56 62 66
96 96 99 86 86 97 100 88 71 60 61 56 64 60 56 65 62 67 91 87 71 70 66 60 66 89 65 75 75 58 55 51 51 54 52 45 47 41 48 51 56 54 55 57 58
94 99 99 89 99 98 97 77 74 72 67 60 58 59 55 63 65 68 76 76 62 66 61 55 58 82 68 53 55 66 58 47 50 55 48 39 44 41 44 48 49 52 53 59 61
98 99 95 96 99 99 71 69 82 72 61 62 61 54 60 66 68 67 71 60 62 64 65 52 60 81 69 55 53 57 53 48 46 48 58 45 47 43 44 49 49 52 54 48 47
95 100 97 96 91 69 78 95 90 61 54 56 63 57 60 61 59 67 64 64 61 62 69 52 56 64 58 69 64 62 57 51 46 63 40 45 52 51 49 53 52 54 47 42 41
94 98 89 100 86 64 76 91 68 69 52 49 56 57 57 59 60 63 62 55 57 63 56 50 80 74 57 56 62 63 61 54 63 49 50 46 44 47 46 49 50 54 47 43 43
87 85 87 78 72 61 68 82 67 70 64 56 59 60 51 54 52 58 57 57 64 53 58 55 85 65 82 48 53 62 58 59 56 52 46 43 49 40 44 50 55 51 46 46 49
88 72 52 77 71 59 68 74 67 63 66 64 57 55 60 64 57 58 55 58 59 60 58 57 69 82 74 53 49 51 49 55 60 58 52 46 52 49 56 60 57 49 47 52 54

GFSSW_sfc_rhum_087.txt.gz
RH
74 77 78 80 81 86 84 80 78 74 68 68 66 64 63 64 70 57 49 38 31 46 55 35 34 33 31 40 39 39 54 44 36 30 24 16 16 16 16 21 20 19 20 19 45
74 78 76 76 80 82 82 88 81 74 66 66 70 62 63 69 54 48 48 49 41 46 38 35 31 34 32 35 40 49 50 39 24 20 21 18 19 17 17 20 23 24 22 20 45
66 64 67 69 72 76 79 88 84 78 67 68 63 62 66 61 53 29 55 57 44 45 39 33 30 32 35 32 38 40 50 32 26 23 28 32 32 27 22 27 21 23 22 22 35
69 68 67 67 69 71 76 82 85 77 70 69 65 62 68 49 50 38 54 54 56 39 38 37 36 41 40 36 33 41 31 30 30 28 31 38 32 34 31 28 20 27 35 37 31
66 66 69 70 67 74 78 81 89 77 68 67 66 67 60 54 45 35 47 53 40 36 35 34 34 34 39 28 32 37 35 28 23 24 26 29 37 36 33 28 25 25 34 38 33
61 66 65 69 66 74 82 86 85 74 70 72 65 68 54 55 34 29 28 44 39 38 37 36 33 34 39 34 36 28 31 33 34 32 30 32 33 31 29 26 28 30 31 34 35
59 62 67 68 69 74 75 90 84 74 69 68 67 52 55 45 31 31 32 32 38 35 37 38 36 44 35 39 29 32 44 40 33 30 35 34 42 38 24 23 28 27 30 38 39
60 60 67 66 69 73 77 90 78 74 74 68 67 48 51 40 34 40 34 36 37 34 37 38 41 48 50 41 42 44 40 48 28 24 26 35 47 26 20 18 25 28 31 36 40
55 58 63 66 69 76 88 84 77 75 69 64 61 53 49 50 49 35 31 39 40 39 41 38 48 53 54 70 75 57 67 44 34 25 27 32 41 26 18 17 20 25 26 31 42
57 57 62 67 80 84 84 82 83 72 66 57 51 63 48 47 42 38 34 36 45 45 54 58 66 72 64 85 78 52 56 48 44 31 28 37 38 30 21 17 24 23 26 33 42
62 59 61 66 73 84 82 79 86 88 70 63 57 49 47 40 37 44 41 44 47 54 64 57 93 87 63 50 53 58 59 55 41 35 52 44 33 27 23 41 33 32 33 36 43
65 63 64 67 71 84 83 78 67 74 84 60 52 52 43 41 56 52 44 60 60 67 54 78 91 52 43 45 54 66 76 70 52 42 47 62 35 28 25 43 48 46 55 58 46
67 64 68 70 83 94 92 78 82 74 70 67 58 53 51 50 54 59 53 54 60 61 64 82 53 46 50 57 73 80 95 79 87 54 54 47 45 33 26 42 52 47 50 57 56
68 67 68 71 90 90 93 70 85 66 96 73 71 58 57 53 62 45 49 54 58 66 63 71 55 59 68 86 90 97 65 88 95 84 74 43 58 32 34 45 48 45 48 59 64
69 69 67 71 74 94 86 66 74 68 99 68 69 48 56 61 64 68 49 62 75 88 84 68 59 68 85 95 93 82 88 83 79 73 88 55 65 38 37 45 44 42 46 57 66
76 74 70 66 66 60 69 67 67 98 98 92 73 80 72 61 64 76 81 80 88 98 98 92 60 65 66 66 73 76 96 96 81 93 95 76 82 63 54 49 45 46 44 64 86
78 78 76 65 72 67 71 85 100 99 64 87 76 71 58 66 67 81 95 99 100 100 100 65 63 59 59 94 68 78 97 96 98 99 72 61 94 58 45 42 38 35 52 80 89
81 80 73 59 71 81 83 99 100 74 87 57 58 58 58 57 66 90 96 98 88 88 85 90 87 62 54 67 82 74 76 95 84 78 80 79 97 90 48 36 37 38 76 86 90
86 81 81 70 74 93 96 100 99 82 57 56 56 65 70 56 70 69 76 83 79 70 99 95 95 59 65 70 77 75 98 70 94 65 78 88 70 51 70 49 60 66 79 82 91
95 90 83 65 87 94 99 98 80 60 49 42 48 42 56 54 75 68 74 94 89 80 75 86 97 81 83 71 68 83 62 71 70 86 72 50 55 67 80 71 64 75 73 72 77
76 93 90 86 88 97 100 100 92 57 44 47 45 45 45 56 55 58 72 83 78 72 66 60 69 84 88 84 68 64 54 46 46 47 70 45 59 43 54 74 67 67 73 80 83
74 99 92 86 99 97 99 92 80 69 53 49 45 41 43 49 56 54 65 59 52 55 55 46 54 71 58 46 48 55 45 39 50 48 40 40 58 42 46 62 55 61 65 63 63
97 98 93 86 89 98 70 89 89 74 56 52 48 44 48 52 57 54 57 51 51 55 55 45 52 76 61 52 49 47 41 36 36 43 43 48 55 39 44 49 50 53 50 47 44
80 100 96 91 78 61 67 96 92 55 48 47 51 46 46 46 44 56 53 52 49 51 66 55 48 60 64 69 59 58 46 36 42 61 38 42 55 47 46 50 49 43 39 39 40
71 88 75 94 67 50 67 84 56 58 46 42 47 46 44 46 45 48 48 44 44 58 46 46 72 72 48 48 54 53 52 45 56 37 44 39 41 43 42 44 46 42 39 40 42
58 66 62 57 51 47 70 52 51 57 54 48 50 44 37 48 42 45 42 42 46 41 46 44 81 61 85 43 47 51 45 45 48 43 38 38 44 35 36 40 46 42 42 43 44
64 54 39 59 50 46 63 60 57 53 55 52 47 44 54 60 50 47 44 44 46 49 46 49 63 81 70 45 45 50 45 47 51 48 50 42 46 39 46 49 50 45 44 46 47

GFSSW_sfc_rhum_090.txt.gz
RH
69 73 76 76 74 78 81 83 86 77 75 69 69 66 64 65 66 67 71 42 38 43 47 34 35 32 33 43 45 45 69 68 50 42 34 24 22 17 15 20 22 20 24 23 66
67 68 69 70 72 70 74 81 82 86 77 68 70 68 63 67 61 54 50 45 43 47 42 36 33 34 43 41 48 59 70 59 36 29 29 22 23 26 28 22 24 25 23 22 70
59 67 68 69 68 67 70 75 81 86 77 69 70 64 63 63 66 45 52 55 42 43 40 34 31 33 42 38 44 48 64 46 36 30 30 33 32 30 35 41 33 25 25 24 31
66 60 64 64 70 67 66 77 79 84 78 70 67 66 65 60 63 54 56 53 52 41 37 35 37 48 48 43 33 46 36 34 35 31 33 35 34 41 36 36 30 28 33 43 44
61 66 68 68 65 67 68 74 78 81 78 72 68 67 64 60 50 52 60 58 42 37 35 35 39 39 44 36 34 38 36 31 32 32 28 25 33 36 37 31 28 27 30 36 42
56 63 62 62 68 66 68 76 74 87 79 75 68 68 67 58 34 35 38 50 38 36 38 39 38 38 44 42 40 32 36 35 34 36 38 37 34 33 30 30 29 29 32 32 36
56 56 56 59 66 66 67 72 76 88 76 72 68 56 59 48 31 30 28 41 39 36 38 39 40 50 46 50 35 36 49 44 41 39 40 34 46 43 32 28 28 26 28 30 33
62 58 57 59 63 67 78 74 88 78 78 73 68 53 59 39 35 36 32 34 38 35 38 44 46 52 56 47 49 54 52 65 41 36 34 37 48 34 30 31 31 26 24 30 39
63 62 62 60 66 82 82 87 82 80 81 75 68 63 55 51 47 35 32 39 41 39 46 36 52 60 58 76 82 68 80 62 47 32 33 35 41 31 27 26 26 26 22 27 38
66 64 63 61 66 83 85 84 87 78 68 55 52 67 50 48 43 37 33 36 48 50 54 58 70 81 72 92 94 72 67 58 54 39 38 45 39 32 28 26 27 22 20 26 32
67 65 65 64 67 71 88 88 91 96 83 70 63 49 44 39 38 43 38 44 46 50 65 64 94 92 71 67 70 72 78 71 56 40 44 53 49 46 36 30 32 32 27 26 33
67 68 65 66 69 79 92 98 80 75 94 60 50 46 41 40 54 50 43 58 61 77 61 75 88 61 50 53 59 63 76 81 62 52 54 58 63 47 41 33 35 53 48 63 59
73 69 66 67 71 91 91 96 92 73 80 75 64 56 52 50 50 57 54 55 64 61 58 72 59 49 56 65 80 83 87 87 87 71 65 71 82 59 44 30 50 60 62 64 66
72 68 68 67 79 93 92 92 88 75 98 87 79 56 54 52 59 48 51 55 62 66 60 70 58 60 64 84 88 97 68 83 95 98 93 60 89 55 37 32 49 58 66 72 80
70 68 67 67 73 89 90 91 86 87 96 74 64 45 50 62 65 66 48 59 70 67 89 76 61 72 86 83 79 95 84 94 90 95 91 81 89 48 41 60 49 54 62 75 84
68 72 68 68 72 70 88 81 81 97 98 96 74 78 69 67 65 68 73 75 84 98 90 90 68 76 72 57 65 88 96 84 78 95 98 89 89 63 52 44 52 46 51 83 90
80 77 68 67 85 75 76 85 99 98 74 85 77 66 60 66 70 74 85 92 99 99 99 79 69 61 62 77 67 83 100 98 98 98 98 97 98 99 61 49 48 53 72 88 91
79 76 73 64 74 78 80 98 97 98 90 60 62 65 88 57 64 78 87 97 91 88 98 90 92 65 56 72 85 82 92 99 96 97 96 94 99 98 85 51 43 66 89 88 92
77 86 81 71 75 84 93 99 100 99 63 59 59 74 73 58 61 74 81 75 72 77 100 97 97 66 68 71 76 82 99 91 99 96 99 99 100 86 80 86 91 93 90 93 91
91 86 82 75 80 90 98 98 99 73 46 48 54 46 67 60 71 85 82 86 75 73 73 81 96 78 76 70 75 89 73 84 95 97 94 95 91 99 95 95 87 88 94 92 88
72 94 96 82 85 96 100 100 88 53 49 52 43 46 53 60 67 68 79 83 75 75 71 76 88 88 84 83 72 79 68 65 55 66 96 72 96 93 95 94 92 92 89 90 86
81 98 94 90 98 98 99 83 81 69 52 47 44 43 50 56 57 60 64 64 57 58 67 59 70 88 70 56 55 60 56 48 80 71 69 82 97 77 73 80 85 87 86 88 88
97 99 88 88 97 98 84 91 85 58 50 46 48 48 49 53 64 58 58 56 57 60 67 63 75 92 80 69 59 60 48 46 47 66 68 84 87 54 80 62 69 84 78 77 76
84 99 92 93 84 71 86 90 74 59 48 46 49 49 48 53 51 64 58 59 56 57 67 68 62 80 90 82 70 75 57 49 64 88 71 77 75 67 65 63 59 57 54 52 50
69 86 76 95 71 63 72 73 56 58 50 46 53 48 48 56 52 54 54 49 52 63 64 61 82 83 61 55 63 61 58 56 65 51 72 66 65 62 62 64 57 53 50 51 53
74 77 76 60 50 58 70 55 56 58 61 51 53 47 48 61 63 55 53 56 59 53 59 54 89 81 88 51 57 62 53 57 60 58 49 52 61 47 47 59 56 54 51 54 55
67 60 63 63 55 58 65 61 59 59 59 55 58 54 64 68 60 55 55 51 58 60 58 62 82 91 91 61 58 78 56 56 61 60 66 73 66 54 61 58 59 56 53 57 58

GFSSW_sfc_rhum_093.txt.gz
RH
64 62 70 71 72 72 70 72 78 85 78 75 73 70 65 64 66 72 82 58 48 40 41 48 43 42 43 49 51 56 85 89 73 58 48 33 31 26 28 30 26 26 29 57 77
65 62 61 65 68 69 67 69 74 82 87 79 70 71 67 64 73 73 54 42 45 44 54 53 45 44 53 52 52 70 91 77 55 49 45 34 38 38 39 41 40 36 30 41 81
59 65 64 69 65 64 69 65 73 80 86 79 71 71 66 67 80 72 50 49 44 42 51 41 38 40 52 50 51 57 78 59 51 46 41 40 35 34 46 49 43 42 35 31 49
58 58 64 64 67 66 64 65 68 74 78 78 73 68 67 73 79 67 56 45 45 52 50 45 47 57 58 54 42 53 41 40 43 37 38 40 32 33 40 44 36 35 34 34 38
60 56 59 61 60 64 65 64 71 73 80 88 74 69 70 78 67 56 57 54 51 50 47 44 44 48 54 50 48 50 46 39 39 40 38 35 43 37 34 32 31 30 32 34 35
64 58 56 57 57 59 63 63 68 75 85 80 72 70 74 72 55 54 60 59 40 47 46 46 50 48 54 52 52 43 45 43 42 42 41 42 42 46 38 30 29 28 31 29 31
67 64 61 60 59 60 66 73 69 74 83 81 78 58 63 58 36 38 45 58 48 46 49 50 50 58 60 62 50 50 62 58 50 45 46 41 48 46 38 35 33 30 29 30 31
67 65 63 62 62 66 74 80 74 74 89 85 72 63 70 48 39 35 35 43 43 41 49 50 51 60 65 58 61 68 67 82 53 49 46 50 60 38 31 34 36 33 31 30 31
67 64 64 64 64 67 83 83 84 86 78 75 79 80 72 48 49 44 38 49 48 49 51 37 58 68 68 84 92 82 91 79 63 47 47 50 49 38 30 32 34 34 35 31 31
70 67 65 65 65 72 88 90 92 85 78 65 53 74 59 58 52 42 38 47 57 61 65 64 77 93 88 95 92 82 86 70 72 54 50 56 52 43 38 34 32 29 30 29 29
70 67 67 64 66 73 91 86 88 91 92 74 72 56 51 47 43 48 45 52 49 55 72 69 93 98 86 80 80 84 89 92 73 60 60 60 57 52 50 48 48 34 31 32 25
67 70 66 66 67 83 91 94 98 94 94 77 54 50 45 46 61 57 49 66 58 76 70 83 92 69 65 64 74 80 90 87 70 58 66 79 77 65 60 52 48 41 44 58 38
73 69 67 66 69 87 93 97 93 87 94 84 60 54 55 56 56 67 60 59 66 68 61 72 67 53 60 73 84 87 93 87 88 78 78 91 88 71 57 54 50 42 58 77 82
70 70 68 68 81 93 94 93 95 87 98 97 81 62 54 62 63 54 59 59 66 69 67 72 62 68 74 81 90 98 70 74 99 99 97 77 95 68 64 59 48 47 67 82 84
68 67 64 69 86 89 84 91 93 97 97 83 73 50 59 70 74 70 61 63 75 75 83 78 84 83 88 89 77 88 80 96 99 91 90 81 97 77 53 52 41 61 68 76 94
78 70 66 80 81 81 90 92 90 94 99 98 76 82 79 68 77 69 77 75 84 87 84 85 75 84 82 65 64 71 97 100 90 93 99 83 88 81 70 60 54 63 72 98 97
76 71 68 73 90 85 89 94 98 95 92 90 89 78 73 77 84 75 85 94 94 94 95 83 86 75 70 86 73 81 100 98 98 98 94 95 93 90 90 88 68 60 90 97 97
74 73 74 74 88 86 90 99 93 96 90 65 74 68 91 68 81 80 90 87 86 82 92 98 86 74 65 77 91 89 99 99 97 97 98 99 98 99 88 92 94 89 93 93 96
78 94 90 89 82 89 94 98 100 96 71 69 72 95 83 69 73 77 81 76 77 88 95 100 88 68 73 74 81 81 99 88 100 99 97 98 100 95 84 86 93 94 93 96 96
95 91 98 90 88 93 95 99 98 93 68 60 73 65 86 77 74 92 84 85 71 74 77 85 98 76 77 78 78 89 80 92 96 97 96 97 97 99 99 99 93 94 96 95 94
86 96 92 88 91 96 99 100 86 67 59 76 55 58 68 77 82 87 87 87 74 74 75 79 98 82 87 87 79 83 88 83 74 80 94 91 97 97 99 97 95 96 95 91 91
89 98 89 95 97 99 99 85 82 77 64 54 54 59 63 63 61 66 67 73 72 61 81 76 85 98 77 60 64 70 74 61 82 76 81 85 98 90 93 92 88 92 94 92 89
96 98 89 94 99 95 85 87 84 74 60 53 58 59 59 64 72 70 72 61 60 67 77 74 83 94 73 62 62 72 59 56 62 73 85 91 93 82 82 86 89 92 91 90 87
96 98 94 96 95 88 87 92 85 66 56 54 58 57 62 63 61 73 69 64 58 62 68 67 74 83 92 83 75 81 66 63 67 86 87 91 92 89 83 75 79 85 82 67 60
93 94 86 95 84 87 83 81 72 74 64 51 55 57 60 68 64 65 58 60 62 66 72 70 81 83 71 58 66 66 66 69 77 71 82 79 81 78 76 73 67 62 59 58 60
92 91 90 92 65 78 76 75 74 71 70 69 74 67 73 83 81 80 68 70 76 62 68 64 86 84 92 56 58 66 59 66 69 69 66 67 76 64 71 65 63 63 60 63 64
92 82 72 69 72 78 81 72 71 70 68 64 71 70 78 77 74 69 70 61 64 74 67 69 86 93 93 79 69 79 64 65 71 71 74 80 78 68 70 64 63 64 62 65 65

GFSSW_sfc_rhum_096.txt.gz
RH
58 64 64 63 67 71 68 68 72 79 89 80 75 72 66 64 66 76 86 70 56 38 38 52 45 44 43 48 50 61 86 94 81 70 62 41 43 38 36 42 40 38 41 35 47
58 59 64 67 71 64 67 68 66 75 80 85 80 75 69 66 77 81 62 45 45 41 53 51 44 45 56 55 54 73 94 81 62 61 59 49 47 38 40 41 45 42 35 31 39
63 59 59 66 69 66 66 65 65 69 76 87 80 74 70 70 82 75 52 49 42 42 54 47 42 43 55 51 55 62 82 67 58 51 49 45 39 36 37 46 45 47 38 35 40
63 60 56 58 59 62 65 64 63 68 73 88 81 73 70 76 74 69 53 46 44 54 51 47 47 55 59 55 48 59 48 44 47 43 46 48 39 42 37 34 38 38 36 40 38
66 65 65 55 56 56 58 61 63 64 71 86 86 72 70 84 74 59 50 52 50 48 47 46 48 52 59 56 49 54 46 40 41 42 41 37 46 46 42 37 32 31 32 36 36
64 65 64 65 59 59 58 61 63 64 72 85 80 76 70 68 63 58 60 53 43 46 47 52 58 50 56 56 56 51 58 55 52 49 47 47 42 48 41 36 35 34 35 34 33
70 64 68 63 62 61 65 68 70 70 71 89 77 57 60 59 58 64 62 60 49 47 56 57 55 59 66 66 58 59 65 62 54 54 52 46 50 46 33 36 33 31 29 33 34
69 70 66 64 65 66 67 69 80 71 72 86 74 67 69 48 41 35 38 50 46 48 53 54 53 61 66 63 66 73 72 82 55 55 52 53 59 41 34 37 37 32 29 28 37
66 75 72 66 65 69 87 85 78 72 84 77 83 75 67 48 47 41 42 54 52 51 52 41 58 71 68 86 86 80 86 82 69 53 55 61 67 48 39 37 37 34 32 32 35
69 69 69 66 66 78 84 82 80 89 78 66 63 81 65 61 54 50 45 50 57 63 66 66 84 92 90 93 81 81 86 78 75 59 59 68 68 52 45 46 40 36 33 32 30
64 71 67 66 67 86 88 98 88 91 89 83 74 64 66 54 46 50 49 57 57 66 82 78 93 97 84 84 74 82 92 94 74 60 69 73 69 60 52 51 52 54 46 38 33
71 69 66 66 79 82 94 93 98 84 95 70 60 53 46 49 62 59 51 66 67 79 73 84 94 72 70 74 80 85 91 88 74 62 77 84 85 72 66 62 54 53 61 53 41
69 69 67 65 81 90 92 98 95 92 95 87 61 52 58 56 67 68 58 64 61 66 70 76 68 58 63 76 87 90 96 89 89 71 74 87 82 78 62 62 58 53 56 55 53
68 68 64 67 80 94 94 95 96 93 99 99 81 64 58 64 71 55 58 65 68 67 71 81 67 68 78 86 85 95 74 76 86 98 96 82 93 70 62 67 65 62 64 64 85
70 67 68 73 83 89 86 93 93 96 96 96 84 55 63 74 74 74 65 65 73 73 82 78 86 86 90 86 82 85 78 82 97 99 99 82 97 78 57 56 63 45 56 88 98
70 72 68 81 89 87 91 93 91 88 99 97 76 82 75 74 78 76 76 74 85 86 80 86 79 89 84 72 72 64 82 97 99 99 100 87 91 81 96 90 92 61 84 96 97
73 71 74 79 89 88 90 91 90 95 94 95 91 86 80 80 90 79 83 91 86 88 90 82 92 84 76 88 78 83 100 98 95 98 94 98 91 85 90 91 95 85 94 96 94
74 80 83 84 93 89 92 88 91 92 93 73 73 71 79 79 82 78 88 90 87 82 88 93 83 78 75 81 87 91 98 99 97 97 98 99 97 98 86 79 83 92 95 95 96
76 95 95 92 89 90 92 95 97 90 70 75 78 88 92 74 84 78 83 76 77 82 90 96 88 70 69 74 82 86 99 91 100 100 98 98 99 96 80 85 91 95 95 96 96
94 95 94 90 95 92 95 93 98 87 69 74 82 73 91 86 80 93 86 86 71 77 76 87 99 73 78 78 79 87 81 95 96 98 96 97 97 99 98 98 91 95 96 96 94
95 95 86 91 89 94 98 96 91 75 63 71 67 72 75 80 82 92 88 83 72 73 75 87 92 83 86 88 79 84 91 90 82 79 96 94 97 99 100 99 97 96 96 96 97
94 96 82 93 96 95 99 88 85 82 73 64 61 61 68 72 83 82 84 80 74 75 94 77 89 97 81 65 68 76 77 77 87 77 87 90 98 94 95 95 93 95 94 94 93
96 98 88 92 97 96 87 85 89 73 65 59 63 62 63 69 75 76 81 68 74 73 84 78 88 95 70 59 63 79 70 67 70 77 92 93 94 73 80 88 91 92 87 89 89
92 91 90 95 96 94 90 90 82 64 58 58 60 58 62 65 68 79 74 69 67 67 69 68 82 82 91 78 79 82 68 70 72 90 90 93 93 88 84 86 81 79 81 66 59
92 92 88 96 86 89 88 81 76 76 63 64 66 75 67 77 71 78 70 65 63 68 74 72 83 84 74 70 66 72 65 72 82 83 82 83 88 84 82 79 81 74 66 64 67
89 85 92 92 77 80 81 79 78 73 73 73 77 72 78 84 81 83 80 78 79 65 76 72 86 86 92 66 65 66 59 67 76 74 73 79 84 73 81 78 71 69 67 68 70
95 88 76 70 79 82 84 78 75 73 71 69 74 77 78 78 77 75 72 72 74 75 70 74 86 92 81 80 73 78 64 72 79 80 82 81 78 78 74 65 66 69 68 71 72

GFSSW_sfc_rhum_099.txt.gz
RH
62 57 59 64 69 70 67 71 72 73 83 85 77 73 67 66 66 77 82 67 65 38 41 55 42 44 45 49 53 65 90 94 85 76 68 52 54 42 37 46 39 44 45 38 35
67 63 58 64 76 72 67 66 66 71 76 77 90 77 70 68 78 83 63 46 43 44 52 45 45 48 57 55 58 78 93 83 69 68 67 56 53 43 41 38 43 45 36 32 38
70 66 64 55 65 75 70 66 64 64 70 76 91 84 72 72 81 79 55 45 44 46 54 48 44 44 54 52 57 75 86 73 63 52 52 51 46 40 42 47 44 40 40 34 39
68 68 64 63 53 56 60 65 67 64 65 76 89 86 72 77 72 72 51 46 44 55 48 46 49 55 58 58 52 62 52 52 49 46 47 48 44 43 41 43 34 38 36 39 37
68 69 69 64 58 56 55 60 61 65 65 80 90 79 70 74 78 61 49 50 46 45 47 46 50 54 62 60 51 57 52 52 50 52 47 42 49 47 44 38 37 38 38 38 38
64 69 68 68 64 60 59 58 67 64 65 76 88 84 74 66 64 60 53 46 43 46 55 56 56 51 64 62 59 63 62 62 56 54 53 51 44 46 43 38 34 34 37 39 37
65 69 66 66 64 64 63 66 69 75 73 76 85 70 62 73 68 65 56 58 50 48 61 59 56 58 66 65 62 64 68 65 58 57 53 51 54 55 34 36 36 34 31 32 38
62 66 68 68 66 65 65 72 80 71 74 78 80 78 77 49 50 57 49 52 50 51 56 56 55 62 64 67 68 77 74 76 49 56 54 51 56 45 40 39 40 37 36 34 35
66 67 69 70 65 67 77 84 83 76 74 86 91 83 67 45 44 42 49 55 54 53 53 45 61 74 71 84 76 76 81 80 69 56 58 59 66 54 45 45 44 38 38 36 39
63 66 72 66 67 84 84 77 74 80 85 80 71 80 61 60 55 49 52 51 59 63 67 69 85 91 92 90 76 72 87 80 82 61 62 67 65 51 49 52 50 46 42 40 37
70 70 66 73 76 84 89 90 90 96 87 85 78 72 64 54 46 54 54 58 61 63 86 78 92 94 77 84 71 78 90 94 76 62 74 76 72 63 58 59 58 52 53 46 45
69 68 66 75 75 82 91 92 98 94 94 78 64 74 50 50 62 60 54 68 70 81 78 83 96 72 70 74 82 90 96 91 76 66 69 74 78 69 65 64 64 60 58 57 57
70 66 65 72 73 88 95 99 95 90 96 91 68 63 59 55 69 69 59 68 67 77 78 85 68 62 72 79 90 92 96 89 89 71 68 82 89 69 55 59 63 65 62 64 61
66 66 70 76 80 94 95 94 96 94 98 99 83 61 59 66 78 60 62 71 73 78 83 83 69 71 77 87 87 95 76 76 84 96 98 72 95 75 62 61 75 70 70 72 68
71 70 72 68 88 93 95 95 96 90 94 98 82 59 64 79 78 77 64 67 76 73 77 78 84 91 93 87 82 82 78 87 86 98 99 88 98 79 78 86 80 89 59 80 93
75 72 72 82 87 94 94 94 95 86 98 98 79 83 82 81 79 78 74 72 79 81 76 84 80 87 88 76 77 67 86 93 93 97 97 93 85 83 88 96 88 83 97 91 89
75 77 83 84 98 91 90 93 91 96 91 96 93 85 82 76 90 78 82 90 84 92 92 81 91 86 82 90 82 86 98 97 93 94 92 95 96 87 86 86 93 95 95 96 96
74 79 85 82 93 93 88 86 91 89 91 75 78 74 79 83 77 85 86 93 88 77 93 94 82 85 79 84 89 94 96 99 97 100 96 96 96 91 80 78 84 88 96 96 96
76 94 94 88 92 90 90 96 97 84 75 78 76 81 94 74 84 89 88 81 77 76 94 91 91 65 76 75 82 90 98 90 100 93 98 94 97 93 80 85 87 93 94 96 96
95 94 90 87 93 92 94 96 96 89 72 79 84 83 76 85 89 91 91 78 71 71 73 88 97 78 76 82 82 90 86 96 99 97 95 96 97 98 98 99 92 94 96 96 93
93 88 78 88 88 92 98 96 90 82 68 76 76 80 82 86 82 94 89 81 77 74 74 82 91 79 79 87 82 86 88 90 92 90 97 95 98 99 100 100 97 95 95 96 96
93 92 81 91 93 97 99 96 84 81 75 73 69 64 74 77 88 92 88 84 75 81 89 84 89 94 81 71 75 80 83 83 93 80 88 86 97 90 95 95 95 95 92 95 94
95 95 85 86 96 98 87 85 89 73 67 64 68 65 66 72 81 75 79 70 78 81 85 85 89 94 65 57 62 80 79 73 80 82 93 93 89 71 84 92 92 95 92 92 91
87 90 90 94 95 92 91 86 79 68 66 62 71 63 68 76 76 80 79 71 77 74 69 68 86 80 85 69 78 80 75 68 80 92 89 91 87 86 81 81 84 88 89 86 75
91 92 90 94 83 84 88 84 78 80 70 68 72 78 82 80 77 82 80 69 71 69 80 76 89 86 80 74 77 74 70 66 86 83 83 81 89 81 84 85 84 78 70 70 70
87 86 93 88 83 80 82 82 82 75 78 73 79 76 82 82 81 81 84 80 80 73 79 79 88 88 88 80 78 72 66 64 76 81 82 85 83 77 81 78 77 72 72 71 72
97 90 72 73 83 85 86 81 76 80 73 76 78 80 74 80 80 78 76 77 79 80 74 77 87 92 84 75 76 79 71 66 77 79 77 85 73 82 78 69 69 72 72 72 74

GFSSW_sfc_rhum_102.txt.gz
RH
72 64 60 58 68 70 69 67 66 70 76 88 86 75 69 68 65 77 82 65 65 37 44 51 41 44 44 50 59 68 85 90 81 83 67 58 58 47 39 49 39 40 47 40 35
68 73 64 60 68 67 70 69 66 66 69 80 92 76 71 69 76 77 64 45 44 45 47 44 52 48 57 56 62 80 82 75 72 71 70 60 57 49 45 44 45 40 38 34 36
64 71 70 62 62 69 66 63 67 66 65 69 82 86 74 72 75 82 57 46 45 52 51 45 44 47 55 54 59 82 83 75 68 59 52 52 51 45 48 52 44 44 40 36 38
65 69 71 72 58 53 54 59 63 63 63 69 86 89 80 73 75 71 50 44 45 49 46 46 48 55 59 59 54 62 58 56 52 50 53 50 45 47 47 46 36 38 40 41 39
66 67 70 77 66 55 56 55 59 62 62 65 89 86 81 69 80 62 53 47 43 46 48 48 52 58 63 61 54 59 62 57 55 57 54 48 54 51 49 39 36 38 41 43 41
64 66 72 72 66 62 60 59 59 62 56 68 89 75 78 84 60 55 46 42 46 53 60 56 54 53 61 67 60 73 66 65 59 57 56 55 50 50 47 42 40 38 36 41 39
62 64 70 74 65 63 64 63 65 67 68 74 87 81 79 91 67 60 54 57 49 55 61 60 56 58 66 64 68 70 64 61 56 59 54 52 53 61 42 39 39 38 36 37 39
64 66 68 72 65 64 65 67 70 72 67 75 86 93 95 78 60 47 48 54 52 52 57 58 57 63 66 69 62 75 69 58 43 57 53 46 49 45 40 42 41 40 38 39 42
64 67 74 65 66 76 76 79 78 76 68 82 89 90 96 54 51 45 48 55 56 58 56 49 63 76 71 74 68 72 70 76 66 59 60 62 58 56 49 48 49 44 42 39 39
71 69 67 74 76 74 80 82 79 79 88 79 74 79 63 62 53 50 53 53 61 61 69 70 82 90 91 83 67 73 82 80 80 63 65 71 67 53 48 50 51 51 51 49 44
68 67 70 72 77 81 85 85 89 97 86 88 88 81 60 54 48 56 54 56 57 64 88 78 86 82 77 80 63 79 90 92 79 64 77 78 74 65 57 60 65 65 61 55 47
67 66 72 73 75 79 88 92 98 92 97 80 63 61 50 51 62 59 52 65 67 81 81 81 91 72 70 74 82 90 97 94 80 69 71 76 77 67 64 70 68 63 66 68 59
67 71 70 70 73 85 94 99 95 92 95 90 77 72 64 56 69 68 60 68 71 78 82 85 70 64 71 84 90 95 98 92 90 69 67 79 91 75 55 58 58 74 73 72 69
71 73 71 71 80 95 95 95 96 97 96 99 88 65 60 67 82 63 64 73 74 80 89 85 73 74 82 85 86 100 78 78 80 93 96 81 95 79 70 84 79 74 83 78 80
73 71 77 72 93 94 97 95 94 94 94 94 80 58 68 78 76 76 65 67 72 81 75 77 86 90 94 89 80 81 77 82 85 98 98 91 97 83 81 78 86 84 94 89 89
79 76 70 82 88 95 94 95 93 85 98 95 81 81 81 83 85 77 72 71 78 76 76 81 81 86 85 82 78 69 88 90 90 89 98 86 93 83 94 93 83 84 85 86 93
75 77 81 85 95 92 93 89 89 96 90 95 91 86 77 83 88 78 86 84 84 88 92 79 88 88 83 92 86 83 99 98 92 96 89 95 96 85 87 82 88 92 90 94 95
73 77 84 83 94 92 89 85 92 87 87 80 83 72 67 84 84 90 92 96 88 76 97 98 81 86 84 84 88 88 91 99 99 98 94 94 96 96 84 77 80 87 91 92 95
74 93 91 83 90 90 89 94 96 88 79 79 81 85 94 83 87 89 92 87 76 73 93 90 90 68 80 77 84 92 95 85 94 88 99 94 98 90 82 88 86 88 89 94 96
94 94 88 82 93 90 94 92 94 88 73 79 83 86 86 92 90 88 92 77 72 69 77 85 98 76 77 84 84 90 87 93 88 99 96 92 98 98 97 99 95 95 95 93 92
91 85 75 87 90 92 98 97 90 84 69 76 81 84 84 88 86 96 92 81 77 73 71 81 92 79 82 88 82 88 88 87 90 96 98 97 98 97 100 99 98 96 95 96 93
88 90 78 86 92 97 98 98 84 81 78 78 73 70 80 81 88 92 92 82 77 83 89 82 85 91 81 78 75 83 84 84 95 84 90 93 93 85 91 92 96 96 95 93 90
90 89 81 83 96 97 86 84 87 76 70 68 70 66 72 80 85 88 82 75 80 85 86 86 92 95 60 54 70 81 82 80 84 86 90 96 84 77 87 92 95 95 91 89 90
86 89 88 94 93 89 90 86 77 69 71 68 76 66 74 79 78 79 80 74 83 81 71 74 88 84 80 60 76 80 78 74 83 95 87 91 83 85 86 84 88 88 88 94 90
92 92 89 92 84 85 87 86 80 80 74 71 73 79 86 80 78 79 79 71 82 70 84 79 91 91 84 78 78 76 75 76 84 81 84 76 86 76 83 89 89 88 85 76 76
86 89 93 88 84 81 82 84 83 80 82 78 81 80 84 83 81 83 84 81 80 77 81 83 89 90 93 79 85 82 75 75 70 80 81 84 85 76 83 82 82 81 76 76 75
97 90 74 77 83 84 86 82 79 84 76 78 81 83 80 77 78 77 76 77 79 83 77 80 90 92 89 78 75 78 77 74 71 79 76 86 75 82 84 75 73 76 75 75 76

GFSSW_sfc_rhum_105.txt.gz
RH
74 73 66 63 64 69 67 67 67 67 79 83 90 76 71 69 66 69 69 57 53 38 44 41 40 41 43 52 56 58 58 63 62 70 51 51 50 41 34 35 32 28 35 31 28
73 76 72 73 65 66 65 66 67 67 72 81 90 81 73 68 66 70 61 47 45 44 40 43 47 43 49 50 60 66 54 52 59 59 59 54 49 40 37 38 36 32 30 28 30
65 66 70 76 72 66 64 58 61 66 65 81 88 82 74 67 70 73 60 48 45 47 44 41 42 44 51 50 54 70 58 65 59 53 44 45 44 38 39 42 36 33 32 30 32
65 67 67 72 77 65 54 54 61 60 62 69 89 91 82 68 81 65 50 45 44 43 44 44 45 50 55 53 47 49 52 50 46 44 50 46 39 40 42 32 28 32 32 35 33
63 67 68 72 76 84 56 56 55 58 60 69 92 88 85 80 83 63 50 41 43 48 49 46 48 53 55 52 49 50 55 52 50 55 53 47 52 45 40 34 32 33 35 36 36
62 65 65 72 81 82 60 60 59 63 56 80 90 87 80 92 66 48 43 43 48 53 58 52 48 50 55 59 52 61 60 60 56 52 52 52 48 43 32 35 37 37 36 34 34
62 65 68 68 82 75 62 61 62 74 67 87 83 80 81 92 61 49 48 53 53 52 58 57 50 53 53 62 61 61 48 50 44 51 49 50 51 56 36 37 37 34 31 33 32
64 68 70 66 70 63 64 62 61 75 67 85 84 83 98 79 74 44 46 52 52 52 59 58 56 63 63 58 50 60 50 38 40 52 50 41 45 35 35 39 41 39 38 39 36
69 70 68 68 69 73 73 74 71 74 74 85 83 78 98 69 51 48 47 56 57 58 58 46 62 71 62 59 56 58 44 56 54 51 54 50 54 44 41 43 47 45 42 41 41
67 70 73 74 77 77 78 78 76 83 86 70 69 74 82 76 52 54 53 53 59 59 66 67 75 78 76 76 58 51 59 65 68 55 60 65 66 54 49 51 52 51 49 47 47
66 70 73 73 75 79 86 85 85 91 91 90 84 79 81 52 51 59 54 54 54 65 76 74 80 73 65 60 53 67 76 80 71 60 71 74 70 61 57 58 57 50 49 50 53
70 71 69 69 78 76 85 93 98 91 98 81 62 56 50 52 64 60 53 64 64 78 73 74 83 65 67 71 73 80 91 88 71 67 69 70 72 61 64 65 58 55 59 68 61
72 73 69 69 72 84 92 99 96 93 96 92 71 66 64 58 70 68 61 66 68 73 74 74 66 63 67 76 84 89 96 85 80 68 69 80 81 65 50 55 63 68 77 81 82
74 74 70 72 80 95 96 94 95 96 96 99 82 65 64 66 80 65 67 70 68 80 83 79 69 70 75 80 82 98 76 76 81 90 91 72 88 70 56 66 72 71 79 79 79
74 73 78 77 90 96 96 94 93 92 92 93 81 57 70 74 73 67 66 68 78 77 72 73 79 83 89 86 77 72 71 76 78 96 97 87 96 68 69 75 73 70 79 82 87
76 75 74 82 88 94 95 94 86 84 97 94 81 82 82 81 84 77 73 70 78 74 74 76 76 82 78 78 76 73 86 87 86 90 94 85 88 75 86 92 82 80 79 82 91
76 78 82 85 90 92 93 79 89 94 91 92 91 80 70 87 80 80 83 81 86 81 90 76 79 83 80 88 84 81 97 94 89 95 86 87 94 82 84 85 82 89 90 90 91
75 78 85 82 94 91 83 83 90 95 89 80 76 65 81 86 85 89 92 98 85 81 94 95 78 82 84 80 83 82 89 97 95 97 91 92 98 79 88 87 86 83 84 86 90
75 92 88 82 91 88 88 93 95 88 80 82 85 85 94 74 85 90 91 86 78 76 90 92 89 67 83 76 77 88 87 84 99 88 95 87 85 85 76 83 92 93 92 91 90
93 91 86 83 92 89 93 93 95 87 75 80 83 85 91 93 92 93 92 77 79 71 78 91 94 75 78 81 82 89 84 84 91 93 96 84 91 93 96 98 95 96 96 94 89
86 85 79 91 88 92 99 97 88 83 72 79 82 84 83 87 86 94 91 79 78 80 76 81 87 77 76 93 81 95 91 89 83 88 95 94 82 89 100 98 97 96 96 96 93
87 90 78 91 92 97 98 95 85 80 80 82 74 73 78 83 87 91 91 82 76 80 79 77 89 88 83 71 71 80 79 76 86 82 85 89 85 83 89 92 95 96 95 94 90
86 86 80 80 92 98 86 85 84 78 76 72 72 70 71 81 81 88 84 74 80 81 86 86 87 96 57 51 69 77 78 72 80 82 92 91 71 81 90 91 94 95 91 86 86
85 84 86 93 92 86 84 85 81 73 75 74 80 70 72 78 82 82 82 75 83 82 73 77 90 85 83 56 64 73 77 72 78 90 81 86 74 81 91 85 83 83 80 80 87
92 92 90 91 84 87 86 85 83 82 77 74 75 79 85 81 80 80 80 75 86 73 86 79 94 94 88 81 80 77 74 76 83 75 83 71 81 68 75 83 83 83 87 75 68
84 86 90 90 84 83 83 86 81 82 77 80 75 82 80 80 72 77 81 80 76 78 84 87 93 89 95 78 80 89 81 81 75 73 82 81 79 66 70 78 82 79 77 71 70
97 91 73 82 85 84 84 83 77 84 78 76 76 81 82 69 75 75 73 74 73 78 78 83 92 93 91 76 76 67 64 77 72 71 71 82 69 75 79 76 75 74 73 69 69

GFSSW_sfc_rhum_108.txt.gz
RH
70 70 72 70 65 70 70 68 66 69 77 83 90 77 71 70 66 51 44 46 37 40 40 29 31 33 33 42 44 42 23 27 34 34 33 37 36 33 27 27 22 20 22 20 17
64 65 67 71 75 65 63 64 63 66 76 82 90 80 73 66 42 49 58 48 45 41 30 29 39 33 35 42 44 33 26 25 32 34 36 38 36 30 25 20 19 17 15 16 18
65 66 67 68 80 78 64 59 59 62 64 80 90 92 73 54 47 58 59 47 46 37 29 30 29 29 38 38 43 44 30 38 43 43 39 35 26 27 24 19 15 14 12 14 17
64 67 67 69 78 82 59 54 61 60 62 76 89 85 83 61 68 55 50 45 43 32 31 30 26 29 37 35 36 34 43 39 39 37 36 32 28 26 24 18 14 15 17 19 20
64 66 68 71 70 73 74 57 54 57 58 80 88 79 77 69 74 47 46 39 31 33 33 32 27 30 32 34 34 32 36 36 34 38 34 31 34 28 22 17 15 17 21 22 21
64 67 66 71 73 79 79 59 60 58 55 86 88 91 80 89 57 36 32 32 34 34 36 31 29 30 33 37 32 37 40 34 36 32 35 36 29 34 18 20 22 22 23 22 23
65 67 65 70 72 87 67 60 64 65 74 87 90 89 82 90 53 34 36 39 38 32 38 38 31 30 30 39 42 38 29 29 32 34 34 36 33 38 22 23 26 28 30 30 28
67 67 67 68 76 72 62 62 61 69 75 88 92 91 94 75 48 34 33 40 38 38 41 40 34 42 39 36 30 29 27 19 28 37 40 37 26 23 21 28 31 33 29 28 27
68 67 68 70 70 69 69 70 67 70 83 85 88 74 92 59 44 37 33 42 41 41 40 36 41 44 38 32 31 25 18 24 26 40 41 40 38 30 27 31 36 32 28 28 29
68 70 72 73 78 78 74 71 77 84 85 77 84 79 83 70 47 43 38 39 43 45 46 47 46 46 39 52 56 23 26 33 36 36 43 46 43 36 34 36 38 32 30 30 34
70 71 70 76 78 76 78 90 76 91 81 88 82 81 75 51 40 44 42 39 41 44 48 53 76 63 52 38 41 47 50 50 35 42 54 48 46 41 39 39 36 36 36 39 42
71 70 69 76 75 75 79 81 95 85 97 67 63 62 45 42 51 47 39 44 47 55 52 55 73 52 52 55 56 57 59 49 45 48 54 51 52 44 45 45 45 47 48 53 52
71 68 69 70 72 77 87 97 86 79 95 88 59 56 54 45 58 56 48 48 50 58 54 48 54 52 53 61 67 62 71 59 70 57 46 57 50 46 38 39 46 43 50 56 58
76 74 70 67 71 83 90 86 82 85 95 98 70 52 51 52 57 51 51 54 52 64 62 59 56 56 58 62 63 73 54 59 70 81 79 53 73 40 39 40 45 47 59 66 63
71 76 76 67 74 83 83 76 75 82 89 94 70 47 54 55 54 51 52 50 56 58 57 68 62 64 69 76 56 60 58 63 71 86 84 65 85 44 42 50 58 52 67 74 81
77 76 68 68 68 73 75 74 72 89 95 86 69 64 58 61 63 56 55 52 58 60 59 61 60 61 59 61 58 56 73 77 76 79 92 74 73 48 52 74 79 66 77 80 83
74 76 68 68 68 74 71 60 95 92 82 76 67 64 60 64 65 60 64 64 74 93 99 60 59 63 62 69 68 74 82 89 90 95 73 72 91 69 53 83 79 90 85 81 83
76 71 74 61 68 74 63 64 90 82 75 67 61 61 67 66 64 67 64 65 60 58 77 86 84 61 65 64 62 60 66 87 95 79 68 77 97 62 68 67 72 83 86 82 84
70 68 64 63 74 67 56 96 94 68 64 64 64 65 75 63 60 60 62 60 57 55 79 92 91 53 62 56 62 68 78 74 94 81 85 68 81 55 61 65 76 80 93 94 86
74 67 65 67 71 67 78 93 76 63 58 61 60 58 62 65 62 61 66 57 60 56 55 69 97 57 62 64 63 67 71 75 81 88 79 58 62 76 83 95 86 90 95 94 83
58 62 65 73 74 63 100 83 61 60 56 55 58 57 56 62 61 64 63 58 55 60 53 59 64 59 57 64 60 80 74 72 60 62 72 55 55 75 84 84 88 94 94 95 88
65 83 69 76 77 81 88 62 73 54 60 59 50 53 54 59 62 63 61 59 51 54 58 62 64 75 57 52 51 54 52 50 53 59 59 61 60 62 73 76 78 92 94 89 85
69 74 66 71 87 84 67 67 63 60 58 57 56 52 50 56 58 62 59 54 58 56 58 62 67 80 45 50 53 57 54 53 54 60 67 60 38 58 67 71 76 88 86 82 77
52 86 61 67 68 54 58 63 62 59 58 57 53 52 52 56 56 57 57 59 61 58 70 65 64 64 47 36 42 51 48 55 54 70 45 50 36 41 61 66 67 68 63 62 58
59 76 69 80 60 61 60 59 60 60 56 55 57 54 51 52 54 54 52 53 65 67 67 63 80 72 63 55 56 59 58 53 65 57 56 37 46 34 39 50 52 53 54 59 58
56 57 62 58 61 56 64 62 60 60 58 52 54 57 57 52 46 44 50 52 45 62 66 67 82 70 84 48 53 65 55 55 55 53 52 47 47 32 32 37 48 52 55 60 49
75 62 47 66 60 50 55 61 61 64 58 58 58 55 57 54 54 50 49 53 54 54 58 64 74 81 70 52 53 50 40 45 51 51 50 55 38 31 51 54 52 51 53 54 45

GFSSW_sfc_rhum_111.txt.gz
RH
74 77 69 67 72 66 69 69 68 75 82 87 93 76 72 69 65 46 34 42 37 40 42 28 26 28 30 39 35 30 23 21 23 20 27 27 25 25 22 21 15 15 16 15 13
77 70 68 71 72 62 64 62 62 65 73 85 88 80 73 70 33 44 57 46 43 39 24 27 28 26 28 36 34 26 24 20 24 25 26 28 25 21 19 15 14 12 10 10 12
64 68 64 73 78 75 67 61 60 62 65 84 90 88 73 57 41 50 51 46 42 33 23 23 26 24 30 27 32 28 26 26 30 33 30 26 21 20 18 15 11 11 12 12 14
66 66 67 72 77 76 74 54 60 61 63 77 91 84 83 60 60 50 54 47 40 27 23 24 24 23 29 28 28 30 31 27 32 32 28 24 22 19 16 16 11 13 13 15 16
66 66 69 69 74 71 69 56 54 57 61 85 87 81 80 67 71 39 38 35 28 28 25 22 20 21 26 24 24 22 24 25 26 29 25 21 24 21 19 14 13 16 19 20 19
65 64 67 68 71 71 70 58 62 57 59 87 81 85 81 86 46 28 28 27 28 27 29 22 20 20 23 24 24 24 28 24 26 24 25 29 23 27 15 16 19 21 22 23 24
64 64 69 68 75 79 67 59 66 62 67 83 79 63 78 90 40 26 29 32 29 25 31 26 22 23 22 28 27 24 25 24 26 27 28 31 32 29 19 18 22 21 24 26 24
66 66 67 66 68 78 63 60 65 73 86 82 71 70 89 58 48 27 26 30 29 30 33 28 25 31 26 23 22 23 21 22 25 29 33 35 24 18 17 20 24 24 26 24 22
69 69 71 71 69 66 63 64 67 83 90 75 70 72 83 59 40 30 27 33 32 31 30 27 30 30 30 27 27 19 19 17 30 31 34 36 30 21 21 24 28 27 25 22 23
71 70 72 72 75 76 70 71 81 86 83 69 81 77 85 70 43 35 30 32 34 36 35 34 33 36 28 48 66 23 18 20 22 31 36 38 35 27 26 27 30 28 24 25 29
70 71 75 75 81 77 76 82 82 90 84 85 83 81 79 53 37 37 35 33 33 35 35 38 71 64 39 30 33 31 31 30 24 34 48 38 37 32 30 34 30 31 31 33 39
70 73 76 76 75 77 83 82 88 82 97 79 76 72 52 38 43 41 32 37 38 41 39 46 66 41 42 45 45 44 42 36 37 41 46 44 45 34 37 35 35 36 37 45 49
69 70 72 72 73 75 69 82 72 72 92 85 66 57 50 38 50 51 40 39 39 44 37 43 44 44 43 50 55 48 58 52 64 52 41 48 42 41 34 32 33 33 39 54 63
74 70 67 65 75 82 82 73 69 67 94 84 61 51 44 45 50 42 44 47 45 49 48 50 45 46 46 52 53 62 46 53 61 71 73 46 64 32 30 32 33 42 47 72 70
74 77 70 68 63 76 68 66 63 72 94 72 58 42 42 47 48 45 42 39 48 49 51 60 53 54 58 70 48 58 52 57 64 74 74 56 74 34 34 36 36 52 59 71 72
75 74 68 57 55 60 62 60 65 92 96 70 54 53 48 46 50 44 44 41 45 49 48 51 49 52 52 51 50 51 64 69 63 64 91 67 62 37 38 48 59 62 69 73 76
74 73 62 55 58 63 59 58 95 94 64 62 56 47 47 52 50 48 50 55 66 94 100 51 52 53 53 60 58 62 73 91 87 93 75 59 84 64 38 55 62 75 78 78 78
75 68 66 52 56 63 56 56 92 77 64 52 50 48 56 52 51 51 50 57 49 46 67 83 86 54 54 56 61 52 57 84 87 73 64 68 91 56 48 49 59 66 75 80 82
69 49 52 54 61 61 48 98 90 59 51 51 52 51 62 50 48 50 50 51 50 46 69 88 88 48 51 47 55 57 67 57 86 61 79 63 72 47 46 45 60 67 78 90 84
48 48 54 56 59 63 67 81 66 48 48 48 44 44 48 50 51 48 52 49 52 48 46 55 86 48 55 55 55 61 53 68 80 78 72 50 50 63 62 88 62 67 81 87 80
52 44 58 57 64 48 95 67 54 46 47 46 46 44 45 51 47 50 49 48 45 47 44 46 57 56 50 59 54 72 64 62 48 48 63 43 47 64 74 69 68 68 78 91 84
56 73 57 56 67 57 74 50 59 50 50 49 43 44 44 47 47 47 45 45 40 44 49 47 49 64 46 40 45 48 46 41 50 44 47 46 51 49 54 61 65 70 76 81 82
42 49 56 60 80 72 57 56 52 52 49 49 47 45 43 45 47 46 46 42 46 50 47 46 55 66 50 41 42 52 43 44 42 45 55 47 33 46 53 58 59 64 70 74 76
40 80 44 43 47 41 47 52 53 53 49 48 45 43 45 46 44 45 45 50 48 50 68 58 53 57 51 37 38 43 40 44 47 65 47 38 32 29 39 50 50 58 58 58 55
47 59 58 66 46 45 46 46 49 51 48 46 47 46 43 42 42 42 40 42 53 64 58 57 68 60 52 46 46 47 46 43 49 51 60 42 31 23 22 27 35 42 48 50 49
45 43 45 43 47 44 53 47 46 50 48 46 51 44 43 45 41 44 42 40 36 52 57 55 74 58 82 45 39 46 41 41 43 44 43 41 42 28 24 23 28 30 42 46 47
52 46 42 57 42 39 36 43 46 50 49 46 45 44 43 39 39 37 36 36 38 41 52 55 65 75 68 39 46 48 34 36 38 36 38 45 33 24 30 35 39 37 39 42 44

GFSSW_sfc_rhum_114.txt.gz
RH
81 79 78 80 67 68 69 67 67 70 77 84 88 76 73 70 65 52 55 51 43 43 47 29 29 34 37 51 44 42 49 38 33 27 38 31 31 30 28 29 21 19 20 17 15
74 71 73 82 68 66 65 63 62 64 68 81 83 88 73 74 41 58 52 49 48 45 34 31 32 32 41 46 45 46 48 39 31 35 34 30 29 25 25 21 19 18 18 15 16
64 63 66 77 74 64 62 62 63 64 67 78 84 92 74 66 50 63 55 49 44 40 28 27 26 29 41 38 44 42 45 33 33 37 31 29 24 23 25 25 17 18 17 17 20
65 67 68 73 72 64 58 58 60 64 65 88 92 85 86 63 81 55 52 49 43 36 29 34 31 35 41 40 35 39 33 28 39 36 33 30 25 25 23 23 17 18 20 21 23
65 67 69 73 68 63 65 58 58 59 68 90 89 91 90 71 66 31 40 33 28 33 31 30 28 34 36 30 30 35 32 28 31 36 30 24 29 27 25 21 18 20 24 27 28
64 67 68 68 68 69 67 62 68 59 84 89 86 85 81 88 51 26 27 28 27 32 34 28 26 27 26 28 35 30 36 30 32 30 29 34 32 30 23 20 21 22 28 31 32
65 68 66 72 73 71 63 63 68 60 84 83 80 66 79 84 54 33 28 32 32 30 34 35 30 33 28 35 32 28 38 33 32 34 36 39 41 38 26 22 24 25 25 32 32
66 67 67 66 69 69 65 67 78 84 85 76 63 64 88 56 51 39 26 32 32 33 38 39 33 36 34 29 26 30 31 40 35 36 42 43 39 31 22 22 29 28 30 32 31
68 70 73 70 69 67 68 73 83 90 81 64 69 66 84 58 39 30 27 32 33 33 35 25 36 39 39 41 45 30 39 28 43 38 42 45 46 32 27 27 32 34 36 31 35
73 74 72 71 74 71 75 82 85 83 72 62 65 70 71 62 44 32 33 32 38 42 45 45 45 56 44 85 87 50 30 29 34 44 41 47 46 35 32 31 41 41 40 39 48
78 79 78 78 78 78 84 84 84 87 84 90 78 73 72 55 40 38 35 36 38 42 48 48 91 83 48 43 43 42 41 41 33 43 56 52 48 43 38 45 44 47 46 56 58
74 74 75 76 76 75 76 77 82 79 96 80 75 76 67 51 45 45 37 45 47 53 48 67 78 47 45 49 53 54 57 60 53 46 54 57 56 46 42 43 46 48 60 70 71
72 73 73 73 75 80 82 90 78 75 94 91 76 70 60 43 51 53 46 44 46 47 52 66 52 42 42 56 63 64 79 69 73 59 55 60 67 54 46 40 38 45 66 74 79
72 70 68 74 73 91 90 81 79 73 98 94 78 54 44 48 53 42 46 53 52 55 56 59 46 44 53 66 63 81 54 58 67 83 95 60 90 51 47 44 40 57 70 83 84
76 74 75 69 72 79 70 68 67 82 93 70 58 42 44 50 49 49 44 46 52 49 61 69 58 62 68 79 53 70 60 65 70 75 82 72 91 59 42 43 62 66 73 81 82
75 73 73 63 65 66 64 64 75 98 96 67 49 49 49 48 47 45 48 47 50 54 56 60 55 59 61 52 53 53 72 72 66 74 92 89 84 67 56 63 72 70 77 80 78
70 69 63 54 73 66 66 72 97 94 59 62 56 45 47 50 50 48 55 63 80 94 98 65 60 59 54 69 65 70 95 98 95 95 95 74 94 84 52 66 73 77 84 80 80
73 70 66 52 63 68 73 85 90 75 63 48 49 48 55 50 53 53 57 78 57 53 90 95 89 63 59 67 74 64 70 94 94 96 91 82 94 83 58 60 66 71 83 81 78
77 67 65 62 64 73 79 95 90 67 48 51 50 61 66 50 55 55 57 60 55 53 80 98 92 55 55 52 65 69 77 67 90 82 91 88 81 63 55 59 67 77 75 79 82
68 63 65 60 64 78 87 82 74 47 42 46 51 48 58 55 58 57 61 57 56 53 54 65 90 55 59 64 63 76 62 87 86 96 90 79 77 86 77 77 75 74 84 80 80
73 67 70 63 74 72 99 76 56 44 48 50 49 46 52 57 54 56 57 52 50 50 51 55 70 73 61 73 78 85 85 75 63 68 91 80 76 82 76 87 77 75 81 82 86
78 88 70 66 85 70 91 57 59 52 52 51 49 46 48 52 54 54 52 51 45 52 58 61 64 85 65 52 52 63 64 63 84 64 69 70 74 56 63 68 74 73 77 85 77
63 63 74 74 95 90 64 59 53 55 54 52 51 50 47 51 58 54 54 48 50 56 70 61 73 90 76 58 56 62 56 58 56 63 79 84 56 60 66 69 68 75 82 82 85
64 93 68 61 57 53 56 58 60 61 53 48 48 48 52 51 51 56 51 61 52 57 70 67 67 75 78 62 61 66 53 50 59 89 74 60 49 41 51 65 63 72 73 80 78
64 72 70 88 60 56 58 54 54 58 55 51 53 51 50 53 49 52 49 56 60 69 71 70 84 76 68 58 58 61 58 54 58 61 73 54 53 42 39 38 36 57 64 67 67
71 65 60 54 52 52 65 57 51 52 54 51 58 48 51 56 48 54 50 49 49 69 75 69 90 78 83 60 58 65 55 52 52 50 50 48 50 36 35 37 45 46 50 61 61
64 57 58 66 52 52 52 51 52 54 54 48 50 52 51 50 49 47 49 47 49 55 72 70 88 87 90 68 66 77 51 49 46 46 49 58 45 38 42 42 47 52 49 54 55

GFSSW_sfc_rhum_117.txt.gz
RH
79 84 84 85 76 72 70 68 68 71 81 84 90 75 73 70 65 60 72 62 52 46 48 44 35 40 43 53 46 44 47 47 47 45 45 36 37 30 30 34 28 24 24 22 23
80 74 87 82 85 70 65 63 64 67 74 82 92 81 73 76 60 73 58 50 45 44 46 40 42 44 48 50 46 52 58 50 44 44 41 34 30 28 27 26 26 22 17 18 20
67 63 72 78 79 64 62 63 64 66 78 76 89 90 79 66 69 70 57 53 46 43 43 36 34 36 44 45 46 42 46 40 48 38 34 32 29 25 30 28 23 24 21 21 23
69 69 72 75 71 61 60 58 62 66 79 83 87 81 84 69 89 56 44 44 43 39 38 34 31 40 45 46 38 43 35 36 43 38 36 38 28 28 28 25 24 26 28 27 25
68 72 76 71 67 67 63 64 61 71 85 85 82 89 85 67 71 54 40 35 35 38 35 32 36 37 41 36 30 37 37 31 36 37 35 29 33 31 29 25 23 24 27 29 32
66 67 68 69 70 69 65 68 63 80 81 82 84 74 75 81 51 52 40 33 35 38 37 38 32 31 31 32 38 38 34 35 34 34 33 39 38 37 28 25 24 26 28 33 37
66 66 70 74 70 66 67 72 64 86 83 82 72 61 75 76 59 54 45 40 42 40 42 42 38 34 33 39 34 31 37 39 39 37 41 47 42 43 29 25 26 26 27 33 35
68 68 67 69 69 68 73 80 80 82 82 82 72 70 86 55 57 51 35 38 36 36 44 38 40 38 34 36 28 35 33 46 40 41 46 38 22 33 31 28 26 28 33 38 47
68 66 69 70 70 71 82 85 87 87 74 65 70 76 82 59 51 36 35 40 41 37 38 27 36 39 40 48 56 38 47 42 47 40 46 47 40 37 35 33 35 41 45 47 61
78 76 74 71 73 79 78 78 83 83 77 59 61 77 72 61 58 41 38 37 44 50 47 43 57 67 64 87 79 60 52 34 44 47 49 53 53 41 39 40 43 56 58 68 66
80 78 77 76 82 76 80 87 86 90 76 82 73 73 69 60 52 48 42 45 46 48 49 53 79 81 72 60 51 52 54 55 52 48 60 59 58 50 47 48 48 54 76 81 77
77 80 76 76 74 72 77 89 87 79 91 77 70 76 65 58 56 53 50 54 54 55 54 71 82 60 52 53 58 59 69 78 60 54 61 67 64 52 52 53 47 65 86 87 84
74 78 76 74 74 82 91 95 87 82 93 83 86 73 64 51 59 59 58 56 53 63 65 74 62 48 50 61 74 74 78 81 81 70 66 69 74 62 53 46 47 75 79 85 88
75 74 73 74 79 95 92 84 90 86 94 89 68 53 53 58 62 48 50 61 56 67 67 64 52 53 59 67 75 80 64 67 76 86 90 68 83 72 56 50 52 74 89 90 89
76 78 77 70 84 86 76 78 78 90 94 78 63 47 53 59 54 53 47 51 61 58 66 72 65 68 72 68 59 76 66 74 78 86 89 82 93 74 58 58 71 86 88 90 89
75 75 74 74 80 79 70 72 82 89 97 76 60 58 59 55 56 53 55 52 58 68 64 68 61 66 69 59 59 61 78 81 68 72 96 86 89 74 62 55 75 79 88 88 88
71 69 67 64 88 77 78 89 88 95 65 71 65 57 56 61 58 59 65 73 84 65 92 78 70 67 61 78 72 77 95 98 95 99 93 83 90 80 63 76 70 78 87 90 90
74 74 75 58 76 80 86 80 91 77 79 58 60 58 67 62 63 61 70 86 63 67 98 91 64 72 66 76 80 82 78 92 70 97 93 85 92 71 64 71 75 74 85 87 85
77 82 79 77 72 86 83 96 89 78 58 62 61 74 75 60 64 65 68 70 65 63 83 96 89 64 64 59 69 79 86 73 91 90 95 91 77 67 67 79 79 80 83 88 89
93 86 79 73 77 92 90 86 79 56 52 56 68 58 77 68 71 70 71 64 64 60 63 74 91 65 65 68 70 80 76 87 92 93 92 87 78 81 82 78 76 80 85 87 84
89 85 76 77 88 83 94 82 64 52 60 65 59 58 67 69 65 66 69 62 57 59 60 66 76 78 71 84 86 89 91 85 78 84 92 92 81 71 76 74 71 79 81 89 86
91 83 77 85 88 95 94 68 62 62 60 65 62 57 60 60 63 65 65 64 52 55 70 68 75 90 76 59 65 76 78 75 88 73 80 84 83 58 70 69 78 76 81 88 87
76 77 80 78 92 95 76 71 65 63 62 61 60 57 56 60 67 61 61 58 56 62 76 73 80 90 74 60 62 68 65 67 68 75 85 86 57 64 75 76 75 77 83 85 88
80 84 84 74 76 71 72 68 72 66 62 57 59 56 60 63 59 66 61 64 57 62 68 70 81 73 52 55 68 77 64 62 72 92 71 63 49 45 60 66 72 77 79 84 84
82 78 79 90 72 70 71 64 66 70 64 60 63 60 63 68 60 64 55 70 68 71 74 76 91 86 78 73 72 70 69 66 68 62 79 50 58 43 47 47 45 57 67 78 85
80 80 77 71 64 71 73 66 61 63 60 62 66 58 58 66 63 65 58 59 58 87 81 82 90 89 91 72 73 78 66 64 64 61 57 54 56 39 37 46 47 48 55 74 72
86 76 71 73 68 66 68 64 62 59 60 56 63 64 62 59 66 62 60 55 57 76 87 82 92 89 91 76 75 79 60 56 60 60 56 67 49 42 48 45 47 48 53 57 69